<?xml version="1.0" encoding="UTF-8" standalone="no" ?>
<gpx xmlns="http://www.topografix.com/GPX/1/1" xmlns:xsi="http://www.w3.org/2001/XMLSchema-instance" xsi:schemaLocation="http://www.topografix.com/GPX/1/1 http://www.topografix.com/GPX/1/1/gpx.xsd" version="1.1" creator="VisuGPX - https://www.visugpx.com">
  <metadata>
    <name>Canal de Montech à Montauban</name>
    <desc><![CDATA[Canal de Montech à Montauban, aller et retour]]></desc>
  </metadata>
  <trk>
    <name><![CDATA[Canal de Montech à Montauban_1]]></name>
    <trkseg>
      <trkpt lat="43.95886" lon="1.23759">
        <ele>109.9</ele>
        <time>2017-05-05T09:38:20Z</time>
      </trkpt>
      <trkpt lat="43.95886" lon="1.23759">
        <ele>109.9</ele>
        <time>2017-05-05T09:38:12Z</time>
      </trkpt>
      <trkpt lat="43.95894" lon="1.23762">
        <ele>109.9</ele>
        <time>2017-05-05T09:39:24Z</time>
      </trkpt>
      <trkpt lat="43.95902" lon="1.23757">
        <ele>110.5</ele>
        <time>2017-05-05T09:39:28Z</time>
      </trkpt>
      <trkpt lat="43.95908" lon="1.23752">
        <ele>111.6</ele>
        <time>2017-05-05T09:39:31Z</time>
      </trkpt>
      <trkpt lat="43.95917" lon="1.23746">
        <ele>112.8</ele>
        <time>2017-05-05T09:39:34Z</time>
      </trkpt>
      <trkpt lat="43.95926" lon="1.23741">
        <ele>112.7</ele>
        <time>2017-05-05T09:39:37Z</time>
      </trkpt>
      <trkpt lat="43.95933" lon="1.2374">
        <ele>112</ele>
        <time>2017-05-05T09:39:39Z</time>
      </trkpt>
      <trkpt lat="43.95943" lon="1.23744">
        <ele>111.4</ele>
        <time>2017-05-05T09:39:42Z</time>
      </trkpt>
      <trkpt lat="43.95953" lon="1.23746">
        <ele>111.3</ele>
        <time>2017-05-05T09:39:45Z</time>
      </trkpt>
      <trkpt lat="43.9596" lon="1.23746">
        <ele>111.4</ele>
        <time>2017-05-05T09:39:48Z</time>
      </trkpt>
      <trkpt lat="43.95967" lon="1.2374">
        <ele>112.5</ele>
        <time>2017-05-05T09:39:52Z</time>
      </trkpt>
      <trkpt lat="43.95974" lon="1.23733">
        <ele>108.9</ele>
        <time>2017-05-05T09:39:57Z</time>
      </trkpt>
      <trkpt lat="43.95978" lon="1.23724">
        <ele>108.9</ele>
        <time>2017-05-05T09:40:01Z</time>
      </trkpt>
      <trkpt lat="43.95977" lon="1.23716">
        <ele>109.2</ele>
        <time>2017-05-05T09:40:08Z</time>
      </trkpt>
      <trkpt lat="43.95978" lon="1.23723">
        <ele>108.4</ele>
        <time>2017-05-05T09:40:15Z</time>
      </trkpt>
      <trkpt lat="43.95977" lon="1.23734">
        <ele>107.7</ele>
        <time>2017-05-05T09:40:21Z</time>
      </trkpt>
      <trkpt lat="43.9597" lon="1.23731">
        <ele>109.6</ele>
        <time>2017-05-05T09:40:47Z</time>
      </trkpt>
      <trkpt lat="43.9597" lon="1.23733">
        <ele>109.9</ele>
        <time>2017-05-05T09:40:54Z</time>
      </trkpt>
      <trkpt lat="43.95972" lon="1.23743">
        <ele>108.6</ele>
        <time>2017-05-05T09:40:59Z</time>
      </trkpt>
      <trkpt lat="43.95974" lon="1.23747">
        <ele>108.9</ele>
        <time>2017-05-05T09:41:06Z</time>
      </trkpt>
      <trkpt lat="43.95977" lon="1.23757">
        <ele>108.2</ele>
        <time>2017-05-05T09:41:11Z</time>
      </trkpt>
      <trkpt lat="43.95981" lon="1.23765">
        <ele>107.5</ele>
        <time>2017-05-05T09:41:15Z</time>
      </trkpt>
      <trkpt lat="43.9599" lon="1.23766">
        <ele>106.3</ele>
        <time>2017-05-05T09:41:19Z</time>
      </trkpt>
      <trkpt lat="43.95998" lon="1.23758">
        <ele>104.2</ele>
        <time>2017-05-05T09:41:21Z</time>
      </trkpt>
      <trkpt lat="43.96007" lon="1.23745">
        <ele>104.2</ele>
        <time>2017-05-05T09:41:23Z</time>
      </trkpt>
      <trkpt lat="43.96019" lon="1.23739">
        <ele>104</ele>
        <time>2017-05-05T09:41:25Z</time>
      </trkpt>
      <trkpt lat="43.9603" lon="1.23731">
        <ele>104.1</ele>
        <time>2017-05-05T09:41:27Z</time>
      </trkpt>
      <trkpt lat="43.96041" lon="1.23725">
        <ele>104.4</ele>
        <time>2017-05-05T09:41:29Z</time>
      </trkpt>
      <trkpt lat="43.96051" lon="1.23719">
        <ele>104.1</ele>
        <time>2017-05-05T09:41:31Z</time>
      </trkpt>
      <trkpt lat="43.9606" lon="1.23713">
        <ele>104.2</ele>
        <time>2017-05-05T09:41:33Z</time>
      </trkpt>
      <trkpt lat="43.9607" lon="1.23708">
        <ele>103.8</ele>
        <time>2017-05-05T09:41:35Z</time>
      </trkpt>
      <trkpt lat="43.96079" lon="1.23702">
        <ele>103.5</ele>
        <time>2017-05-05T09:41:37Z</time>
      </trkpt>
      <trkpt lat="43.96088" lon="1.23696">
        <ele>103.3</ele>
        <time>2017-05-05T09:41:39Z</time>
      </trkpt>
      <trkpt lat="43.96097" lon="1.2369">
        <ele>103.4</ele>
        <time>2017-05-05T09:41:41Z</time>
      </trkpt>
      <trkpt lat="43.96106" lon="1.23683">
        <ele>102.9</ele>
        <time>2017-05-05T09:41:43Z</time>
      </trkpt>
      <trkpt lat="43.96115" lon="1.23677">
        <ele>103.4</ele>
        <time>2017-05-05T09:41:45Z</time>
      </trkpt>
      <trkpt lat="43.96125" lon="1.23671">
        <ele>103.7</ele>
        <time>2017-05-05T09:41:47Z</time>
      </trkpt>
      <trkpt lat="43.96134" lon="1.23665">
        <ele>103.8</ele>
        <time>2017-05-05T09:41:49Z</time>
      </trkpt>
      <trkpt lat="43.96144" lon="1.23659">
        <ele>103.9</ele>
        <time>2017-05-05T09:41:51Z</time>
      </trkpt>
      <trkpt lat="43.96153" lon="1.23653">
        <ele>103.6</ele>
        <time>2017-05-05T09:41:53Z</time>
      </trkpt>
      <trkpt lat="43.96163" lon="1.23647">
        <ele>103.4</ele>
        <time>2017-05-05T09:41:55Z</time>
      </trkpt>
      <trkpt lat="43.96173" lon="1.23642">
        <ele>103.5</ele>
        <time>2017-05-05T09:41:57Z</time>
      </trkpt>
      <trkpt lat="43.96181" lon="1.23637">
        <ele>104</ele>
        <time>2017-05-05T09:41:59Z</time>
      </trkpt>
      <trkpt lat="43.96189" lon="1.23631">
        <ele>104.4</ele>
        <time>2017-05-05T09:42:01Z</time>
      </trkpt>
      <trkpt lat="43.96197" lon="1.23625">
        <ele>104.8</ele>
        <time>2017-05-05T09:42:03Z</time>
      </trkpt>
      <trkpt lat="43.96204" lon="1.23621">
        <ele>105</ele>
        <time>2017-05-05T09:42:05Z</time>
      </trkpt>
      <trkpt lat="43.96212" lon="1.23616">
        <ele>105</ele>
        <time>2017-05-05T09:42:07Z</time>
      </trkpt>
      <trkpt lat="43.9622" lon="1.23611">
        <ele>104.9</ele>
        <time>2017-05-05T09:42:09Z</time>
      </trkpt>
      <trkpt lat="43.96229" lon="1.23605">
        <ele>105.1</ele>
        <time>2017-05-05T09:42:11Z</time>
      </trkpt>
      <trkpt lat="43.96238" lon="1.236">
        <ele>105.4</ele>
        <time>2017-05-05T09:42:13Z</time>
      </trkpt>
      <trkpt lat="43.96247" lon="1.23596">
        <ele>105.5</ele>
        <time>2017-05-05T09:42:15Z</time>
      </trkpt>
      <trkpt lat="43.96257" lon="1.23592">
        <ele>105.2</ele>
        <time>2017-05-05T09:42:17Z</time>
      </trkpt>
      <trkpt lat="43.96267" lon="1.23591">
        <ele>105.4</ele>
        <time>2017-05-05T09:42:19Z</time>
      </trkpt>
      <trkpt lat="43.96276" lon="1.23594">
        <ele>105.5</ele>
        <time>2017-05-05T09:42:21Z</time>
      </trkpt>
      <trkpt lat="43.96285" lon="1.23599">
        <ele>105.5</ele>
        <time>2017-05-05T09:42:23Z</time>
      </trkpt>
      <trkpt lat="43.96293" lon="1.23602">
        <ele>105.7</ele>
        <time>2017-05-05T09:42:25Z</time>
      </trkpt>
      <trkpt lat="43.963" lon="1.23606">
        <ele>105.6</ele>
        <time>2017-05-05T09:42:27Z</time>
      </trkpt>
      <trkpt lat="43.96306" lon="1.23618">
        <ele>105.5</ele>
        <time>2017-05-05T09:42:30Z</time>
      </trkpt>
      <trkpt lat="43.96311" lon="1.23629">
        <ele>105.2</ele>
        <time>2017-05-05T09:42:32Z</time>
      </trkpt>
      <trkpt lat="43.96315" lon="1.23639">
        <ele>104.9</ele>
        <time>2017-05-05T09:42:34Z</time>
      </trkpt>
      <trkpt lat="43.96322" lon="1.23649">
        <ele>104.7</ele>
        <time>2017-05-05T09:42:36Z</time>
      </trkpt>
      <trkpt lat="43.96329" lon="1.23657">
        <ele>104.2</ele>
        <time>2017-05-05T09:42:38Z</time>
      </trkpt>
      <trkpt lat="43.96338" lon="1.23666">
        <ele>103.8</ele>
        <time>2017-05-05T09:42:40Z</time>
      </trkpt>
      <trkpt lat="43.96345" lon="1.23675">
        <ele>103.5</ele>
        <time>2017-05-05T09:42:42Z</time>
      </trkpt>
      <trkpt lat="43.96353" lon="1.23684">
        <ele>103.1</ele>
        <time>2017-05-05T09:42:44Z</time>
      </trkpt>
      <trkpt lat="43.9636" lon="1.23691">
        <ele>103</ele>
        <time>2017-05-05T09:42:46Z</time>
      </trkpt>
      <trkpt lat="43.96368" lon="1.23699">
        <ele>102.9</ele>
        <time>2017-05-05T09:42:48Z</time>
      </trkpt>
      <trkpt lat="43.96376" lon="1.23708">
        <ele>102.6</ele>
        <time>2017-05-05T09:42:50Z</time>
      </trkpt>
      <trkpt lat="43.96383" lon="1.23716">
        <ele>102.4</ele>
        <time>2017-05-05T09:42:52Z</time>
      </trkpt>
      <trkpt lat="43.96392" lon="1.23727">
        <ele>102.1</ele>
        <time>2017-05-05T09:42:54Z</time>
      </trkpt>
      <trkpt lat="43.964" lon="1.23737">
        <ele>102</ele>
        <time>2017-05-05T09:42:56Z</time>
      </trkpt>
      <trkpt lat="43.96408" lon="1.23746">
        <ele>101.9</ele>
        <time>2017-05-05T09:42:58Z</time>
      </trkpt>
      <trkpt lat="43.96416" lon="1.23756">
        <ele>101.8</ele>
        <time>2017-05-05T09:43:00Z</time>
      </trkpt>
      <trkpt lat="43.96423" lon="1.23765">
        <ele>101.6</ele>
        <time>2017-05-05T09:43:02Z</time>
      </trkpt>
      <trkpt lat="43.96431" lon="1.23776">
        <ele>101.6</ele>
        <time>2017-05-05T09:43:04Z</time>
      </trkpt>
      <trkpt lat="43.96439" lon="1.23787">
        <ele>101.5</ele>
        <time>2017-05-05T09:43:06Z</time>
      </trkpt>
      <trkpt lat="43.96447" lon="1.23797">
        <ele>101.2</ele>
        <time>2017-05-05T09:43:08Z</time>
      </trkpt>
      <trkpt lat="43.96456" lon="1.23806">
        <ele>100.9</ele>
        <time>2017-05-05T09:43:10Z</time>
      </trkpt>
      <trkpt lat="43.96465" lon="1.23816">
        <ele>100.8</ele>
        <time>2017-05-05T09:43:12Z</time>
      </trkpt>
      <trkpt lat="43.96474" lon="1.23825">
        <ele>100.8</ele>
        <time>2017-05-05T09:43:14Z</time>
      </trkpt>
      <trkpt lat="43.96482" lon="1.23835">
        <ele>100.9</ele>
        <time>2017-05-05T09:43:16Z</time>
      </trkpt>
      <trkpt lat="43.96492" lon="1.23846">
        <ele>101.1</ele>
        <time>2017-05-05T09:43:18Z</time>
      </trkpt>
      <trkpt lat="43.96501" lon="1.23857">
        <ele>101.5</ele>
        <time>2017-05-05T09:43:20Z</time>
      </trkpt>
      <trkpt lat="43.9651" lon="1.23867">
        <ele>101.6</ele>
        <time>2017-05-05T09:43:22Z</time>
      </trkpt>
      <trkpt lat="43.96519" lon="1.23878">
        <ele>101.8</ele>
        <time>2017-05-05T09:43:24Z</time>
      </trkpt>
      <trkpt lat="43.96528" lon="1.23888">
        <ele>101.8</ele>
        <time>2017-05-05T09:43:26Z</time>
      </trkpt>
      <trkpt lat="43.96537" lon="1.23897">
        <ele>101.7</ele>
        <time>2017-05-05T09:43:28Z</time>
      </trkpt>
      <trkpt lat="43.96546" lon="1.23908">
        <ele>101.5</ele>
        <time>2017-05-05T09:43:30Z</time>
      </trkpt>
      <trkpt lat="43.96556" lon="1.23918">
        <ele>101.8</ele>
        <time>2017-05-05T09:43:32Z</time>
      </trkpt>
      <trkpt lat="43.96565" lon="1.23929">
        <ele>102.3</ele>
        <time>2017-05-05T09:43:34Z</time>
      </trkpt>
      <trkpt lat="43.96573" lon="1.23939">
        <ele>102.6</ele>
        <time>2017-05-05T09:43:36Z</time>
      </trkpt>
      <trkpt lat="43.96582" lon="1.23949">
        <ele>102.5</ele>
        <time>2017-05-05T09:43:38Z</time>
      </trkpt>
      <trkpt lat="43.96591" lon="1.23959">
        <ele>102.2</ele>
        <time>2017-05-05T09:43:40Z</time>
      </trkpt>
      <trkpt lat="43.966" lon="1.23969">
        <ele>102</ele>
        <time>2017-05-05T09:43:42Z</time>
      </trkpt>
      <trkpt lat="43.96608" lon="1.2398">
        <ele>102.3</ele>
        <time>2017-05-05T09:43:44Z</time>
      </trkpt>
      <trkpt lat="43.96617" lon="1.2399">
        <ele>102.7</ele>
        <time>2017-05-05T09:43:46Z</time>
      </trkpt>
      <trkpt lat="43.96625" lon="1.24">
        <ele>103.5</ele>
        <time>2017-05-05T09:43:48Z</time>
      </trkpt>
      <trkpt lat="43.96634" lon="1.24009">
        <ele>104.2</ele>
        <time>2017-05-05T09:43:50Z</time>
      </trkpt>
      <trkpt lat="43.96642" lon="1.2402">
        <ele>104.4</ele>
        <time>2017-05-05T09:43:52Z</time>
      </trkpt>
      <trkpt lat="43.96651" lon="1.2403">
        <ele>104.4</ele>
        <time>2017-05-05T09:43:54Z</time>
      </trkpt>
      <trkpt lat="43.9666" lon="1.2404">
        <ele>104.6</ele>
        <time>2017-05-05T09:43:56Z</time>
      </trkpt>
      <trkpt lat="43.96669" lon="1.24051">
        <ele>104.8</ele>
        <time>2017-05-05T09:43:58Z</time>
      </trkpt>
      <trkpt lat="43.96677" lon="1.24061">
        <ele>105</ele>
        <time>2017-05-05T09:44:00Z</time>
      </trkpt>
      <trkpt lat="43.96686" lon="1.2407">
        <ele>105.2</ele>
        <time>2017-05-05T09:44:02Z</time>
      </trkpt>
      <trkpt lat="43.96694" lon="1.2408">
        <ele>105.3</ele>
        <time>2017-05-05T09:44:04Z</time>
      </trkpt>
      <trkpt lat="43.96703" lon="1.2409">
        <ele>104.8</ele>
        <time>2017-05-05T09:44:06Z</time>
      </trkpt>
      <trkpt lat="43.96711" lon="1.24101">
        <ele>104.2</ele>
        <time>2017-05-05T09:44:08Z</time>
      </trkpt>
      <trkpt lat="43.9672" lon="1.2411">
        <ele>104.8</ele>
        <time>2017-05-05T09:44:10Z</time>
      </trkpt>
      <trkpt lat="43.96728" lon="1.24121">
        <ele>104.2</ele>
        <time>2017-05-05T09:44:12Z</time>
      </trkpt>
      <trkpt lat="43.96737" lon="1.24131">
        <ele>104.1</ele>
        <time>2017-05-05T09:44:14Z</time>
      </trkpt>
      <trkpt lat="43.96746" lon="1.24141">
        <ele>104.2</ele>
        <time>2017-05-05T09:44:16Z</time>
      </trkpt>
      <trkpt lat="43.96754" lon="1.24151">
        <ele>103.4</ele>
        <time>2017-05-05T09:44:18Z</time>
      </trkpt>
      <trkpt lat="43.96763" lon="1.24161">
        <ele>102.9</ele>
        <time>2017-05-05T09:44:20Z</time>
      </trkpt>
      <trkpt lat="43.96772" lon="1.24171">
        <ele>102.2</ele>
        <time>2017-05-05T09:44:22Z</time>
      </trkpt>
      <trkpt lat="43.96781" lon="1.24181">
        <ele>101.9</ele>
        <time>2017-05-05T09:44:24Z</time>
      </trkpt>
      <trkpt lat="43.96789" lon="1.24191">
        <ele>101.7</ele>
        <time>2017-05-05T09:44:26Z</time>
      </trkpt>
      <trkpt lat="43.96797" lon="1.242">
        <ele>100.9</ele>
        <time>2017-05-05T09:44:28Z</time>
      </trkpt>
      <trkpt lat="43.96805" lon="1.2421">
        <ele>100.1</ele>
        <time>2017-05-05T09:44:30Z</time>
      </trkpt>
      <trkpt lat="43.96814" lon="1.2422">
        <ele>99.8</ele>
        <time>2017-05-05T09:44:32Z</time>
      </trkpt>
      <trkpt lat="43.96823" lon="1.24231">
        <ele>99.5</ele>
        <time>2017-05-05T09:44:34Z</time>
      </trkpt>
      <trkpt lat="43.96831" lon="1.24241">
        <ele>99.3</ele>
        <time>2017-05-05T09:44:36Z</time>
      </trkpt>
      <trkpt lat="43.9684" lon="1.24252">
        <ele>98.7</ele>
        <time>2017-05-05T09:44:38Z</time>
      </trkpt>
      <trkpt lat="43.96848" lon="1.24262">
        <ele>98.3</ele>
        <time>2017-05-05T09:44:40Z</time>
      </trkpt>
      <trkpt lat="43.96857" lon="1.24272">
        <ele>98.7</ele>
        <time>2017-05-05T09:44:42Z</time>
      </trkpt>
      <trkpt lat="43.96866" lon="1.24282">
        <ele>98.6</ele>
        <time>2017-05-05T09:44:44Z</time>
      </trkpt>
      <trkpt lat="43.96874" lon="1.24292">
        <ele>98.2</ele>
        <time>2017-05-05T09:44:46Z</time>
      </trkpt>
      <trkpt lat="43.96883" lon="1.24302">
        <ele>98.3</ele>
        <time>2017-05-05T09:44:48Z</time>
      </trkpt>
      <trkpt lat="43.96891" lon="1.24312">
        <ele>98.2</ele>
        <time>2017-05-05T09:44:50Z</time>
      </trkpt>
      <trkpt lat="43.969" lon="1.24323">
        <ele>98.4</ele>
        <time>2017-05-05T09:44:52Z</time>
      </trkpt>
      <trkpt lat="43.96909" lon="1.24333">
        <ele>98.6</ele>
        <time>2017-05-05T09:44:54Z</time>
      </trkpt>
      <trkpt lat="43.96918" lon="1.24343">
        <ele>99.5</ele>
        <time>2017-05-05T09:44:56Z</time>
      </trkpt>
      <trkpt lat="43.96927" lon="1.24353">
        <ele>100</ele>
        <time>2017-05-05T09:44:58Z</time>
      </trkpt>
      <trkpt lat="43.96936" lon="1.24363">
        <ele>100.5</ele>
        <time>2017-05-05T09:45:00Z</time>
      </trkpt>
      <trkpt lat="43.96945" lon="1.24373">
        <ele>101</ele>
        <time>2017-05-05T09:45:02Z</time>
      </trkpt>
      <trkpt lat="43.96952" lon="1.24382">
        <ele>100.3</ele>
        <time>2017-05-05T09:45:04Z</time>
      </trkpt>
      <trkpt lat="43.96961" lon="1.24391">
        <ele>99.8</ele>
        <time>2017-05-05T09:45:06Z</time>
      </trkpt>
      <trkpt lat="43.96968" lon="1.24401">
        <ele>99.2</ele>
        <time>2017-05-05T09:45:08Z</time>
      </trkpt>
      <trkpt lat="43.96976" lon="1.2441">
        <ele>99.5</ele>
        <time>2017-05-05T09:45:10Z</time>
      </trkpt>
      <trkpt lat="43.96985" lon="1.24419">
        <ele>99.5</ele>
        <time>2017-05-05T09:45:12Z</time>
      </trkpt>
      <trkpt lat="43.96993" lon="1.24429">
        <ele>100</ele>
        <time>2017-05-05T09:45:14Z</time>
      </trkpt>
      <trkpt lat="43.97001" lon="1.2444">
        <ele>99.8</ele>
        <time>2017-05-05T09:45:16Z</time>
      </trkpt>
      <trkpt lat="43.9701" lon="1.24449">
        <ele>100.5</ele>
        <time>2017-05-05T09:45:18Z</time>
      </trkpt>
      <trkpt lat="43.9702" lon="1.24458">
        <ele>100.3</ele>
        <time>2017-05-05T09:45:20Z</time>
      </trkpt>
      <trkpt lat="43.97029" lon="1.24468">
        <ele>100.4</ele>
        <time>2017-05-05T09:45:22Z</time>
      </trkpt>
      <trkpt lat="43.97038" lon="1.24478">
        <ele>100.3</ele>
        <time>2017-05-05T09:45:24Z</time>
      </trkpt>
      <trkpt lat="43.97046" lon="1.24488">
        <ele>100.9</ele>
        <time>2017-05-05T09:45:26Z</time>
      </trkpt>
      <trkpt lat="43.97054" lon="1.24499">
        <ele>100.3</ele>
        <time>2017-05-05T09:45:28Z</time>
      </trkpt>
      <trkpt lat="43.97063" lon="1.24509">
        <ele>100.3</ele>
        <time>2017-05-05T09:45:30Z</time>
      </trkpt>
      <trkpt lat="43.97072" lon="1.2452">
        <ele>100.6</ele>
        <time>2017-05-05T09:45:32Z</time>
      </trkpt>
      <trkpt lat="43.97081" lon="1.2453">
        <ele>100.6</ele>
        <time>2017-05-05T09:45:34Z</time>
      </trkpt>
      <trkpt lat="43.97092" lon="1.2454">
        <ele>100.3</ele>
        <time>2017-05-05T09:45:36Z</time>
      </trkpt>
      <trkpt lat="43.97102" lon="1.24551">
        <ele>100.6</ele>
        <time>2017-05-05T09:45:38Z</time>
      </trkpt>
      <trkpt lat="43.9711" lon="1.24561">
        <ele>100.6</ele>
        <time>2017-05-05T09:45:40Z</time>
      </trkpt>
      <trkpt lat="43.97119" lon="1.24573">
        <ele>100.6</ele>
        <time>2017-05-05T09:45:42Z</time>
      </trkpt>
      <trkpt lat="43.97129" lon="1.24584">
        <ele>100.5</ele>
        <time>2017-05-05T09:45:44Z</time>
      </trkpt>
      <trkpt lat="43.97138" lon="1.24595">
        <ele>100.4</ele>
        <time>2017-05-05T09:45:46Z</time>
      </trkpt>
      <trkpt lat="43.97147" lon="1.24605">
        <ele>99.5</ele>
        <time>2017-05-05T09:45:48Z</time>
      </trkpt>
      <trkpt lat="43.97156" lon="1.24615">
        <ele>99.7</ele>
        <time>2017-05-05T09:45:50Z</time>
      </trkpt>
      <trkpt lat="43.97164" lon="1.24626">
        <ele>99.6</ele>
        <time>2017-05-05T09:45:52Z</time>
      </trkpt>
      <trkpt lat="43.97172" lon="1.24635">
        <ele>100.1</ele>
        <time>2017-05-05T09:45:54Z</time>
      </trkpt>
      <trkpt lat="43.97181" lon="1.24645">
        <ele>100.9</ele>
        <time>2017-05-05T09:45:56Z</time>
      </trkpt>
      <trkpt lat="43.9719" lon="1.24655">
        <ele>99.7</ele>
        <time>2017-05-05T09:45:58Z</time>
      </trkpt>
      <trkpt lat="43.97199" lon="1.24665">
        <ele>99.4</ele>
        <time>2017-05-05T09:46:00Z</time>
      </trkpt>
      <trkpt lat="43.97208" lon="1.24676">
        <ele>99.6</ele>
        <time>2017-05-05T09:46:02Z</time>
      </trkpt>
      <trkpt lat="43.97216" lon="1.24686">
        <ele>99.6</ele>
        <time>2017-05-05T09:46:04Z</time>
      </trkpt>
      <trkpt lat="43.97224" lon="1.24696">
        <ele>99.6</ele>
        <time>2017-05-05T09:46:06Z</time>
      </trkpt>
      <trkpt lat="43.97233" lon="1.24707">
        <ele>99.5</ele>
        <time>2017-05-05T09:46:08Z</time>
      </trkpt>
      <trkpt lat="43.97242" lon="1.24718">
        <ele>99.6</ele>
        <time>2017-05-05T09:46:10Z</time>
      </trkpt>
      <trkpt lat="43.9725" lon="1.24728">
        <ele>99.2</ele>
        <time>2017-05-05T09:46:12Z</time>
      </trkpt>
      <trkpt lat="43.97258" lon="1.24736">
        <ele>99.3</ele>
        <time>2017-05-05T09:46:14Z</time>
      </trkpt>
      <trkpt lat="43.97267" lon="1.24745">
        <ele>99.9</ele>
        <time>2017-05-05T09:46:16Z</time>
      </trkpt>
      <trkpt lat="43.97277" lon="1.24755">
        <ele>100.6</ele>
        <time>2017-05-05T09:46:18Z</time>
      </trkpt>
      <trkpt lat="43.97287" lon="1.24764">
        <ele>101.8</ele>
        <time>2017-05-05T09:46:20Z</time>
      </trkpt>
      <trkpt lat="43.97298" lon="1.24772">
        <ele>102.7</ele>
        <time>2017-05-05T09:46:22Z</time>
      </trkpt>
      <trkpt lat="43.97308" lon="1.2478">
        <ele>103</ele>
        <time>2017-05-05T09:46:24Z</time>
      </trkpt>
      <trkpt lat="43.97318" lon="1.24788">
        <ele>103.6</ele>
        <time>2017-05-05T09:46:26Z</time>
      </trkpt>
      <trkpt lat="43.97329" lon="1.24795">
        <ele>104</ele>
        <time>2017-05-05T09:46:28Z</time>
      </trkpt>
      <trkpt lat="43.97339" lon="1.24801">
        <ele>104.9</ele>
        <time>2017-05-05T09:46:30Z</time>
      </trkpt>
      <trkpt lat="43.9735" lon="1.24808">
        <ele>105.2</ele>
        <time>2017-05-05T09:46:32Z</time>
      </trkpt>
      <trkpt lat="43.97361" lon="1.24814">
        <ele>105.6</ele>
        <time>2017-05-05T09:46:34Z</time>
      </trkpt>
      <trkpt lat="43.97373" lon="1.2482">
        <ele>105.8</ele>
        <time>2017-05-05T09:46:36Z</time>
      </trkpt>
      <trkpt lat="43.97384" lon="1.24826">
        <ele>106.3</ele>
        <time>2017-05-05T09:46:38Z</time>
      </trkpt>
      <trkpt lat="43.97396" lon="1.24832">
        <ele>106.7</ele>
        <time>2017-05-05T09:46:40Z</time>
      </trkpt>
      <trkpt lat="43.97408" lon="1.24837">
        <ele>107.5</ele>
        <time>2017-05-05T09:46:42Z</time>
      </trkpt>
      <trkpt lat="43.97419" lon="1.24843">
        <ele>105.7</ele>
        <time>2017-05-05T09:46:44Z</time>
      </trkpt>
      <trkpt lat="43.97431" lon="1.24848">
        <ele>105.3</ele>
        <time>2017-05-05T09:46:46Z</time>
      </trkpt>
      <trkpt lat="43.97442" lon="1.24852">
        <ele>105.6</ele>
        <time>2017-05-05T09:46:48Z</time>
      </trkpt>
      <trkpt lat="43.97453" lon="1.24857">
        <ele>105.1</ele>
        <time>2017-05-05T09:46:50Z</time>
      </trkpt>
      <trkpt lat="43.97464" lon="1.24861">
        <ele>105.3</ele>
        <time>2017-05-05T09:46:52Z</time>
      </trkpt>
      <trkpt lat="43.97476" lon="1.24865">
        <ele>106.4</ele>
        <time>2017-05-05T09:46:54Z</time>
      </trkpt>
      <trkpt lat="43.97487" lon="1.24869">
        <ele>106.2</ele>
        <time>2017-05-05T09:46:56Z</time>
      </trkpt>
      <trkpt lat="43.97498" lon="1.24873">
        <ele>106.3</ele>
        <time>2017-05-05T09:46:58Z</time>
      </trkpt>
      <trkpt lat="43.9751" lon="1.24877">
        <ele>106.9</ele>
        <time>2017-05-05T09:47:00Z</time>
      </trkpt>
      <trkpt lat="43.97521" lon="1.24881">
        <ele>107</ele>
        <time>2017-05-05T09:47:02Z</time>
      </trkpt>
      <trkpt lat="43.97533" lon="1.24885">
        <ele>106.9</ele>
        <time>2017-05-05T09:47:04Z</time>
      </trkpt>
      <trkpt lat="43.97544" lon="1.24891">
        <ele>105.9</ele>
        <time>2017-05-05T09:47:06Z</time>
      </trkpt>
      <trkpt lat="43.97556" lon="1.24895">
        <ele>105.8</ele>
        <time>2017-05-05T09:47:08Z</time>
      </trkpt>
      <trkpt lat="43.97567" lon="1.249">
        <ele>105.9</ele>
        <time>2017-05-05T09:47:10Z</time>
      </trkpt>
      <trkpt lat="43.97578" lon="1.24905">
        <ele>105.8</ele>
        <time>2017-05-05T09:47:12Z</time>
      </trkpt>
      <trkpt lat="43.9759" lon="1.2491">
        <ele>105.8</ele>
        <time>2017-05-05T09:47:14Z</time>
      </trkpt>
      <trkpt lat="43.97602" lon="1.24915">
        <ele>106</ele>
        <time>2017-05-05T09:47:16Z</time>
      </trkpt>
      <trkpt lat="43.97614" lon="1.24919">
        <ele>105.5</ele>
        <time>2017-05-05T09:47:18Z</time>
      </trkpt>
      <trkpt lat="43.97625" lon="1.24923">
        <ele>105.9</ele>
        <time>2017-05-05T09:47:20Z</time>
      </trkpt>
      <trkpt lat="43.97637" lon="1.24928">
        <ele>106.1</ele>
        <time>2017-05-05T09:47:22Z</time>
      </trkpt>
      <trkpt lat="43.97648" lon="1.24933">
        <ele>106.5</ele>
        <time>2017-05-05T09:47:24Z</time>
      </trkpt>
      <trkpt lat="43.97659" lon="1.24937">
        <ele>106.5</ele>
        <time>2017-05-05T09:47:26Z</time>
      </trkpt>
      <trkpt lat="43.9767" lon="1.24942">
        <ele>106</ele>
        <time>2017-05-05T09:47:28Z</time>
      </trkpt>
      <trkpt lat="43.97682" lon="1.24946">
        <ele>105.9</ele>
        <time>2017-05-05T09:47:30Z</time>
      </trkpt>
      <trkpt lat="43.97693" lon="1.2495">
        <ele>106.1</ele>
        <time>2017-05-05T09:47:32Z</time>
      </trkpt>
      <trkpt lat="43.97704" lon="1.24955">
        <ele>105.9</ele>
        <time>2017-05-05T09:47:34Z</time>
      </trkpt>
      <trkpt lat="43.97716" lon="1.24959">
        <ele>106.2</ele>
        <time>2017-05-05T09:47:36Z</time>
      </trkpt>
      <trkpt lat="43.97727" lon="1.24964">
        <ele>106.1</ele>
        <time>2017-05-05T09:47:38Z</time>
      </trkpt>
      <trkpt lat="43.97739" lon="1.24969">
        <ele>106.5</ele>
        <time>2017-05-05T09:47:40Z</time>
      </trkpt>
      <trkpt lat="43.9775" lon="1.24973">
        <ele>106.5</ele>
        <time>2017-05-05T09:47:42Z</time>
      </trkpt>
      <trkpt lat="43.97762" lon="1.24978">
        <ele>107</ele>
        <time>2017-05-05T09:47:44Z</time>
      </trkpt>
      <trkpt lat="43.97773" lon="1.24984">
        <ele>107.4</ele>
        <time>2017-05-05T09:47:46Z</time>
      </trkpt>
      <trkpt lat="43.97784" lon="1.2499">
        <ele>107.4</ele>
        <time>2017-05-05T09:47:48Z</time>
      </trkpt>
      <trkpt lat="43.97795" lon="1.24996">
        <ele>107.5</ele>
        <time>2017-05-05T09:47:50Z</time>
      </trkpt>
      <trkpt lat="43.97806" lon="1.25002">
        <ele>107.9</ele>
        <time>2017-05-05T09:47:52Z</time>
      </trkpt>
      <trkpt lat="43.97818" lon="1.25009">
        <ele>108.3</ele>
        <time>2017-05-05T09:47:54Z</time>
      </trkpt>
      <trkpt lat="43.97829" lon="1.25016">
        <ele>108.1</ele>
        <time>2017-05-05T09:47:56Z</time>
      </trkpt>
      <trkpt lat="43.97841" lon="1.25024">
        <ele>107.7</ele>
        <time>2017-05-05T09:47:58Z</time>
      </trkpt>
      <trkpt lat="43.97852" lon="1.25031">
        <ele>107.5</ele>
        <time>2017-05-05T09:48:00Z</time>
      </trkpt>
      <trkpt lat="43.97863" lon="1.25039">
        <ele>106.9</ele>
        <time>2017-05-05T09:48:02Z</time>
      </trkpt>
      <trkpt lat="43.97874" lon="1.25046">
        <ele>106.4</ele>
        <time>2017-05-05T09:48:04Z</time>
      </trkpt>
      <trkpt lat="43.97885" lon="1.25054">
        <ele>105.9</ele>
        <time>2017-05-05T09:48:06Z</time>
      </trkpt>
      <trkpt lat="43.97896" lon="1.25062">
        <ele>105.6</ele>
        <time>2017-05-05T09:48:08Z</time>
      </trkpt>
      <trkpt lat="43.97906" lon="1.25071">
        <ele>105.7</ele>
        <time>2017-05-05T09:48:10Z</time>
      </trkpt>
      <trkpt lat="43.97917" lon="1.25079">
        <ele>105.3</ele>
        <time>2017-05-05T09:48:12Z</time>
      </trkpt>
      <trkpt lat="43.97927" lon="1.25088">
        <ele>105.1</ele>
        <time>2017-05-05T09:48:14Z</time>
      </trkpt>
      <trkpt lat="43.97937" lon="1.25096">
        <ele>105</ele>
        <time>2017-05-05T09:48:16Z</time>
      </trkpt>
      <trkpt lat="43.97947" lon="1.25106">
        <ele>104.9</ele>
        <time>2017-05-05T09:48:18Z</time>
      </trkpt>
      <trkpt lat="43.97957" lon="1.25116">
        <ele>104.9</ele>
        <time>2017-05-05T09:48:20Z</time>
      </trkpt>
      <trkpt lat="43.97967" lon="1.25125">
        <ele>104.9</ele>
        <time>2017-05-05T09:48:22Z</time>
      </trkpt>
      <trkpt lat="43.97977" lon="1.25134">
        <ele>104.7</ele>
        <time>2017-05-05T09:48:24Z</time>
      </trkpt>
      <trkpt lat="43.97987" lon="1.25144">
        <ele>104.6</ele>
        <time>2017-05-05T09:48:26Z</time>
      </trkpt>
      <trkpt lat="43.97997" lon="1.25154">
        <ele>104.3</ele>
        <time>2017-05-05T09:48:28Z</time>
      </trkpt>
      <trkpt lat="43.98007" lon="1.25164">
        <ele>104</ele>
        <time>2017-05-05T09:48:30Z</time>
      </trkpt>
      <trkpt lat="43.98017" lon="1.25174">
        <ele>103.8</ele>
        <time>2017-05-05T09:48:32Z</time>
      </trkpt>
      <trkpt lat="43.98026" lon="1.25184">
        <ele>103.4</ele>
        <time>2017-05-05T09:48:34Z</time>
      </trkpt>
      <trkpt lat="43.98035" lon="1.25194">
        <ele>103.3</ele>
        <time>2017-05-05T09:48:36Z</time>
      </trkpt>
      <trkpt lat="43.98045" lon="1.25205">
        <ele>103.2</ele>
        <time>2017-05-05T09:48:38Z</time>
      </trkpt>
      <trkpt lat="43.98054" lon="1.25216">
        <ele>102.9</ele>
        <time>2017-05-05T09:48:40Z</time>
      </trkpt>
      <trkpt lat="43.98063" lon="1.25227">
        <ele>103.1</ele>
        <time>2017-05-05T09:48:42Z</time>
      </trkpt>
      <trkpt lat="43.98072" lon="1.25238">
        <ele>103.4</ele>
        <time>2017-05-05T09:48:44Z</time>
      </trkpt>
      <trkpt lat="43.98081" lon="1.2525">
        <ele>103.5</ele>
        <time>2017-05-05T09:48:46Z</time>
      </trkpt>
      <trkpt lat="43.98089" lon="1.25261">
        <ele>103.1</ele>
        <time>2017-05-05T09:48:48Z</time>
      </trkpt>
      <trkpt lat="43.98098" lon="1.25273">
        <ele>103</ele>
        <time>2017-05-05T09:48:50Z</time>
      </trkpt>
      <trkpt lat="43.98104" lon="1.25285">
        <ele>102.3</ele>
        <time>2017-05-05T09:48:52Z</time>
      </trkpt>
      <trkpt lat="43.98111" lon="1.25298">
        <ele>102</ele>
        <time>2017-05-05T09:48:54Z</time>
      </trkpt>
      <trkpt lat="43.98118" lon="1.2531">
        <ele>102</ele>
        <time>2017-05-05T09:48:56Z</time>
      </trkpt>
      <trkpt lat="43.98126" lon="1.25322">
        <ele>102.1</ele>
        <time>2017-05-05T09:48:58Z</time>
      </trkpt>
      <trkpt lat="43.98134" lon="1.25332">
        <ele>101.5</ele>
        <time>2017-05-05T09:49:00Z</time>
      </trkpt>
      <trkpt lat="43.98143" lon="1.2534">
        <ele>101.1</ele>
        <time>2017-05-05T09:49:02Z</time>
      </trkpt>
      <trkpt lat="43.98151" lon="1.25352">
        <ele>100.7</ele>
        <time>2017-05-05T09:49:04Z</time>
      </trkpt>
      <trkpt lat="43.98159" lon="1.25364">
        <ele>100.2</ele>
        <time>2017-05-05T09:49:06Z</time>
      </trkpt>
      <trkpt lat="43.98167" lon="1.25377">
        <ele>100.5</ele>
        <time>2017-05-05T09:49:08Z</time>
      </trkpt>
      <trkpt lat="43.98175" lon="1.2539">
        <ele>100</ele>
        <time>2017-05-05T09:49:10Z</time>
      </trkpt>
      <trkpt lat="43.98184" lon="1.25402">
        <ele>99.5</ele>
        <time>2017-05-05T09:49:12Z</time>
      </trkpt>
      <trkpt lat="43.98191" lon="1.25415">
        <ele>99.5</ele>
        <time>2017-05-05T09:49:14Z</time>
      </trkpt>
      <trkpt lat="43.982" lon="1.25428">
        <ele>100.1</ele>
        <time>2017-05-05T09:49:16Z</time>
      </trkpt>
      <trkpt lat="43.98207" lon="1.25441">
        <ele>100.2</ele>
        <time>2017-05-05T09:49:18Z</time>
      </trkpt>
      <trkpt lat="43.98214" lon="1.25455">
        <ele>100.3</ele>
        <time>2017-05-05T09:49:20Z</time>
      </trkpt>
      <trkpt lat="43.98221" lon="1.25469">
        <ele>100.6</ele>
        <time>2017-05-05T09:49:22Z</time>
      </trkpt>
      <trkpt lat="43.98228" lon="1.25482">
        <ele>100.5</ele>
        <time>2017-05-05T09:49:24Z</time>
      </trkpt>
      <trkpt lat="43.98234" lon="1.25496">
        <ele>100.8</ele>
        <time>2017-05-05T09:49:26Z</time>
      </trkpt>
      <trkpt lat="43.98241" lon="1.25511">
        <ele>101.5</ele>
        <time>2017-05-05T09:49:28Z</time>
      </trkpt>
      <trkpt lat="43.98247" lon="1.25526">
        <ele>102.5</ele>
        <time>2017-05-05T09:49:30Z</time>
      </trkpt>
      <trkpt lat="43.98253" lon="1.25541">
        <ele>101.5</ele>
        <time>2017-05-05T09:49:32Z</time>
      </trkpt>
      <trkpt lat="43.98259" lon="1.25555">
        <ele>101.2</ele>
        <time>2017-05-05T09:49:34Z</time>
      </trkpt>
      <trkpt lat="43.98265" lon="1.25568">
        <ele>100.8</ele>
        <time>2017-05-05T09:49:36Z</time>
      </trkpt>
      <trkpt lat="43.98269" lon="1.25582">
        <ele>99.8</ele>
        <time>2017-05-05T09:49:38Z</time>
      </trkpt>
      <trkpt lat="43.98275" lon="1.25596">
        <ele>99.1</ele>
        <time>2017-05-05T09:49:40Z</time>
      </trkpt>
      <trkpt lat="43.9828" lon="1.2561">
        <ele>98.5</ele>
        <time>2017-05-05T09:49:42Z</time>
      </trkpt>
      <trkpt lat="43.98286" lon="1.25624">
        <ele>98.4</ele>
        <time>2017-05-05T09:49:44Z</time>
      </trkpt>
      <trkpt lat="43.98291" lon="1.25639">
        <ele>98.2</ele>
        <time>2017-05-05T09:49:46Z</time>
      </trkpt>
      <trkpt lat="43.98296" lon="1.25655">
        <ele>98.8</ele>
        <time>2017-05-05T09:49:48Z</time>
      </trkpt>
      <trkpt lat="43.983" lon="1.25669">
        <ele>98.8</ele>
        <time>2017-05-05T09:49:50Z</time>
      </trkpt>
      <trkpt lat="43.98305" lon="1.25684">
        <ele>98.5</ele>
        <time>2017-05-05T09:49:52Z</time>
      </trkpt>
      <trkpt lat="43.98309" lon="1.25699">
        <ele>98.4</ele>
        <time>2017-05-05T09:49:54Z</time>
      </trkpt>
      <trkpt lat="43.98314" lon="1.25713">
        <ele>98.5</ele>
        <time>2017-05-05T09:49:56Z</time>
      </trkpt>
      <trkpt lat="43.98317" lon="1.25727">
        <ele>98</ele>
        <time>2017-05-05T09:49:58Z</time>
      </trkpt>
      <trkpt lat="43.98322" lon="1.25742">
        <ele>98.1</ele>
        <time>2017-05-05T09:50:00Z</time>
      </trkpt>
      <trkpt lat="43.98325" lon="1.25756">
        <ele>97.8</ele>
        <time>2017-05-05T09:50:02Z</time>
      </trkpt>
      <trkpt lat="43.98328" lon="1.2577">
        <ele>96.9</ele>
        <time>2017-05-05T09:50:04Z</time>
      </trkpt>
      <trkpt lat="43.98331" lon="1.25785">
        <ele>96.7</ele>
        <time>2017-05-05T09:50:06Z</time>
      </trkpt>
      <trkpt lat="43.98335" lon="1.25801">
        <ele>96.4</ele>
        <time>2017-05-05T09:50:08Z</time>
      </trkpt>
      <trkpt lat="43.98338" lon="1.25815">
        <ele>96.2</ele>
        <time>2017-05-05T09:50:10Z</time>
      </trkpt>
      <trkpt lat="43.98342" lon="1.2583">
        <ele>96.1</ele>
        <time>2017-05-05T09:50:12Z</time>
      </trkpt>
      <trkpt lat="43.98345" lon="1.25845">
        <ele>96.8</ele>
        <time>2017-05-05T09:50:14Z</time>
      </trkpt>
      <trkpt lat="43.98348" lon="1.2586">
        <ele>96.8</ele>
        <time>2017-05-05T09:50:16Z</time>
      </trkpt>
      <trkpt lat="43.98351" lon="1.25877">
        <ele>97</ele>
        <time>2017-05-05T09:50:18Z</time>
      </trkpt>
      <trkpt lat="43.98355" lon="1.25892">
        <ele>97.2</ele>
        <time>2017-05-05T09:50:20Z</time>
      </trkpt>
      <trkpt lat="43.98359" lon="1.25908">
        <ele>97.8</ele>
        <time>2017-05-05T09:50:22Z</time>
      </trkpt>
      <trkpt lat="43.98361" lon="1.25924">
        <ele>97.6</ele>
        <time>2017-05-05T09:50:24Z</time>
      </trkpt>
      <trkpt lat="43.98364" lon="1.25941">
        <ele>97.9</ele>
        <time>2017-05-05T09:50:26Z</time>
      </trkpt>
      <trkpt lat="43.98366" lon="1.25957">
        <ele>97.5</ele>
        <time>2017-05-05T09:50:28Z</time>
      </trkpt>
      <trkpt lat="43.98368" lon="1.25972">
        <ele>97.6</ele>
        <time>2017-05-05T09:50:30Z</time>
      </trkpt>
      <trkpt lat="43.9837" lon="1.25988">
        <ele>98.1</ele>
        <time>2017-05-05T09:50:32Z</time>
      </trkpt>
      <trkpt lat="43.98372" lon="1.26003">
        <ele>99.1</ele>
        <time>2017-05-05T09:50:34Z</time>
      </trkpt>
      <trkpt lat="43.98374" lon="1.26019">
        <ele>100.1</ele>
        <time>2017-05-05T09:50:36Z</time>
      </trkpt>
      <trkpt lat="43.98375" lon="1.26035">
        <ele>100.4</ele>
        <time>2017-05-05T09:50:38Z</time>
      </trkpt>
      <trkpt lat="43.98376" lon="1.26051">
        <ele>100.9</ele>
        <time>2017-05-05T09:50:40Z</time>
      </trkpt>
      <trkpt lat="43.98377" lon="1.26066">
        <ele>101.2</ele>
        <time>2017-05-05T09:50:42Z</time>
      </trkpt>
      <trkpt lat="43.98378" lon="1.26082">
        <ele>101.4</ele>
        <time>2017-05-05T09:50:44Z</time>
      </trkpt>
      <trkpt lat="43.9838" lon="1.26097">
        <ele>100.9</ele>
        <time>2017-05-05T09:50:46Z</time>
      </trkpt>
      <trkpt lat="43.9838" lon="1.26113">
        <ele>100.5</ele>
        <time>2017-05-05T09:50:48Z</time>
      </trkpt>
      <trkpt lat="43.98382" lon="1.26129">
        <ele>101</ele>
        <time>2017-05-05T09:50:50Z</time>
      </trkpt>
      <trkpt lat="43.98382" lon="1.26144">
        <ele>100.7</ele>
        <time>2017-05-05T09:50:52Z</time>
      </trkpt>
      <trkpt lat="43.98382" lon="1.2616">
        <ele>100.8</ele>
        <time>2017-05-05T09:50:54Z</time>
      </trkpt>
      <trkpt lat="43.98382" lon="1.26175">
        <ele>101.3</ele>
        <time>2017-05-05T09:50:56Z</time>
      </trkpt>
      <trkpt lat="43.98382" lon="1.2619">
        <ele>102.2</ele>
        <time>2017-05-05T09:50:58Z</time>
      </trkpt>
      <trkpt lat="43.98382" lon="1.26206">
        <ele>102.6</ele>
        <time>2017-05-05T09:51:00Z</time>
      </trkpt>
      <trkpt lat="43.98382" lon="1.26221">
        <ele>103.2</ele>
        <time>2017-05-05T09:51:02Z</time>
      </trkpt>
      <trkpt lat="43.98382" lon="1.26237">
        <ele>103.7</ele>
        <time>2017-05-05T09:51:04Z</time>
      </trkpt>
      <trkpt lat="43.98382" lon="1.26252">
        <ele>104.2</ele>
        <time>2017-05-05T09:51:06Z</time>
      </trkpt>
      <trkpt lat="43.98382" lon="1.26268">
        <ele>104.7</ele>
        <time>2017-05-05T09:51:08Z</time>
      </trkpt>
      <trkpt lat="43.98381" lon="1.26283">
        <ele>104.4</ele>
        <time>2017-05-05T09:51:10Z</time>
      </trkpt>
      <trkpt lat="43.98381" lon="1.26298">
        <ele>104.2</ele>
        <time>2017-05-05T09:51:12Z</time>
      </trkpt>
      <trkpt lat="43.98381" lon="1.26313">
        <ele>104.2</ele>
        <time>2017-05-05T09:51:14Z</time>
      </trkpt>
      <trkpt lat="43.98381" lon="1.26329">
        <ele>104.4</ele>
        <time>2017-05-05T09:51:16Z</time>
      </trkpt>
      <trkpt lat="43.98382" lon="1.26344">
        <ele>105.7</ele>
        <time>2017-05-05T09:51:18Z</time>
      </trkpt>
      <trkpt lat="43.98384" lon="1.26359">
        <ele>106.2</ele>
        <time>2017-05-05T09:51:20Z</time>
      </trkpt>
      <trkpt lat="43.98385" lon="1.26375">
        <ele>105.8</ele>
        <time>2017-05-05T09:51:22Z</time>
      </trkpt>
      <trkpt lat="43.98386" lon="1.2639">
        <ele>104.8</ele>
        <time>2017-05-05T09:51:24Z</time>
      </trkpt>
      <trkpt lat="43.98386" lon="1.26405">
        <ele>104.2</ele>
        <time>2017-05-05T09:51:26Z</time>
      </trkpt>
      <trkpt lat="43.98386" lon="1.2642">
        <ele>103.9</ele>
        <time>2017-05-05T09:51:28Z</time>
      </trkpt>
      <trkpt lat="43.98385" lon="1.26436">
        <ele>103.6</ele>
        <time>2017-05-05T09:51:30Z</time>
      </trkpt>
      <trkpt lat="43.98384" lon="1.26451">
        <ele>103.7</ele>
        <time>2017-05-05T09:51:32Z</time>
      </trkpt>
      <trkpt lat="43.98384" lon="1.26466">
        <ele>105</ele>
        <time>2017-05-05T09:51:34Z</time>
      </trkpt>
      <trkpt lat="43.98384" lon="1.26481">
        <ele>105.8</ele>
        <time>2017-05-05T09:51:36Z</time>
      </trkpt>
      <trkpt lat="43.98384" lon="1.26496">
        <ele>105.7</ele>
        <time>2017-05-05T09:51:38Z</time>
      </trkpt>
      <trkpt lat="43.98383" lon="1.26512">
        <ele>105.7</ele>
        <time>2017-05-05T09:51:40Z</time>
      </trkpt>
      <trkpt lat="43.98382" lon="1.26528">
        <ele>105</ele>
        <time>2017-05-05T09:51:42Z</time>
      </trkpt>
      <trkpt lat="43.98381" lon="1.26543">
        <ele>103.7</ele>
        <time>2017-05-05T09:51:44Z</time>
      </trkpt>
      <trkpt lat="43.98379" lon="1.26559">
        <ele>103.8</ele>
        <time>2017-05-05T09:51:46Z</time>
      </trkpt>
      <trkpt lat="43.98379" lon="1.26576">
        <ele>103.7</ele>
        <time>2017-05-05T09:51:48Z</time>
      </trkpt>
      <trkpt lat="43.98378" lon="1.26594">
        <ele>103.6</ele>
        <time>2017-05-05T09:51:50Z</time>
      </trkpt>
      <trkpt lat="43.98377" lon="1.26611">
        <ele>103.1</ele>
        <time>2017-05-05T09:51:52Z</time>
      </trkpt>
      <trkpt lat="43.98376" lon="1.26626">
        <ele>102.7</ele>
        <time>2017-05-05T09:51:54Z</time>
      </trkpt>
      <trkpt lat="43.98376" lon="1.26641">
        <ele>102.7</ele>
        <time>2017-05-05T09:51:56Z</time>
      </trkpt>
      <trkpt lat="43.98376" lon="1.26656">
        <ele>102.5</ele>
        <time>2017-05-05T09:51:58Z</time>
      </trkpt>
      <trkpt lat="43.98376" lon="1.26672">
        <ele>102.3</ele>
        <time>2017-05-05T09:52:00Z</time>
      </trkpt>
      <trkpt lat="43.98376" lon="1.26688">
        <ele>101.5</ele>
        <time>2017-05-05T09:52:02Z</time>
      </trkpt>
      <trkpt lat="43.98376" lon="1.26705">
        <ele>101</ele>
        <time>2017-05-05T09:52:04Z</time>
      </trkpt>
      <trkpt lat="43.98375" lon="1.26721">
        <ele>100.8</ele>
        <time>2017-05-05T09:52:06Z</time>
      </trkpt>
      <trkpt lat="43.98376" lon="1.26736">
        <ele>99.8</ele>
        <time>2017-05-05T09:52:08Z</time>
      </trkpt>
      <trkpt lat="43.98376" lon="1.26752">
        <ele>98.5</ele>
        <time>2017-05-05T09:52:10Z</time>
      </trkpt>
      <trkpt lat="43.98376" lon="1.26768">
        <ele>97.3</ele>
        <time>2017-05-05T09:52:12Z</time>
      </trkpt>
      <trkpt lat="43.98375" lon="1.26784">
        <ele>96.8</ele>
        <time>2017-05-05T09:52:14Z</time>
      </trkpt>
      <trkpt lat="43.98376" lon="1.268">
        <ele>97.9</ele>
        <time>2017-05-05T09:52:16Z</time>
      </trkpt>
      <trkpt lat="43.98376" lon="1.26817">
        <ele>97.9</ele>
        <time>2017-05-05T09:52:18Z</time>
      </trkpt>
      <trkpt lat="43.98376" lon="1.26833">
        <ele>98.2</ele>
        <time>2017-05-05T09:52:20Z</time>
      </trkpt>
      <trkpt lat="43.98376" lon="1.26849">
        <ele>98.9</ele>
        <time>2017-05-05T09:52:22Z</time>
      </trkpt>
      <trkpt lat="43.98376" lon="1.26864">
        <ele>99.9</ele>
        <time>2017-05-05T09:52:24Z</time>
      </trkpt>
      <trkpt lat="43.98376" lon="1.26879">
        <ele>100.2</ele>
        <time>2017-05-05T09:52:26Z</time>
      </trkpt>
      <trkpt lat="43.98376" lon="1.26893">
        <ele>100.5</ele>
        <time>2017-05-05T09:52:28Z</time>
      </trkpt>
      <trkpt lat="43.98376" lon="1.26908">
        <ele>100.4</ele>
        <time>2017-05-05T09:52:30Z</time>
      </trkpt>
      <trkpt lat="43.98376" lon="1.26923">
        <ele>100.2</ele>
        <time>2017-05-05T09:52:32Z</time>
      </trkpt>
      <trkpt lat="43.98376" lon="1.26939">
        <ele>100.2</ele>
        <time>2017-05-05T09:52:34Z</time>
      </trkpt>
      <trkpt lat="43.98376" lon="1.26954">
        <ele>100.3</ele>
        <time>2017-05-05T09:52:36Z</time>
      </trkpt>
      <trkpt lat="43.98376" lon="1.2697">
        <ele>100.5</ele>
        <time>2017-05-05T09:52:38Z</time>
      </trkpt>
      <trkpt lat="43.98376" lon="1.26986">
        <ele>100.7</ele>
        <time>2017-05-05T09:52:40Z</time>
      </trkpt>
      <trkpt lat="43.98376" lon="1.27001">
        <ele>100.6</ele>
        <time>2017-05-05T09:52:42Z</time>
      </trkpt>
      <trkpt lat="43.98376" lon="1.27018">
        <ele>100.4</ele>
        <time>2017-05-05T09:52:44Z</time>
      </trkpt>
      <trkpt lat="43.98376" lon="1.27034">
        <ele>100.4</ele>
        <time>2017-05-05T09:52:46Z</time>
      </trkpt>
      <trkpt lat="43.98376" lon="1.2705">
        <ele>100.5</ele>
        <time>2017-05-05T09:52:48Z</time>
      </trkpt>
      <trkpt lat="43.98376" lon="1.27067">
        <ele>100.7</ele>
        <time>2017-05-05T09:52:50Z</time>
      </trkpt>
      <trkpt lat="43.98375" lon="1.27083">
        <ele>101</ele>
        <time>2017-05-05T09:52:52Z</time>
      </trkpt>
      <trkpt lat="43.98375" lon="1.271">
        <ele>101.2</ele>
        <time>2017-05-05T09:52:54Z</time>
      </trkpt>
      <trkpt lat="43.98375" lon="1.27117">
        <ele>101.1</ele>
        <time>2017-05-05T09:52:56Z</time>
      </trkpt>
      <trkpt lat="43.98375" lon="1.27134">
        <ele>101.2</ele>
        <time>2017-05-05T09:52:58Z</time>
      </trkpt>
      <trkpt lat="43.98374" lon="1.2715">
        <ele>101</ele>
        <time>2017-05-05T09:53:00Z</time>
      </trkpt>
      <trkpt lat="43.98374" lon="1.27167">
        <ele>101</ele>
        <time>2017-05-05T09:53:02Z</time>
      </trkpt>
      <trkpt lat="43.98374" lon="1.27183">
        <ele>101.4</ele>
        <time>2017-05-05T09:53:04Z</time>
      </trkpt>
      <trkpt lat="43.98373" lon="1.272">
        <ele>100.9</ele>
        <time>2017-05-05T09:53:06Z</time>
      </trkpt>
      <trkpt lat="43.98373" lon="1.27217">
        <ele>100.3</ele>
        <time>2017-05-05T09:53:08Z</time>
      </trkpt>
      <trkpt lat="43.98372" lon="1.27233">
        <ele>100.4</ele>
        <time>2017-05-05T09:53:10Z</time>
      </trkpt>
      <trkpt lat="43.98372" lon="1.2725">
        <ele>100.4</ele>
        <time>2017-05-05T09:53:12Z</time>
      </trkpt>
      <trkpt lat="43.98372" lon="1.27266">
        <ele>100.4</ele>
        <time>2017-05-05T09:53:14Z</time>
      </trkpt>
      <trkpt lat="43.98372" lon="1.27283">
        <ele>100.5</ele>
        <time>2017-05-05T09:53:16Z</time>
      </trkpt>
      <trkpt lat="43.98371" lon="1.27299">
        <ele>100.7</ele>
        <time>2017-05-05T09:53:18Z</time>
      </trkpt>
      <trkpt lat="43.98371" lon="1.27316">
        <ele>101</ele>
        <time>2017-05-05T09:53:20Z</time>
      </trkpt>
      <trkpt lat="43.9837" lon="1.27332">
        <ele>101</ele>
        <time>2017-05-05T09:53:22Z</time>
      </trkpt>
      <trkpt lat="43.98369" lon="1.27348">
        <ele>100.6</ele>
        <time>2017-05-05T09:53:24Z</time>
      </trkpt>
      <trkpt lat="43.98369" lon="1.27365">
        <ele>100.9</ele>
        <time>2017-05-05T09:53:26Z</time>
      </trkpt>
      <trkpt lat="43.98369" lon="1.27381">
        <ele>101.2</ele>
        <time>2017-05-05T09:53:28Z</time>
      </trkpt>
      <trkpt lat="43.98369" lon="1.27397">
        <ele>101.4</ele>
        <time>2017-05-05T09:53:30Z</time>
      </trkpt>
      <trkpt lat="43.98369" lon="1.27414">
        <ele>101.7</ele>
        <time>2017-05-05T09:53:32Z</time>
      </trkpt>
      <trkpt lat="43.98369" lon="1.2743">
        <ele>101.9</ele>
        <time>2017-05-05T09:53:34Z</time>
      </trkpt>
      <trkpt lat="43.98369" lon="1.27447">
        <ele>102.1</ele>
        <time>2017-05-05T09:53:36Z</time>
      </trkpt>
      <trkpt lat="43.98369" lon="1.27464">
        <ele>102.6</ele>
        <time>2017-05-05T09:53:38Z</time>
      </trkpt>
      <trkpt lat="43.98369" lon="1.27488">
        <ele>103.2</ele>
        <time>2017-05-05T09:53:43Z</time>
      </trkpt>
      <trkpt lat="43.98368" lon="1.27504">
        <ele>103</ele>
        <time>2017-05-05T09:53:44Z</time>
      </trkpt>
      <trkpt lat="43.98369" lon="1.27521">
        <ele>102.6</ele>
        <time>2017-05-05T09:53:46Z</time>
      </trkpt>
      <trkpt lat="43.98369" lon="1.27538">
        <ele>102.3</ele>
        <time>2017-05-05T09:53:48Z</time>
      </trkpt>
      <trkpt lat="43.98368" lon="1.27555">
        <ele>101.7</ele>
        <time>2017-05-05T09:53:50Z</time>
      </trkpt>
      <trkpt lat="43.98367" lon="1.27572">
        <ele>100.9</ele>
        <time>2017-05-05T09:53:52Z</time>
      </trkpt>
      <trkpt lat="43.98368" lon="1.27588">
        <ele>100.5</ele>
        <time>2017-05-05T09:53:54Z</time>
      </trkpt>
      <trkpt lat="43.98366" lon="1.27604">
        <ele>99.9</ele>
        <time>2017-05-05T09:53:56Z</time>
      </trkpt>
      <trkpt lat="43.98365" lon="1.27621">
        <ele>100</ele>
        <time>2017-05-05T09:53:58Z</time>
      </trkpt>
      <trkpt lat="43.98365" lon="1.27637">
        <ele>100.3</ele>
        <time>2017-05-05T09:54:00Z</time>
      </trkpt>
      <trkpt lat="43.98366" lon="1.27653">
        <ele>101</ele>
        <time>2017-05-05T09:54:02Z</time>
      </trkpt>
      <trkpt lat="43.98366" lon="1.27669">
        <ele>101.7</ele>
        <time>2017-05-05T09:54:04Z</time>
      </trkpt>
      <trkpt lat="43.98366" lon="1.27684">
        <ele>101.6</ele>
        <time>2017-05-05T09:54:06Z</time>
      </trkpt>
      <trkpt lat="43.98366" lon="1.27699">
        <ele>101.4</ele>
        <time>2017-05-05T09:54:08Z</time>
      </trkpt>
      <trkpt lat="43.98365" lon="1.27715">
        <ele>101.8</ele>
        <time>2017-05-05T09:54:10Z</time>
      </trkpt>
      <trkpt lat="43.98365" lon="1.27731">
        <ele>101.7</ele>
        <time>2017-05-05T09:54:12Z</time>
      </trkpt>
      <trkpt lat="43.98364" lon="1.27749">
        <ele>101.2</ele>
        <time>2017-05-05T09:54:14Z</time>
      </trkpt>
      <trkpt lat="43.98363" lon="1.27768">
        <ele>101.2</ele>
        <time>2017-05-05T09:54:16Z</time>
      </trkpt>
      <trkpt lat="43.98362" lon="1.27786">
        <ele>101.8</ele>
        <time>2017-05-05T09:54:18Z</time>
      </trkpt>
      <trkpt lat="43.98362" lon="1.27803">
        <ele>101.1</ele>
        <time>2017-05-05T09:54:20Z</time>
      </trkpt>
      <trkpt lat="43.98362" lon="1.27821">
        <ele>100.6</ele>
        <time>2017-05-05T09:54:22Z</time>
      </trkpt>
      <trkpt lat="43.98361" lon="1.27838">
        <ele>100.2</ele>
        <time>2017-05-05T09:54:24Z</time>
      </trkpt>
      <trkpt lat="43.98361" lon="1.27854">
        <ele>100</ele>
        <time>2017-05-05T09:54:26Z</time>
      </trkpt>
      <trkpt lat="43.98361" lon="1.2787">
        <ele>99.9</ele>
        <time>2017-05-05T09:54:28Z</time>
      </trkpt>
      <trkpt lat="43.98358" lon="1.27885">
        <ele>98.1</ele>
        <time>2017-05-05T09:54:30Z</time>
      </trkpt>
      <trkpt lat="43.98354" lon="1.27899">
        <ele>98.9</ele>
        <time>2017-05-05T09:54:32Z</time>
      </trkpt>
      <trkpt lat="43.98354" lon="1.27913">
        <ele>99.2</ele>
        <time>2017-05-05T09:54:34Z</time>
      </trkpt>
      <trkpt lat="43.98358" lon="1.27927">
        <ele>99.3</ele>
        <time>2017-05-05T09:54:36Z</time>
      </trkpt>
      <trkpt lat="43.98359" lon="1.27941">
        <ele>99.4</ele>
        <time>2017-05-05T09:54:38Z</time>
      </trkpt>
      <trkpt lat="43.98359" lon="1.27955">
        <ele>99.6</ele>
        <time>2017-05-05T09:54:40Z</time>
      </trkpt>
      <trkpt lat="43.98357" lon="1.2797">
        <ele>99.8</ele>
        <time>2017-05-05T09:54:42Z</time>
      </trkpt>
      <trkpt lat="43.98357" lon="1.27983">
        <ele>99.9</ele>
        <time>2017-05-05T09:54:44Z</time>
      </trkpt>
      <trkpt lat="43.98355" lon="1.27994">
        <ele>100.4</ele>
        <time>2017-05-05T09:54:46Z</time>
      </trkpt>
      <trkpt lat="43.98359" lon="1.28005">
        <ele>100.1</ele>
        <time>2017-05-05T09:54:50Z</time>
      </trkpt>
      <trkpt lat="43.98367" lon="1.28005">
        <ele>99.8</ele>
        <time>2017-05-05T09:54:54Z</time>
      </trkpt>
      <trkpt lat="43.98377" lon="1.28005">
        <ele>99.6</ele>
        <time>2017-05-05T09:54:57Z</time>
      </trkpt>
      <trkpt lat="43.98387" lon="1.28007">
        <ele>99.9</ele>
        <time>2017-05-05T09:55:00Z</time>
      </trkpt>
      <trkpt lat="43.98389" lon="1.28017">
        <ele>99.2</ele>
        <time>2017-05-05T09:55:03Z</time>
      </trkpt>
      <trkpt lat="43.98389" lon="1.28028">
        <ele>98.4</ele>
        <time>2017-05-05T09:55:06Z</time>
      </trkpt>
      <trkpt lat="43.98388" lon="1.28038">
        <ele>97.6</ele>
        <time>2017-05-05T09:55:09Z</time>
      </trkpt>
      <trkpt lat="43.98387" lon="1.28051">
        <ele>96.8</ele>
        <time>2017-05-05T09:55:13Z</time>
      </trkpt>
      <trkpt lat="43.98384" lon="1.28061">
        <ele>96.3</ele>
        <time>2017-05-05T09:55:16Z</time>
      </trkpt>
      <trkpt lat="43.98384" lon="1.28073">
        <ele>95.6</ele>
        <time>2017-05-05T09:55:20Z</time>
      </trkpt>
      <trkpt lat="43.98385" lon="1.28086">
        <ele>95.5</ele>
        <time>2017-05-05T09:55:23Z</time>
      </trkpt>
      <trkpt lat="43.98387" lon="1.28101">
        <ele>95.4</ele>
        <time>2017-05-05T09:55:26Z</time>
      </trkpt>
      <trkpt lat="43.98387" lon="1.28112">
        <ele>95</ele>
        <time>2017-05-05T09:55:28Z</time>
      </trkpt>
      <trkpt lat="43.98389" lon="1.28124">
        <ele>95.2</ele>
        <time>2017-05-05T09:55:30Z</time>
      </trkpt>
      <trkpt lat="43.9839" lon="1.28136">
        <ele>96.2</ele>
        <time>2017-05-05T09:55:32Z</time>
      </trkpt>
      <trkpt lat="43.98391" lon="1.28149">
        <ele>96.2</ele>
        <time>2017-05-05T09:55:34Z</time>
      </trkpt>
      <trkpt lat="43.98392" lon="1.28162">
        <ele>96.5</ele>
        <time>2017-05-05T09:55:37Z</time>
      </trkpt>
      <trkpt lat="43.98394" lon="1.28175">
        <ele>96.3</ele>
        <time>2017-05-05T09:55:38Z</time>
      </trkpt>
      <trkpt lat="43.98398" lon="1.28187">
        <ele>96.3</ele>
        <time>2017-05-05T09:55:40Z</time>
      </trkpt>
      <trkpt lat="43.98401" lon="1.28201">
        <ele>95.6</ele>
        <time>2017-05-05T09:55:42Z</time>
      </trkpt>
      <trkpt lat="43.98405" lon="1.28215">
        <ele>95.9</ele>
        <time>2017-05-05T09:55:44Z</time>
      </trkpt>
      <trkpt lat="43.98408" lon="1.28228">
        <ele>97</ele>
        <time>2017-05-05T09:55:46Z</time>
      </trkpt>
      <trkpt lat="43.98411" lon="1.2824">
        <ele>97.9</ele>
        <time>2017-05-05T09:55:48Z</time>
      </trkpt>
      <trkpt lat="43.98414" lon="1.28253">
        <ele>97.5</ele>
        <time>2017-05-05T09:55:50Z</time>
      </trkpt>
      <trkpt lat="43.98418" lon="1.28266">
        <ele>97.7</ele>
        <time>2017-05-05T09:55:52Z</time>
      </trkpt>
      <trkpt lat="43.98422" lon="1.28279">
        <ele>97.5</ele>
        <time>2017-05-05T09:55:54Z</time>
      </trkpt>
      <trkpt lat="43.98425" lon="1.28292">
        <ele>97.7</ele>
        <time>2017-05-05T09:55:56Z</time>
      </trkpt>
      <trkpt lat="43.98429" lon="1.28304">
        <ele>97.8</ele>
        <time>2017-05-05T09:55:58Z</time>
      </trkpt>
      <trkpt lat="43.98433" lon="1.28317">
        <ele>97.7</ele>
        <time>2017-05-05T09:56:00Z</time>
      </trkpt>
      <trkpt lat="43.98437" lon="1.28329">
        <ele>97.6</ele>
        <time>2017-05-05T09:56:02Z</time>
      </trkpt>
      <trkpt lat="43.98441" lon="1.28341">
        <ele>97.5</ele>
        <time>2017-05-05T09:56:04Z</time>
      </trkpt>
      <trkpt lat="43.98444" lon="1.28351">
        <ele>97.1</ele>
        <time>2017-05-05T09:56:06Z</time>
      </trkpt>
      <trkpt lat="43.98448" lon="1.28361">
        <ele>97.1</ele>
        <time>2017-05-05T09:56:08Z</time>
      </trkpt>
      <trkpt lat="43.9845" lon="1.28371">
        <ele>97.2</ele>
        <time>2017-05-05T09:56:10Z</time>
      </trkpt>
      <trkpt lat="43.98454" lon="1.28383">
        <ele>96.9</ele>
        <time>2017-05-05T09:56:12Z</time>
      </trkpt>
      <trkpt lat="43.98459" lon="1.28397">
        <ele>97.4</ele>
        <time>2017-05-05T09:56:14Z</time>
      </trkpt>
      <trkpt lat="43.98463" lon="1.28411">
        <ele>97.1</ele>
        <time>2017-05-05T09:56:16Z</time>
      </trkpt>
      <trkpt lat="43.98467" lon="1.28425">
        <ele>97</ele>
        <time>2017-05-05T09:56:18Z</time>
      </trkpt>
      <trkpt lat="43.98472" lon="1.2844">
        <ele>97.1</ele>
        <time>2017-05-05T09:56:20Z</time>
      </trkpt>
      <trkpt lat="43.98476" lon="1.28454">
        <ele>96.3</ele>
        <time>2017-05-05T09:56:22Z</time>
      </trkpt>
      <trkpt lat="43.98481" lon="1.28468">
        <ele>96.2</ele>
        <time>2017-05-05T09:56:24Z</time>
      </trkpt>
      <trkpt lat="43.98484" lon="1.28481">
        <ele>96.2</ele>
        <time>2017-05-05T09:56:26Z</time>
      </trkpt>
      <trkpt lat="43.98487" lon="1.28494">
        <ele>95.7</ele>
        <time>2017-05-05T09:56:28Z</time>
      </trkpt>
      <trkpt lat="43.98491" lon="1.28507">
        <ele>94.9</ele>
        <time>2017-05-05T09:56:30Z</time>
      </trkpt>
      <trkpt lat="43.98496" lon="1.28521">
        <ele>94.5</ele>
        <time>2017-05-05T09:56:32Z</time>
      </trkpt>
      <trkpt lat="43.985" lon="1.28534">
        <ele>93.8</ele>
        <time>2017-05-05T09:56:34Z</time>
      </trkpt>
      <trkpt lat="43.98505" lon="1.28548">
        <ele>93.1</ele>
        <time>2017-05-05T09:56:36Z</time>
      </trkpt>
      <trkpt lat="43.98509" lon="1.28561">
        <ele>92.4</ele>
        <time>2017-05-05T09:56:38Z</time>
      </trkpt>
      <trkpt lat="43.98515" lon="1.28576">
        <ele>92.7</ele>
        <time>2017-05-05T09:56:40Z</time>
      </trkpt>
      <trkpt lat="43.98519" lon="1.28588">
        <ele>92.7</ele>
        <time>2017-05-05T09:56:42Z</time>
      </trkpt>
      <trkpt lat="43.98523" lon="1.28601">
        <ele>92.9</ele>
        <time>2017-05-05T09:56:44Z</time>
      </trkpt>
      <trkpt lat="43.98527" lon="1.28613">
        <ele>92.5</ele>
        <time>2017-05-05T09:56:46Z</time>
      </trkpt>
      <trkpt lat="43.9853" lon="1.28625">
        <ele>92.4</ele>
        <time>2017-05-05T09:56:48Z</time>
      </trkpt>
      <trkpt lat="43.98533" lon="1.28638">
        <ele>91.9</ele>
        <time>2017-05-05T09:56:50Z</time>
      </trkpt>
      <trkpt lat="43.98537" lon="1.28651">
        <ele>91.7</ele>
        <time>2017-05-05T09:56:52Z</time>
      </trkpt>
      <trkpt lat="43.98541" lon="1.28663">
        <ele>91.9</ele>
        <time>2017-05-05T09:56:54Z</time>
      </trkpt>
      <trkpt lat="43.98545" lon="1.28675">
        <ele>91.1</ele>
        <time>2017-05-05T09:56:56Z</time>
      </trkpt>
      <trkpt lat="43.9855" lon="1.28687">
        <ele>91</ele>
        <time>2017-05-05T09:56:58Z</time>
      </trkpt>
      <trkpt lat="43.98554" lon="1.28699">
        <ele>90.9</ele>
        <time>2017-05-05T09:57:00Z</time>
      </trkpt>
      <trkpt lat="43.98558" lon="1.28711">
        <ele>90.6</ele>
        <time>2017-05-05T09:57:02Z</time>
      </trkpt>
      <trkpt lat="43.98562" lon="1.28723">
        <ele>90.3</ele>
        <time>2017-05-05T09:57:04Z</time>
      </trkpt>
      <trkpt lat="43.98566" lon="1.28735">
        <ele>89.9</ele>
        <time>2017-05-05T09:57:06Z</time>
      </trkpt>
      <trkpt lat="43.9857" lon="1.28748">
        <ele>89.7</ele>
        <time>2017-05-05T09:57:08Z</time>
      </trkpt>
      <trkpt lat="43.98573" lon="1.28761">
        <ele>89.4</ele>
        <time>2017-05-05T09:57:10Z</time>
      </trkpt>
      <trkpt lat="43.98577" lon="1.28773">
        <ele>88.9</ele>
        <time>2017-05-05T09:57:12Z</time>
      </trkpt>
      <trkpt lat="43.98581" lon="1.28785">
        <ele>87.8</ele>
        <time>2017-05-05T09:57:14Z</time>
      </trkpt>
      <trkpt lat="43.98583" lon="1.28797">
        <ele>87.7</ele>
        <time>2017-05-05T09:57:16Z</time>
      </trkpt>
      <trkpt lat="43.98587" lon="1.28809">
        <ele>87.7</ele>
        <time>2017-05-05T09:57:18Z</time>
      </trkpt>
      <trkpt lat="43.9859" lon="1.2882">
        <ele>87</ele>
        <time>2017-05-05T09:57:20Z</time>
      </trkpt>
      <trkpt lat="43.98594" lon="1.28831">
        <ele>86.6</ele>
        <time>2017-05-05T09:57:22Z</time>
      </trkpt>
      <trkpt lat="43.98598" lon="1.28842">
        <ele>86.5</ele>
        <time>2017-05-05T09:57:24Z</time>
      </trkpt>
      <trkpt lat="43.98603" lon="1.28854">
        <ele>85.5</ele>
        <time>2017-05-05T09:57:26Z</time>
      </trkpt>
      <trkpt lat="43.98607" lon="1.28868">
        <ele>85.7</ele>
        <time>2017-05-05T09:57:28Z</time>
      </trkpt>
      <trkpt lat="43.98614" lon="1.28883">
        <ele>84.7</ele>
        <time>2017-05-05T09:57:30Z</time>
      </trkpt>
      <trkpt lat="43.98619" lon="1.28899">
        <ele>83.9</ele>
        <time>2017-05-05T09:57:32Z</time>
      </trkpt>
      <trkpt lat="43.98625" lon="1.28914">
        <ele>83</ele>
        <time>2017-05-05T09:57:34Z</time>
      </trkpt>
      <trkpt lat="43.9863" lon="1.28929">
        <ele>82.5</ele>
        <time>2017-05-05T09:57:36Z</time>
      </trkpt>
      <trkpt lat="43.98635" lon="1.28943">
        <ele>81.4</ele>
        <time>2017-05-05T09:57:38Z</time>
      </trkpt>
      <trkpt lat="43.9864" lon="1.28956">
        <ele>80.3</ele>
        <time>2017-05-05T09:57:40Z</time>
      </trkpt>
      <trkpt lat="43.98645" lon="1.28972">
        <ele>79.3</ele>
        <time>2017-05-05T09:57:42Z</time>
      </trkpt>
      <trkpt lat="43.98649" lon="1.28986">
        <ele>78.7</ele>
        <time>2017-05-05T09:57:44Z</time>
      </trkpt>
      <trkpt lat="43.98654" lon="1.29">
        <ele>78.2</ele>
        <time>2017-05-05T09:57:46Z</time>
      </trkpt>
      <trkpt lat="43.98658" lon="1.29014">
        <ele>77.5</ele>
        <time>2017-05-05T09:57:48Z</time>
      </trkpt>
      <trkpt lat="43.98662" lon="1.29028">
        <ele>77.5</ele>
        <time>2017-05-05T09:57:50Z</time>
      </trkpt>
      <trkpt lat="43.98667" lon="1.29043">
        <ele>76.9</ele>
        <time>2017-05-05T09:57:52Z</time>
      </trkpt>
      <trkpt lat="43.98672" lon="1.29057">
        <ele>76.8</ele>
        <time>2017-05-05T09:57:54Z</time>
      </trkpt>
      <trkpt lat="43.98676" lon="1.2907">
        <ele>76.9</ele>
        <time>2017-05-05T09:57:56Z</time>
      </trkpt>
      <trkpt lat="43.9868" lon="1.29083">
        <ele>76.4</ele>
        <time>2017-05-05T09:57:58Z</time>
      </trkpt>
      <trkpt lat="43.98684" lon="1.29096">
        <ele>75.6</ele>
        <time>2017-05-05T09:58:00Z</time>
      </trkpt>
      <trkpt lat="43.98687" lon="1.29108">
        <ele>74.8</ele>
        <time>2017-05-05T09:58:02Z</time>
      </trkpt>
      <trkpt lat="43.98691" lon="1.2912">
        <ele>75.8</ele>
        <time>2017-05-05T09:58:04Z</time>
      </trkpt>
      <trkpt lat="43.98695" lon="1.29133">
        <ele>75.8</ele>
        <time>2017-05-05T09:58:06Z</time>
      </trkpt>
      <trkpt lat="43.98699" lon="1.29148">
        <ele>77.2</ele>
        <time>2017-05-05T09:58:08Z</time>
      </trkpt>
      <trkpt lat="43.98702" lon="1.29163">
        <ele>79.4</ele>
        <time>2017-05-05T09:58:10Z</time>
      </trkpt>
      <trkpt lat="43.98708" lon="1.29176">
        <ele>80.7</ele>
        <time>2017-05-05T09:58:12Z</time>
      </trkpt>
      <trkpt lat="43.98712" lon="1.2919">
        <ele>81.2</ele>
        <time>2017-05-05T09:58:14Z</time>
      </trkpt>
      <trkpt lat="43.98716" lon="1.29203">
        <ele>82.5</ele>
        <time>2017-05-05T09:58:16Z</time>
      </trkpt>
      <trkpt lat="43.98719" lon="1.29216">
        <ele>82.7</ele>
        <time>2017-05-05T09:58:18Z</time>
      </trkpt>
      <trkpt lat="43.98723" lon="1.29229">
        <ele>83</ele>
        <time>2017-05-05T09:58:20Z</time>
      </trkpt>
      <trkpt lat="43.98726" lon="1.29242">
        <ele>83.7</ele>
        <time>2017-05-05T09:58:22Z</time>
      </trkpt>
      <trkpt lat="43.9873" lon="1.29255">
        <ele>83.8</ele>
        <time>2017-05-05T09:58:24Z</time>
      </trkpt>
      <trkpt lat="43.98733" lon="1.29268">
        <ele>83.2</ele>
        <time>2017-05-05T09:58:26Z</time>
      </trkpt>
      <trkpt lat="43.98738" lon="1.29281">
        <ele>83.4</ele>
        <time>2017-05-05T09:58:28Z</time>
      </trkpt>
      <trkpt lat="43.98743" lon="1.29294">
        <ele>84.4</ele>
        <time>2017-05-05T09:58:30Z</time>
      </trkpt>
      <trkpt lat="43.98748" lon="1.29306">
        <ele>85.5</ele>
        <time>2017-05-05T09:58:32Z</time>
      </trkpt>
      <trkpt lat="43.98752" lon="1.29319">
        <ele>85.8</ele>
        <time>2017-05-05T09:58:34Z</time>
      </trkpt>
      <trkpt lat="43.98755" lon="1.29333">
        <ele>86.2</ele>
        <time>2017-05-05T09:58:36Z</time>
      </trkpt>
      <trkpt lat="43.98759" lon="1.29346">
        <ele>85.1</ele>
        <time>2017-05-05T09:58:38Z</time>
      </trkpt>
      <trkpt lat="43.98763" lon="1.29359">
        <ele>85.9</ele>
        <time>2017-05-05T09:58:40Z</time>
      </trkpt>
      <trkpt lat="43.98767" lon="1.29372">
        <ele>86</ele>
        <time>2017-05-05T09:58:42Z</time>
      </trkpt>
      <trkpt lat="43.98772" lon="1.29385">
        <ele>86.4</ele>
        <time>2017-05-05T09:58:44Z</time>
      </trkpt>
      <trkpt lat="43.98776" lon="1.29399">
        <ele>86.5</ele>
        <time>2017-05-05T09:58:46Z</time>
      </trkpt>
      <trkpt lat="43.9878" lon="1.29412">
        <ele>86.8</ele>
        <time>2017-05-05T09:58:48Z</time>
      </trkpt>
      <trkpt lat="43.98784" lon="1.29425">
        <ele>86.9</ele>
        <time>2017-05-05T09:58:50Z</time>
      </trkpt>
      <trkpt lat="43.98789" lon="1.29437">
        <ele>87.2</ele>
        <time>2017-05-05T09:58:52Z</time>
      </trkpt>
      <trkpt lat="43.98793" lon="1.2945">
        <ele>87.1</ele>
        <time>2017-05-05T09:58:54Z</time>
      </trkpt>
      <trkpt lat="43.98797" lon="1.29463">
        <ele>87.8</ele>
        <time>2017-05-05T09:58:56Z</time>
      </trkpt>
      <trkpt lat="43.98801" lon="1.29475">
        <ele>89.6</ele>
        <time>2017-05-05T09:58:58Z</time>
      </trkpt>
      <trkpt lat="43.98804" lon="1.29487">
        <ele>90.1</ele>
        <time>2017-05-05T09:59:00Z</time>
      </trkpt>
      <trkpt lat="43.98808" lon="1.29499">
        <ele>90.9</ele>
        <time>2017-05-05T09:59:02Z</time>
      </trkpt>
      <trkpt lat="43.98811" lon="1.2951">
        <ele>91.9</ele>
        <time>2017-05-05T09:59:04Z</time>
      </trkpt>
      <trkpt lat="43.98815" lon="1.29522">
        <ele>92.7</ele>
        <time>2017-05-05T09:59:06Z</time>
      </trkpt>
      <trkpt lat="43.98819" lon="1.29536">
        <ele>93.2</ele>
        <time>2017-05-05T09:59:08Z</time>
      </trkpt>
      <trkpt lat="43.98823" lon="1.29548">
        <ele>92.7</ele>
        <time>2017-05-05T09:59:10Z</time>
      </trkpt>
      <trkpt lat="43.98828" lon="1.2956">
        <ele>91.6</ele>
        <time>2017-05-05T09:59:12Z</time>
      </trkpt>
      <trkpt lat="43.98832" lon="1.29572">
        <ele>90.7</ele>
        <time>2017-05-05T09:59:14Z</time>
      </trkpt>
      <trkpt lat="43.98838" lon="1.29584">
        <ele>88.4</ele>
        <time>2017-05-05T09:59:16Z</time>
      </trkpt>
      <trkpt lat="43.98843" lon="1.29597">
        <ele>87.5</ele>
        <time>2017-05-05T09:59:18Z</time>
      </trkpt>
      <trkpt lat="43.98848" lon="1.29609">
        <ele>87.2</ele>
        <time>2017-05-05T09:59:20Z</time>
      </trkpt>
      <trkpt lat="43.98852" lon="1.2962">
        <ele>87</ele>
        <time>2017-05-05T09:59:22Z</time>
      </trkpt>
      <trkpt lat="43.98856" lon="1.29632">
        <ele>86.2</ele>
        <time>2017-05-05T09:59:24Z</time>
      </trkpt>
      <trkpt lat="43.98861" lon="1.29642">
        <ele>86.8</ele>
        <time>2017-05-05T09:59:26Z</time>
      </trkpt>
      <trkpt lat="43.98866" lon="1.29651">
        <ele>86.4</ele>
        <time>2017-05-05T09:59:28Z</time>
      </trkpt>
      <trkpt lat="43.98869" lon="1.29662">
        <ele>85</ele>
        <time>2017-05-05T09:59:30Z</time>
      </trkpt>
      <trkpt lat="43.98873" lon="1.29674">
        <ele>85</ele>
        <time>2017-05-05T09:59:32Z</time>
      </trkpt>
      <trkpt lat="43.98876" lon="1.29686">
        <ele>86.8</ele>
        <time>2017-05-05T09:59:34Z</time>
      </trkpt>
      <trkpt lat="43.98879" lon="1.29698">
        <ele>87.7</ele>
        <time>2017-05-05T09:59:36Z</time>
      </trkpt>
      <trkpt lat="43.98883" lon="1.29709">
        <ele>87.9</ele>
        <time>2017-05-05T09:59:38Z</time>
      </trkpt>
      <trkpt lat="43.98891" lon="1.29721">
        <ele>89.2</ele>
        <time>2017-05-05T09:59:41Z</time>
      </trkpt>
      <trkpt lat="43.98896" lon="1.2973">
        <ele>89.3</ele>
        <time>2017-05-05T09:59:43Z</time>
      </trkpt>
      <trkpt lat="43.98901" lon="1.29741">
        <ele>88.6</ele>
        <time>2017-05-05T09:59:45Z</time>
      </trkpt>
      <trkpt lat="43.98907" lon="1.29753">
        <ele>87.8</ele>
        <time>2017-05-05T09:59:47Z</time>
      </trkpt>
      <trkpt lat="43.98912" lon="1.29765">
        <ele>86.9</ele>
        <time>2017-05-05T09:59:49Z</time>
      </trkpt>
      <trkpt lat="43.98915" lon="1.29777">
        <ele>86.3</ele>
        <time>2017-05-05T09:59:51Z</time>
      </trkpt>
      <trkpt lat="43.98921" lon="1.29791">
        <ele>85.8</ele>
        <time>2017-05-05T09:59:53Z</time>
      </trkpt>
      <trkpt lat="43.98927" lon="1.29804">
        <ele>84.8</ele>
        <time>2017-05-05T09:59:55Z</time>
      </trkpt>
      <trkpt lat="43.98932" lon="1.29818">
        <ele>84.4</ele>
        <time>2017-05-05T09:59:57Z</time>
      </trkpt>
      <trkpt lat="43.98937" lon="1.29832">
        <ele>83.8</ele>
        <time>2017-05-05T09:59:59Z</time>
      </trkpt>
      <trkpt lat="43.98943" lon="1.29846">
        <ele>83.4</ele>
        <time>2017-05-05T10:00:01Z</time>
      </trkpt>
      <trkpt lat="43.98949" lon="1.2986">
        <ele>82.8</ele>
        <time>2017-05-05T10:00:03Z</time>
      </trkpt>
      <trkpt lat="43.98954" lon="1.29874">
        <ele>82.2</ele>
        <time>2017-05-05T10:00:05Z</time>
      </trkpt>
      <trkpt lat="43.9896" lon="1.29887">
        <ele>81.6</ele>
        <time>2017-05-05T10:00:07Z</time>
      </trkpt>
      <trkpt lat="43.98965" lon="1.299">
        <ele>81.2</ele>
        <time>2017-05-05T10:00:09Z</time>
      </trkpt>
      <trkpt lat="43.9897" lon="1.29913">
        <ele>80.5</ele>
        <time>2017-05-05T10:00:11Z</time>
      </trkpt>
      <trkpt lat="43.98975" lon="1.29928">
        <ele>79.8</ele>
        <time>2017-05-05T10:00:13Z</time>
      </trkpt>
      <trkpt lat="43.9898" lon="1.2994">
        <ele>79.3</ele>
        <time>2017-05-05T10:00:15Z</time>
      </trkpt>
      <trkpt lat="43.98986" lon="1.29955">
        <ele>78.4</ele>
        <time>2017-05-05T10:00:17Z</time>
      </trkpt>
      <trkpt lat="43.98993" lon="1.29969">
        <ele>77.5</ele>
        <time>2017-05-05T10:00:19Z</time>
      </trkpt>
      <trkpt lat="43.98999" lon="1.29983">
        <ele>76.8</ele>
        <time>2017-05-05T10:00:21Z</time>
      </trkpt>
      <trkpt lat="43.99005" lon="1.29997">
        <ele>75.8</ele>
        <time>2017-05-05T10:00:23Z</time>
      </trkpt>
      <trkpt lat="43.99013" lon="1.3001">
        <ele>74.7</ele>
        <time>2017-05-05T10:00:25Z</time>
      </trkpt>
      <trkpt lat="43.99018" lon="1.30021">
        <ele>74.1</ele>
        <time>2017-05-05T10:00:27Z</time>
      </trkpt>
      <trkpt lat="43.99025" lon="1.30032">
        <ele>73.7</ele>
        <time>2017-05-05T10:00:29Z</time>
      </trkpt>
      <trkpt lat="43.99032" lon="1.30044">
        <ele>73.6</ele>
        <time>2017-05-05T10:00:31Z</time>
      </trkpt>
      <trkpt lat="43.99038" lon="1.30056">
        <ele>74.7</ele>
        <time>2017-05-05T10:00:33Z</time>
      </trkpt>
      <trkpt lat="43.99043" lon="1.3007">
        <ele>78.7</ele>
        <time>2017-05-05T10:00:35Z</time>
      </trkpt>
      <trkpt lat="43.99046" lon="1.30081">
        <ele>79.4</ele>
        <time>2017-05-05T10:00:37Z</time>
      </trkpt>
      <trkpt lat="43.99052" lon="1.30088">
        <ele>80.7</ele>
        <time>2017-05-05T10:00:39Z</time>
      </trkpt>
      <trkpt lat="43.99058" lon="1.30095">
        <ele>81.7</ele>
        <time>2017-05-05T10:00:41Z</time>
      </trkpt>
      <trkpt lat="43.99067" lon="1.30103">
        <ele>83.3</ele>
        <time>2017-05-05T10:00:44Z</time>
      </trkpt>
      <trkpt lat="43.99076" lon="1.30106">
        <ele>86.1</ele>
        <time>2017-05-05T10:00:48Z</time>
      </trkpt>
      <trkpt lat="43.99084" lon="1.30112">
        <ele>87.4</ele>
        <time>2017-05-05T10:00:52Z</time>
      </trkpt>
      <trkpt lat="43.9909" lon="1.3012">
        <ele>85.7</ele>
        <time>2017-05-05T10:00:54Z</time>
      </trkpt>
      <trkpt lat="43.99098" lon="1.30131">
        <ele>84.2</ele>
        <time>2017-05-05T10:00:56Z</time>
      </trkpt>
      <trkpt lat="43.99109" lon="1.30145">
        <ele>83.6</ele>
        <time>2017-05-05T10:00:58Z</time>
      </trkpt>
      <trkpt lat="43.99114" lon="1.30152">
        <ele>83.3</ele>
        <time>2017-05-05T10:00:59Z</time>
      </trkpt>
      <trkpt lat="43.99119" lon="1.30159">
        <ele>83.1</ele>
        <time>2017-05-05T10:01:00Z</time>
      </trkpt>
      <trkpt lat="43.9913" lon="1.30172">
        <ele>83.1</ele>
        <time>2017-05-05T10:01:02Z</time>
      </trkpt>
      <trkpt lat="43.9914" lon="1.30184">
        <ele>83.8</ele>
        <time>2017-05-05T10:01:04Z</time>
      </trkpt>
      <trkpt lat="43.9915" lon="1.30194">
        <ele>83.6</ele>
        <time>2017-05-05T10:01:06Z</time>
      </trkpt>
      <trkpt lat="43.9916" lon="1.30205">
        <ele>83.4</ele>
        <time>2017-05-05T10:01:08Z</time>
      </trkpt>
      <trkpt lat="43.9917" lon="1.30214">
        <ele>82.9</ele>
        <time>2017-05-05T10:01:10Z</time>
      </trkpt>
      <trkpt lat="43.9918" lon="1.30223">
        <ele>82.5</ele>
        <time>2017-05-05T10:01:12Z</time>
      </trkpt>
      <trkpt lat="43.9919" lon="1.30231">
        <ele>82.2</ele>
        <time>2017-05-05T10:01:14Z</time>
      </trkpt>
      <trkpt lat="43.99199" lon="1.30239">
        <ele>82.1</ele>
        <time>2017-05-05T10:01:16Z</time>
      </trkpt>
      <trkpt lat="43.99209" lon="1.30246">
        <ele>81.7</ele>
        <time>2017-05-05T10:01:18Z</time>
      </trkpt>
      <trkpt lat="43.99219" lon="1.30252">
        <ele>81.2</ele>
        <time>2017-05-05T10:01:20Z</time>
      </trkpt>
      <trkpt lat="43.99229" lon="1.3026">
        <ele>80.8</ele>
        <time>2017-05-05T10:01:22Z</time>
      </trkpt>
      <trkpt lat="43.99238" lon="1.30266">
        <ele>80.7</ele>
        <time>2017-05-05T10:01:24Z</time>
      </trkpt>
      <trkpt lat="43.99248" lon="1.30272">
        <ele>80.4</ele>
        <time>2017-05-05T10:01:26Z</time>
      </trkpt>
      <trkpt lat="43.99258" lon="1.30278">
        <ele>80.5</ele>
        <time>2017-05-05T10:01:28Z</time>
      </trkpt>
      <trkpt lat="43.99268" lon="1.30283">
        <ele>80.4</ele>
        <time>2017-05-05T10:01:30Z</time>
      </trkpt>
      <trkpt lat="43.99278" lon="1.30288">
        <ele>80.3</ele>
        <time>2017-05-05T10:01:32Z</time>
      </trkpt>
      <trkpt lat="43.99287" lon="1.30291">
        <ele>80.3</ele>
        <time>2017-05-05T10:01:34Z</time>
      </trkpt>
      <trkpt lat="43.99298" lon="1.30296">
        <ele>80.7</ele>
        <time>2017-05-05T10:01:36Z</time>
      </trkpt>
      <trkpt lat="43.99308" lon="1.303">
        <ele>80.5</ele>
        <time>2017-05-05T10:01:38Z</time>
      </trkpt>
      <trkpt lat="43.99319" lon="1.30304">
        <ele>80.2</ele>
        <time>2017-05-05T10:01:40Z</time>
      </trkpt>
      <trkpt lat="43.9933" lon="1.30307">
        <ele>79.9</ele>
        <time>2017-05-05T10:01:42Z</time>
      </trkpt>
      <trkpt lat="43.99341" lon="1.30311">
        <ele>79.7</ele>
        <time>2017-05-05T10:01:44Z</time>
      </trkpt>
      <trkpt lat="43.99353" lon="1.30313">
        <ele>80.5</ele>
        <time>2017-05-05T10:01:46Z</time>
      </trkpt>
      <trkpt lat="43.99364" lon="1.30317">
        <ele>81.1</ele>
        <time>2017-05-05T10:01:48Z</time>
      </trkpt>
      <trkpt lat="43.99376" lon="1.30323">
        <ele>80.6</ele>
        <time>2017-05-05T10:01:50Z</time>
      </trkpt>
      <trkpt lat="43.99384" lon="1.30325">
        <ele>80.9</ele>
        <time>2017-05-05T10:01:51Z</time>
      </trkpt>
      <trkpt lat="43.99391" lon="1.30327">
        <ele>82</ele>
        <time>2017-05-05T10:01:52Z</time>
      </trkpt>
      <trkpt lat="43.99398" lon="1.30328">
        <ele>82.4</ele>
        <time>2017-05-05T10:01:53Z</time>
      </trkpt>
      <trkpt lat="43.99412" lon="1.30332">
        <ele>82.2</ele>
        <time>2017-05-05T10:01:55Z</time>
      </trkpt>
      <trkpt lat="43.99425" lon="1.30336">
        <ele>83.2</ele>
        <time>2017-05-05T10:01:57Z</time>
      </trkpt>
      <trkpt lat="43.99437" lon="1.30339">
        <ele>84.1</ele>
        <time>2017-05-05T10:01:59Z</time>
      </trkpt>
      <trkpt lat="43.99448" lon="1.30342">
        <ele>84.6</ele>
        <time>2017-05-05T10:02:01Z</time>
      </trkpt>
      <trkpt lat="43.99461" lon="1.30346">
        <ele>85.4</ele>
        <time>2017-05-05T10:02:03Z</time>
      </trkpt>
      <trkpt lat="43.99473" lon="1.30351">
        <ele>85.7</ele>
        <time>2017-05-05T10:02:05Z</time>
      </trkpt>
      <trkpt lat="43.99485" lon="1.30354">
        <ele>86.1</ele>
        <time>2017-05-05T10:02:07Z</time>
      </trkpt>
      <trkpt lat="43.99497" lon="1.30359">
        <ele>86.3</ele>
        <time>2017-05-05T10:02:09Z</time>
      </trkpt>
      <trkpt lat="43.99509" lon="1.30363">
        <ele>86.9</ele>
        <time>2017-05-05T10:02:11Z</time>
      </trkpt>
      <trkpt lat="43.99521" lon="1.30367">
        <ele>87</ele>
        <time>2017-05-05T10:02:13Z</time>
      </trkpt>
      <trkpt lat="43.99534" lon="1.30372">
        <ele>86.7</ele>
        <time>2017-05-05T10:02:15Z</time>
      </trkpt>
      <trkpt lat="43.99544" lon="1.30375">
        <ele>86.4</ele>
        <time>2017-05-05T10:02:17Z</time>
      </trkpt>
      <trkpt lat="43.99555" lon="1.30378">
        <ele>85.3</ele>
        <time>2017-05-05T10:02:19Z</time>
      </trkpt>
      <trkpt lat="43.99566" lon="1.30383">
        <ele>85.2</ele>
        <time>2017-05-05T10:02:21Z</time>
      </trkpt>
      <trkpt lat="43.99577" lon="1.3039">
        <ele>85.6</ele>
        <time>2017-05-05T10:02:23Z</time>
      </trkpt>
      <trkpt lat="43.99587" lon="1.30396">
        <ele>85.9</ele>
        <time>2017-05-05T10:02:25Z</time>
      </trkpt>
      <trkpt lat="43.99599" lon="1.304">
        <ele>85.7</ele>
        <time>2017-05-05T10:02:27Z</time>
      </trkpt>
      <trkpt lat="43.99611" lon="1.30403">
        <ele>85.2</ele>
        <time>2017-05-05T10:02:29Z</time>
      </trkpt>
      <trkpt lat="43.99623" lon="1.30405">
        <ele>84.6</ele>
        <time>2017-05-05T10:02:31Z</time>
      </trkpt>
      <trkpt lat="43.99636" lon="1.30408">
        <ele>84.6</ele>
        <time>2017-05-05T10:02:33Z</time>
      </trkpt>
      <trkpt lat="43.99649" lon="1.30412">
        <ele>84.7</ele>
        <time>2017-05-05T10:02:35Z</time>
      </trkpt>
      <trkpt lat="43.99661" lon="1.30417">
        <ele>84.8</ele>
        <time>2017-05-05T10:02:37Z</time>
      </trkpt>
      <trkpt lat="43.99673" lon="1.30424">
        <ele>84.9</ele>
        <time>2017-05-05T10:02:39Z</time>
      </trkpt>
      <trkpt lat="43.99685" lon="1.30431">
        <ele>85</ele>
        <time>2017-05-05T10:02:41Z</time>
      </trkpt>
      <trkpt lat="43.99696" lon="1.3044">
        <ele>84.9</ele>
        <time>2017-05-05T10:02:43Z</time>
      </trkpt>
      <trkpt lat="43.99707" lon="1.30449">
        <ele>84.4</ele>
        <time>2017-05-05T10:02:45Z</time>
      </trkpt>
      <trkpt lat="43.99718" lon="1.30459">
        <ele>84.2</ele>
        <time>2017-05-05T10:02:47Z</time>
      </trkpt>
      <trkpt lat="43.99728" lon="1.30468">
        <ele>83.8</ele>
        <time>2017-05-05T10:02:49Z</time>
      </trkpt>
      <trkpt lat="43.99738" lon="1.30479">
        <ele>83.6</ele>
        <time>2017-05-05T10:02:51Z</time>
      </trkpt>
      <trkpt lat="43.99747" lon="1.30491">
        <ele>83</ele>
        <time>2017-05-05T10:02:53Z</time>
      </trkpt>
      <trkpt lat="43.99755" lon="1.30502">
        <ele>82.4</ele>
        <time>2017-05-05T10:02:55Z</time>
      </trkpt>
      <trkpt lat="43.99763" lon="1.30515">
        <ele>81.5</ele>
        <time>2017-05-05T10:02:57Z</time>
      </trkpt>
      <trkpt lat="43.99772" lon="1.30526">
        <ele>80.4</ele>
        <time>2017-05-05T10:02:59Z</time>
      </trkpt>
      <trkpt lat="43.99779" lon="1.30539">
        <ele>80</ele>
        <time>2017-05-05T10:03:01Z</time>
      </trkpt>
      <trkpt lat="43.99786" lon="1.30553">
        <ele>79.8</ele>
        <time>2017-05-05T10:03:03Z</time>
      </trkpt>
      <trkpt lat="43.99791" lon="1.30567">
        <ele>79.7</ele>
        <time>2017-05-05T10:03:05Z</time>
      </trkpt>
      <trkpt lat="43.99797" lon="1.3058">
        <ele>79.4</ele>
        <time>2017-05-05T10:03:07Z</time>
      </trkpt>
      <trkpt lat="43.998" lon="1.30593">
        <ele>79.3</ele>
        <time>2017-05-05T10:03:09Z</time>
      </trkpt>
      <trkpt lat="43.99804" lon="1.30605">
        <ele>79.4</ele>
        <time>2017-05-05T10:03:11Z</time>
      </trkpt>
      <trkpt lat="43.99807" lon="1.30618">
        <ele>79.5</ele>
        <time>2017-05-05T10:03:13Z</time>
      </trkpt>
      <trkpt lat="43.9981" lon="1.30632">
        <ele>80.4</ele>
        <time>2017-05-05T10:03:15Z</time>
      </trkpt>
      <trkpt lat="43.99812" lon="1.30646">
        <ele>80</ele>
        <time>2017-05-05T10:03:17Z</time>
      </trkpt>
      <trkpt lat="43.99814" lon="1.30659">
        <ele>80</ele>
        <time>2017-05-05T10:03:19Z</time>
      </trkpt>
      <trkpt lat="43.99816" lon="1.30673">
        <ele>80</ele>
        <time>2017-05-05T10:03:21Z</time>
      </trkpt>
      <trkpt lat="43.99818" lon="1.30685">
        <ele>81.2</ele>
        <time>2017-05-05T10:03:23Z</time>
      </trkpt>
      <trkpt lat="43.99821" lon="1.30696">
        <ele>81.5</ele>
        <time>2017-05-05T10:03:25Z</time>
      </trkpt>
      <trkpt lat="43.99822" lon="1.30708">
        <ele>82</ele>
        <time>2017-05-05T10:03:28Z</time>
      </trkpt>
      <trkpt lat="43.99828" lon="1.30713">
        <ele>83.5</ele>
        <time>2017-05-05T10:03:33Z</time>
      </trkpt>
      <trkpt lat="43.99831" lon="1.30724">
        <ele>83.3</ele>
        <time>2017-05-05T10:03:37Z</time>
      </trkpt>
      <trkpt lat="43.99834" lon="1.30735">
        <ele>82.6</ele>
        <time>2017-05-05T10:03:39Z</time>
      </trkpt>
      <trkpt lat="43.99838" lon="1.30749">
        <ele>81.3</ele>
        <time>2017-05-05T10:03:41Z</time>
      </trkpt>
      <trkpt lat="43.99843" lon="1.30766">
        <ele>80.5</ele>
        <time>2017-05-05T10:03:43Z</time>
      </trkpt>
      <trkpt lat="43.99846" lon="1.30783">
        <ele>79.8</ele>
        <time>2017-05-05T10:03:45Z</time>
      </trkpt>
      <trkpt lat="43.9985" lon="1.308">
        <ele>79.1</ele>
        <time>2017-05-05T10:03:47Z</time>
      </trkpt>
      <trkpt lat="43.99854" lon="1.30817">
        <ele>79.2</ele>
        <time>2017-05-05T10:03:49Z</time>
      </trkpt>
      <trkpt lat="43.99857" lon="1.30834">
        <ele>80</ele>
        <time>2017-05-05T10:03:51Z</time>
      </trkpt>
      <trkpt lat="43.99861" lon="1.3085">
        <ele>79.4</ele>
        <time>2017-05-05T10:03:53Z</time>
      </trkpt>
      <trkpt lat="43.99864" lon="1.30866">
        <ele>78.5</ele>
        <time>2017-05-05T10:03:55Z</time>
      </trkpt>
      <trkpt lat="43.99867" lon="1.3088">
        <ele>78.4</ele>
        <time>2017-05-05T10:03:57Z</time>
      </trkpt>
      <trkpt lat="43.9987" lon="1.30894">
        <ele>77.8</ele>
        <time>2017-05-05T10:03:59Z</time>
      </trkpt>
      <trkpt lat="43.99873" lon="1.30908">
        <ele>77.5</ele>
        <time>2017-05-05T10:04:01Z</time>
      </trkpt>
      <trkpt lat="43.99876" lon="1.30923">
        <ele>77.3</ele>
        <time>2017-05-05T10:04:03Z</time>
      </trkpt>
      <trkpt lat="43.99878" lon="1.30936">
        <ele>77.2</ele>
        <time>2017-05-05T10:04:05Z</time>
      </trkpt>
      <trkpt lat="43.99881" lon="1.30949">
        <ele>77.6</ele>
        <time>2017-05-05T10:04:07Z</time>
      </trkpt>
      <trkpt lat="43.99884" lon="1.30963">
        <ele>77.3</ele>
        <time>2017-05-05T10:04:09Z</time>
      </trkpt>
      <trkpt lat="43.99887" lon="1.30977">
        <ele>77</ele>
        <time>2017-05-05T10:04:11Z</time>
      </trkpt>
      <trkpt lat="43.99889" lon="1.30991">
        <ele>76.2</ele>
        <time>2017-05-05T10:04:13Z</time>
      </trkpt>
      <trkpt lat="43.99892" lon="1.31004">
        <ele>76.9</ele>
        <time>2017-05-05T10:04:15Z</time>
      </trkpt>
      <trkpt lat="43.99895" lon="1.31017">
        <ele>76.7</ele>
        <time>2017-05-05T10:04:17Z</time>
      </trkpt>
      <trkpt lat="43.99897" lon="1.31029">
        <ele>76</ele>
        <time>2017-05-05T10:04:19Z</time>
      </trkpt>
      <trkpt lat="43.99899" lon="1.31042">
        <ele>75.2</ele>
        <time>2017-05-05T10:04:21Z</time>
      </trkpt>
      <trkpt lat="43.99902" lon="1.31055">
        <ele>74.9</ele>
        <time>2017-05-05T10:04:23Z</time>
      </trkpt>
      <trkpt lat="43.99904" lon="1.31068">
        <ele>75.5</ele>
        <time>2017-05-05T10:04:25Z</time>
      </trkpt>
      <trkpt lat="43.99907" lon="1.31082">
        <ele>75.3</ele>
        <time>2017-05-05T10:04:27Z</time>
      </trkpt>
      <trkpt lat="43.99909" lon="1.31095">
        <ele>75.4</ele>
        <time>2017-05-05T10:04:29Z</time>
      </trkpt>
      <trkpt lat="43.99911" lon="1.31109">
        <ele>76.3</ele>
        <time>2017-05-05T10:04:31Z</time>
      </trkpt>
      <trkpt lat="43.99915" lon="1.31121">
        <ele>75.9</ele>
        <time>2017-05-05T10:04:33Z</time>
      </trkpt>
      <trkpt lat="43.99918" lon="1.31135">
        <ele>76.1</ele>
        <time>2017-05-05T10:04:35Z</time>
      </trkpt>
      <trkpt lat="43.99922" lon="1.31148">
        <ele>76.4</ele>
        <time>2017-05-05T10:04:37Z</time>
      </trkpt>
      <trkpt lat="43.99924" lon="1.31161">
        <ele>76.6</ele>
        <time>2017-05-05T10:04:39Z</time>
      </trkpt>
      <trkpt lat="43.99927" lon="1.31174">
        <ele>77.3</ele>
        <time>2017-05-05T10:04:41Z</time>
      </trkpt>
      <trkpt lat="43.9993" lon="1.31187">
        <ele>77.8</ele>
        <time>2017-05-05T10:04:43Z</time>
      </trkpt>
      <trkpt lat="43.99933" lon="1.312">
        <ele>78.4</ele>
        <time>2017-05-05T10:04:45Z</time>
      </trkpt>
      <trkpt lat="43.99936" lon="1.31213">
        <ele>79.3</ele>
        <time>2017-05-05T10:04:47Z</time>
      </trkpt>
      <trkpt lat="43.99937" lon="1.31224">
        <ele>79.7</ele>
        <time>2017-05-05T10:04:49Z</time>
      </trkpt>
      <trkpt lat="43.9994" lon="1.31237">
        <ele>79.6</ele>
        <time>2017-05-05T10:04:51Z</time>
      </trkpt>
      <trkpt lat="43.99943" lon="1.31251">
        <ele>79.8</ele>
        <time>2017-05-05T10:04:53Z</time>
      </trkpt>
      <trkpt lat="43.99945" lon="1.31265">
        <ele>80.2</ele>
        <time>2017-05-05T10:04:55Z</time>
      </trkpt>
      <trkpt lat="43.99948" lon="1.31278">
        <ele>79.6</ele>
        <time>2017-05-05T10:04:57Z</time>
      </trkpt>
      <trkpt lat="43.99951" lon="1.31292">
        <ele>79.6</ele>
        <time>2017-05-05T10:04:59Z</time>
      </trkpt>
      <trkpt lat="43.99952" lon="1.31306">
        <ele>79.4</ele>
        <time>2017-05-05T10:05:01Z</time>
      </trkpt>
      <trkpt lat="43.99957" lon="1.31321">
        <ele>79</ele>
        <time>2017-05-05T10:05:03Z</time>
      </trkpt>
      <trkpt lat="43.99961" lon="1.31335">
        <ele>78.9</ele>
        <time>2017-05-05T10:05:05Z</time>
      </trkpt>
      <trkpt lat="43.99964" lon="1.31349">
        <ele>79.1</ele>
        <time>2017-05-05T10:05:07Z</time>
      </trkpt>
      <trkpt lat="43.99968" lon="1.31363">
        <ele>78.3</ele>
        <time>2017-05-05T10:05:09Z</time>
      </trkpt>
      <trkpt lat="43.99971" lon="1.31377">
        <ele>78.7</ele>
        <time>2017-05-05T10:05:11Z</time>
      </trkpt>
      <trkpt lat="43.99973" lon="1.31391">
        <ele>79.4</ele>
        <time>2017-05-05T10:05:13Z</time>
      </trkpt>
      <trkpt lat="43.99976" lon="1.31405">
        <ele>79.4</ele>
        <time>2017-05-05T10:05:15Z</time>
      </trkpt>
      <trkpt lat="43.9998" lon="1.31418">
        <ele>79.8</ele>
        <time>2017-05-05T10:05:17Z</time>
      </trkpt>
      <trkpt lat="43.99982" lon="1.31431">
        <ele>79.5</ele>
        <time>2017-05-05T10:05:19Z</time>
      </trkpt>
      <trkpt lat="43.99985" lon="1.31443">
        <ele>78.5</ele>
        <time>2017-05-05T10:05:21Z</time>
      </trkpt>
      <trkpt lat="43.99987" lon="1.31454">
        <ele>78.6</ele>
        <time>2017-05-05T10:05:23Z</time>
      </trkpt>
      <trkpt lat="43.99989" lon="1.31467">
        <ele>78.2</ele>
        <time>2017-05-05T10:05:25Z</time>
      </trkpt>
      <trkpt lat="43.99992" lon="1.3148">
        <ele>77.6</ele>
        <time>2017-05-05T10:05:27Z</time>
      </trkpt>
      <trkpt lat="43.99993" lon="1.31492">
        <ele>77.4</ele>
        <time>2017-05-05T10:05:29Z</time>
      </trkpt>
      <trkpt lat="43.99996" lon="1.31505">
        <ele>78.3</ele>
        <time>2017-05-05T10:05:31Z</time>
      </trkpt>
      <trkpt lat="43.99998" lon="1.31517">
        <ele>78.1</ele>
        <time>2017-05-05T10:05:33Z</time>
      </trkpt>
      <trkpt lat="44.00001" lon="1.31529">
        <ele>77.5</ele>
        <time>2017-05-05T10:05:35Z</time>
      </trkpt>
      <trkpt lat="44.00003" lon="1.31542">
        <ele>75.9</ele>
        <time>2017-05-05T10:05:37Z</time>
      </trkpt>
      <trkpt lat="44.00006" lon="1.31555">
        <ele>75.7</ele>
        <time>2017-05-05T10:05:39Z</time>
      </trkpt>
      <trkpt lat="44.00008" lon="1.31568">
        <ele>76.3</ele>
        <time>2017-05-05T10:05:41Z</time>
      </trkpt>
      <trkpt lat="44.00011" lon="1.3158">
        <ele>76.4</ele>
        <time>2017-05-05T10:05:43Z</time>
      </trkpt>
      <trkpt lat="44.00012" lon="1.31593">
        <ele>76.9</ele>
        <time>2017-05-05T10:05:45Z</time>
      </trkpt>
      <trkpt lat="44.00016" lon="1.31606">
        <ele>78.4</ele>
        <time>2017-05-05T10:05:47Z</time>
      </trkpt>
      <trkpt lat="44.00019" lon="1.31619">
        <ele>78.6</ele>
        <time>2017-05-05T10:05:49Z</time>
      </trkpt>
      <trkpt lat="44.00021" lon="1.31631">
        <ele>78.2</ele>
        <time>2017-05-05T10:05:51Z</time>
      </trkpt>
      <trkpt lat="44.00024" lon="1.31643">
        <ele>78.6</ele>
        <time>2017-05-05T10:05:53Z</time>
      </trkpt>
      <trkpt lat="44.00028" lon="1.31656">
        <ele>79.9</ele>
        <time>2017-05-05T10:05:55Z</time>
      </trkpt>
      <trkpt lat="44.0003" lon="1.31669">
        <ele>79.9</ele>
        <time>2017-05-05T10:05:57Z</time>
      </trkpt>
      <trkpt lat="44.00033" lon="1.31683">
        <ele>80</ele>
        <time>2017-05-05T10:05:59Z</time>
      </trkpt>
      <trkpt lat="44.00036" lon="1.31696">
        <ele>79.9</ele>
        <time>2017-05-05T10:06:01Z</time>
      </trkpt>
      <trkpt lat="44.00039" lon="1.31708">
        <ele>80.6</ele>
        <time>2017-05-05T10:06:03Z</time>
      </trkpt>
      <trkpt lat="44.00042" lon="1.31723">
        <ele>81.3</ele>
        <time>2017-05-05T10:06:05Z</time>
      </trkpt>
      <trkpt lat="44.00045" lon="1.31737">
        <ele>80.1</ele>
        <time>2017-05-05T10:06:07Z</time>
      </trkpt>
      <trkpt lat="44.00048" lon="1.3175">
        <ele>80.3</ele>
        <time>2017-05-05T10:06:09Z</time>
      </trkpt>
      <trkpt lat="44.0005" lon="1.31764">
        <ele>80.2</ele>
        <time>2017-05-05T10:06:11Z</time>
      </trkpt>
      <trkpt lat="44.00054" lon="1.31776">
        <ele>80.5</ele>
        <time>2017-05-05T10:06:13Z</time>
      </trkpt>
      <trkpt lat="44.00057" lon="1.31789">
        <ele>80.4</ele>
        <time>2017-05-05T10:06:15Z</time>
      </trkpt>
      <trkpt lat="44.0006" lon="1.31803">
        <ele>80.5</ele>
        <time>2017-05-05T10:06:17Z</time>
      </trkpt>
      <trkpt lat="44.00063" lon="1.31816">
        <ele>80.8</ele>
        <time>2017-05-05T10:06:19Z</time>
      </trkpt>
      <trkpt lat="44.00065" lon="1.31829">
        <ele>80.6</ele>
        <time>2017-05-05T10:06:21Z</time>
      </trkpt>
      <trkpt lat="44.00068" lon="1.31843">
        <ele>80.4</ele>
        <time>2017-05-05T10:06:23Z</time>
      </trkpt>
      <trkpt lat="44.00071" lon="1.31856">
        <ele>79.8</ele>
        <time>2017-05-05T10:06:25Z</time>
      </trkpt>
      <trkpt lat="44.00073" lon="1.31869">
        <ele>79.5</ele>
        <time>2017-05-05T10:06:27Z</time>
      </trkpt>
      <trkpt lat="44.00076" lon="1.31881">
        <ele>78.9</ele>
        <time>2017-05-05T10:06:29Z</time>
      </trkpt>
      <trkpt lat="44.00079" lon="1.31895">
        <ele>78.6</ele>
        <time>2017-05-05T10:06:31Z</time>
      </trkpt>
      <trkpt lat="44.00081" lon="1.31908">
        <ele>79.1</ele>
        <time>2017-05-05T10:06:33Z</time>
      </trkpt>
      <trkpt lat="44.00084" lon="1.31921">
        <ele>79.5</ele>
        <time>2017-05-05T10:06:35Z</time>
      </trkpt>
      <trkpt lat="44.00086" lon="1.31935">
        <ele>80</ele>
        <time>2017-05-05T10:06:37Z</time>
      </trkpt>
      <trkpt lat="44.00089" lon="1.31949">
        <ele>80.2</ele>
        <time>2017-05-05T10:06:39Z</time>
      </trkpt>
      <trkpt lat="44.00092" lon="1.31962">
        <ele>80.7</ele>
        <time>2017-05-05T10:06:41Z</time>
      </trkpt>
      <trkpt lat="44.00096" lon="1.31974">
        <ele>81.6</ele>
        <time>2017-05-05T10:06:43Z</time>
      </trkpt>
      <trkpt lat="44.00099" lon="1.31988">
        <ele>80.2</ele>
        <time>2017-05-05T10:06:45Z</time>
      </trkpt>
      <trkpt lat="44.00101" lon="1.32001">
        <ele>80.5</ele>
        <time>2017-05-05T10:06:47Z</time>
      </trkpt>
      <trkpt lat="44.00103" lon="1.32015">
        <ele>80.5</ele>
        <time>2017-05-05T10:06:49Z</time>
      </trkpt>
      <trkpt lat="44.00106" lon="1.32027">
        <ele>81.6</ele>
        <time>2017-05-05T10:06:51Z</time>
      </trkpt>
      <trkpt lat="44.00109" lon="1.32041">
        <ele>81</ele>
        <time>2017-05-05T10:06:53Z</time>
      </trkpt>
      <trkpt lat="44.00112" lon="1.32054">
        <ele>80.8</ele>
        <time>2017-05-05T10:06:55Z</time>
      </trkpt>
      <trkpt lat="44.00115" lon="1.32068">
        <ele>79.8</ele>
        <time>2017-05-05T10:06:57Z</time>
      </trkpt>
      <trkpt lat="44.00118" lon="1.32082">
        <ele>79.7</ele>
        <time>2017-05-05T10:06:59Z</time>
      </trkpt>
      <trkpt lat="44.00121" lon="1.32097">
        <ele>79.5</ele>
        <time>2017-05-05T10:07:01Z</time>
      </trkpt>
      <trkpt lat="44.00123" lon="1.3211">
        <ele>79.4</ele>
        <time>2017-05-05T10:07:03Z</time>
      </trkpt>
      <trkpt lat="44.00126" lon="1.32124">
        <ele>79.4</ele>
        <time>2017-05-05T10:07:05Z</time>
      </trkpt>
      <trkpt lat="44.00129" lon="1.32136">
        <ele>79.3</ele>
        <time>2017-05-05T10:07:07Z</time>
      </trkpt>
      <trkpt lat="44.00133" lon="1.3215">
        <ele>79.3</ele>
        <time>2017-05-05T10:07:09Z</time>
      </trkpt>
      <trkpt lat="44.00136" lon="1.32163">
        <ele>79.8</ele>
        <time>2017-05-05T10:07:11Z</time>
      </trkpt>
      <trkpt lat="44.00139" lon="1.32177">
        <ele>79.8</ele>
        <time>2017-05-05T10:07:13Z</time>
      </trkpt>
      <trkpt lat="44.00143" lon="1.3219">
        <ele>79.8</ele>
        <time>2017-05-05T10:07:15Z</time>
      </trkpt>
      <trkpt lat="44.00146" lon="1.32203">
        <ele>79.5</ele>
        <time>2017-05-05T10:07:17Z</time>
      </trkpt>
      <trkpt lat="44.0015" lon="1.32216">
        <ele>79.9</ele>
        <time>2017-05-05T10:07:19Z</time>
      </trkpt>
      <trkpt lat="44.00152" lon="1.32227">
        <ele>79.9</ele>
        <time>2017-05-05T10:07:21Z</time>
      </trkpt>
      <trkpt lat="44.00156" lon="1.32238">
        <ele>80.2</ele>
        <time>2017-05-05T10:07:23Z</time>
      </trkpt>
      <trkpt lat="44.00159" lon="1.3225">
        <ele>80.4</ele>
        <time>2017-05-05T10:07:25Z</time>
      </trkpt>
      <trkpt lat="44.00162" lon="1.32261">
        <ele>79.8</ele>
        <time>2017-05-05T10:07:27Z</time>
      </trkpt>
      <trkpt lat="44.00166" lon="1.32273">
        <ele>79.1</ele>
        <time>2017-05-05T10:07:29Z</time>
      </trkpt>
      <trkpt lat="44.0017" lon="1.32286">
        <ele>78.6</ele>
        <time>2017-05-05T10:07:31Z</time>
      </trkpt>
      <trkpt lat="44.00173" lon="1.32297">
        <ele>78.2</ele>
        <time>2017-05-05T10:07:33Z</time>
      </trkpt>
      <trkpt lat="44.00177" lon="1.32308">
        <ele>77.9</ele>
        <time>2017-05-05T10:07:35Z</time>
      </trkpt>
      <trkpt lat="44.00182" lon="1.32319">
        <ele>77.4</ele>
        <time>2017-05-05T10:07:37Z</time>
      </trkpt>
      <trkpt lat="44.00188" lon="1.32332">
        <ele>77.6</ele>
        <time>2017-05-05T10:07:39Z</time>
      </trkpt>
      <trkpt lat="44.00193" lon="1.32343">
        <ele>76.9</ele>
        <time>2017-05-05T10:07:41Z</time>
      </trkpt>
      <trkpt lat="44.00199" lon="1.32355">
        <ele>76.8</ele>
        <time>2017-05-05T10:07:43Z</time>
      </trkpt>
      <trkpt lat="44.00204" lon="1.32366">
        <ele>77.1</ele>
        <time>2017-05-05T10:07:45Z</time>
      </trkpt>
      <trkpt lat="44.00211" lon="1.32377">
        <ele>77.3</ele>
        <time>2017-05-05T10:07:47Z</time>
      </trkpt>
      <trkpt lat="44.00216" lon="1.32388">
        <ele>76.6</ele>
        <time>2017-05-05T10:07:49Z</time>
      </trkpt>
      <trkpt lat="44.00221" lon="1.324">
        <ele>77.1</ele>
        <time>2017-05-05T10:07:51Z</time>
      </trkpt>
      <trkpt lat="44.00226" lon="1.32411">
        <ele>77.2</ele>
        <time>2017-05-05T10:07:53Z</time>
      </trkpt>
      <trkpt lat="44.00231" lon="1.32423">
        <ele>77.7</ele>
        <time>2017-05-05T10:07:55Z</time>
      </trkpt>
      <trkpt lat="44.00236" lon="1.32434">
        <ele>78.9</ele>
        <time>2017-05-05T10:07:57Z</time>
      </trkpt>
      <trkpt lat="44.00242" lon="1.32444">
        <ele>78.9</ele>
        <time>2017-05-05T10:07:59Z</time>
      </trkpt>
      <trkpt lat="44.00247" lon="1.32456">
        <ele>79.6</ele>
        <time>2017-05-05T10:08:01Z</time>
      </trkpt>
      <trkpt lat="44.00254" lon="1.32468">
        <ele>79.7</ele>
        <time>2017-05-05T10:08:03Z</time>
      </trkpt>
      <trkpt lat="44.00259" lon="1.3248">
        <ele>79.9</ele>
        <time>2017-05-05T10:08:05Z</time>
      </trkpt>
      <trkpt lat="44.00264" lon="1.32491">
        <ele>80.1</ele>
        <time>2017-05-05T10:08:07Z</time>
      </trkpt>
      <trkpt lat="44.00269" lon="1.32501">
        <ele>79.7</ele>
        <time>2017-05-05T10:08:09Z</time>
      </trkpt>
      <trkpt lat="44.00274" lon="1.32511">
        <ele>79.6</ele>
        <time>2017-05-05T10:08:11Z</time>
      </trkpt>
      <trkpt lat="44.00278" lon="1.32521">
        <ele>79.2</ele>
        <time>2017-05-05T10:08:13Z</time>
      </trkpt>
      <trkpt lat="44.00282" lon="1.32532">
        <ele>79.7</ele>
        <time>2017-05-05T10:08:15Z</time>
      </trkpt>
      <trkpt lat="44.00287" lon="1.32542">
        <ele>79.9</ele>
        <time>2017-05-05T10:08:17Z</time>
      </trkpt>
      <trkpt lat="44.00291" lon="1.32552">
        <ele>80.1</ele>
        <time>2017-05-05T10:08:19Z</time>
      </trkpt>
      <trkpt lat="44.00296" lon="1.32561">
        <ele>80.4</ele>
        <time>2017-05-05T10:08:21Z</time>
      </trkpt>
      <trkpt lat="44.00299" lon="1.3257">
        <ele>80.5</ele>
        <time>2017-05-05T10:08:23Z</time>
      </trkpt>
      <trkpt lat="44.00305" lon="1.32578">
        <ele>80.7</ele>
        <time>2017-05-05T10:08:26Z</time>
      </trkpt>
      <trkpt lat="44.00302" lon="1.32588">
        <ele>82.2</ele>
        <time>2017-05-05T10:08:33Z</time>
      </trkpt>
      <trkpt lat="44.00294" lon="1.32592">
        <ele>83</ele>
        <time>2017-05-05T10:08:37Z</time>
      </trkpt>
      <trkpt lat="44.00286" lon="1.32597">
        <ele>82.1</ele>
        <time>2017-05-05T10:08:41Z</time>
      </trkpt>
      <trkpt lat="44.00285" lon="1.32607">
        <ele>80.9</ele>
        <time>2017-05-05T10:08:45Z</time>
      </trkpt>
      <trkpt lat="44.0029" lon="1.3262">
        <ele>79.4</ele>
        <time>2017-05-05T10:08:48Z</time>
      </trkpt>
      <trkpt lat="44.00296" lon="1.32629">
        <ele>78.9</ele>
        <time>2017-05-05T10:08:50Z</time>
      </trkpt>
      <trkpt lat="44.00302" lon="1.3264">
        <ele>78</ele>
        <time>2017-05-05T10:08:52Z</time>
      </trkpt>
      <trkpt lat="44.00307" lon="1.32651">
        <ele>77.2</ele>
        <time>2017-05-05T10:08:54Z</time>
      </trkpt>
      <trkpt lat="44.00313" lon="1.32663">
        <ele>76.6</ele>
        <time>2017-05-05T10:08:56Z</time>
      </trkpt>
      <trkpt lat="44.00319" lon="1.32675">
        <ele>75.8</ele>
        <time>2017-05-05T10:08:58Z</time>
      </trkpt>
      <trkpt lat="44.00326" lon="1.32687">
        <ele>75</ele>
        <time>2017-05-05T10:09:00Z</time>
      </trkpt>
      <trkpt lat="44.0033" lon="1.32699">
        <ele>74.4</ele>
        <time>2017-05-05T10:09:02Z</time>
      </trkpt>
      <trkpt lat="44.00337" lon="1.3271">
        <ele>73.8</ele>
        <time>2017-05-05T10:09:04Z</time>
      </trkpt>
      <trkpt lat="44.00343" lon="1.32723">
        <ele>73.3</ele>
        <time>2017-05-05T10:09:06Z</time>
      </trkpt>
      <trkpt lat="44.00349" lon="1.32736">
        <ele>73</ele>
        <time>2017-05-05T10:09:08Z</time>
      </trkpt>
      <trkpt lat="44.00354" lon="1.32749">
        <ele>72.8</ele>
        <time>2017-05-05T10:09:10Z</time>
      </trkpt>
      <trkpt lat="44.00361" lon="1.32762">
        <ele>72.7</ele>
        <time>2017-05-05T10:09:12Z</time>
      </trkpt>
      <trkpt lat="44.00367" lon="1.32774">
        <ele>72.5</ele>
        <time>2017-05-05T10:09:14Z</time>
      </trkpt>
      <trkpt lat="44.00372" lon="1.32786">
        <ele>72.2</ele>
        <time>2017-05-05T10:09:16Z</time>
      </trkpt>
      <trkpt lat="44.00378" lon="1.32799">
        <ele>72</ele>
        <time>2017-05-05T10:09:18Z</time>
      </trkpt>
      <trkpt lat="44.00385" lon="1.32812">
        <ele>72.3</ele>
        <time>2017-05-05T10:09:20Z</time>
      </trkpt>
      <trkpt lat="44.00392" lon="1.32824">
        <ele>72.3</ele>
        <time>2017-05-05T10:09:22Z</time>
      </trkpt>
      <trkpt lat="44.00398" lon="1.32836">
        <ele>72.3</ele>
        <time>2017-05-05T10:09:24Z</time>
      </trkpt>
      <trkpt lat="44.00405" lon="1.32848">
        <ele>72.4</ele>
        <time>2017-05-05T10:09:26Z</time>
      </trkpt>
      <trkpt lat="44.00411" lon="1.32861">
        <ele>72.4</ele>
        <time>2017-05-05T10:09:28Z</time>
      </trkpt>
      <trkpt lat="44.00417" lon="1.32873">
        <ele>72.4</ele>
        <time>2017-05-05T10:09:30Z</time>
      </trkpt>
      <trkpt lat="44.00422" lon="1.32885">
        <ele>72.5</ele>
        <time>2017-05-05T10:09:32Z</time>
      </trkpt>
      <trkpt lat="44.00428" lon="1.32897">
        <ele>72.6</ele>
        <time>2017-05-05T10:09:34Z</time>
      </trkpt>
      <trkpt lat="44.00434" lon="1.32908">
        <ele>72.9</ele>
        <time>2017-05-05T10:09:36Z</time>
      </trkpt>
      <trkpt lat="44.0044" lon="1.32919">
        <ele>73.1</ele>
        <time>2017-05-05T10:09:38Z</time>
      </trkpt>
      <trkpt lat="44.00445" lon="1.32931">
        <ele>72.9</ele>
        <time>2017-05-05T10:09:40Z</time>
      </trkpt>
      <trkpt lat="44.00451" lon="1.32941">
        <ele>72.7</ele>
        <time>2017-05-05T10:09:42Z</time>
      </trkpt>
      <trkpt lat="44.00456" lon="1.32953">
        <ele>72.2</ele>
        <time>2017-05-05T10:09:44Z</time>
      </trkpt>
      <trkpt lat="44.00462" lon="1.32965">
        <ele>71.7</ele>
        <time>2017-05-05T10:09:46Z</time>
      </trkpt>
      <trkpt lat="44.00468" lon="1.32977">
        <ele>71.2</ele>
        <time>2017-05-05T10:09:48Z</time>
      </trkpt>
      <trkpt lat="44.00474" lon="1.32991">
        <ele>70.8</ele>
        <time>2017-05-05T10:09:50Z</time>
      </trkpt>
      <trkpt lat="44.00481" lon="1.33003">
        <ele>70.5</ele>
        <time>2017-05-05T10:09:52Z</time>
      </trkpt>
      <trkpt lat="44.00487" lon="1.33016">
        <ele>70.2</ele>
        <time>2017-05-05T10:09:54Z</time>
      </trkpt>
      <trkpt lat="44.00493" lon="1.33028">
        <ele>69.7</ele>
        <time>2017-05-05T10:09:56Z</time>
      </trkpt>
      <trkpt lat="44.00499" lon="1.3304">
        <ele>69.4</ele>
        <time>2017-05-05T10:09:58Z</time>
      </trkpt>
      <trkpt lat="44.00504" lon="1.33053">
        <ele>68.4</ele>
        <time>2017-05-05T10:10:00Z</time>
      </trkpt>
      <trkpt lat="44.0051" lon="1.33065">
        <ele>68.2</ele>
        <time>2017-05-05T10:10:02Z</time>
      </trkpt>
      <trkpt lat="44.00515" lon="1.33078">
        <ele>68.1</ele>
        <time>2017-05-05T10:10:04Z</time>
      </trkpt>
      <trkpt lat="44.0052" lon="1.3309">
        <ele>67.9</ele>
        <time>2017-05-05T10:10:07Z</time>
      </trkpt>
      <trkpt lat="44.00526" lon="1.33103">
        <ele>67.5</ele>
        <time>2017-05-05T10:10:08Z</time>
      </trkpt>
      <trkpt lat="44.00532" lon="1.33116">
        <ele>67.2</ele>
        <time>2017-05-05T10:10:10Z</time>
      </trkpt>
      <trkpt lat="44.00538" lon="1.3313">
        <ele>66.8</ele>
        <time>2017-05-05T10:10:12Z</time>
      </trkpt>
      <trkpt lat="44.00545" lon="1.33142">
        <ele>66.6</ele>
        <time>2017-05-05T10:10:14Z</time>
      </trkpt>
      <trkpt lat="44.00552" lon="1.33155">
        <ele>66.4</ele>
        <time>2017-05-05T10:10:16Z</time>
      </trkpt>
      <trkpt lat="44.00559" lon="1.33167">
        <ele>66.1</ele>
        <time>2017-05-05T10:10:18Z</time>
      </trkpt>
      <trkpt lat="44.00565" lon="1.3318">
        <ele>65.8</ele>
        <time>2017-05-05T10:10:20Z</time>
      </trkpt>
      <trkpt lat="44.00571" lon="1.33193">
        <ele>65.5</ele>
        <time>2017-05-05T10:10:22Z</time>
      </trkpt>
      <trkpt lat="44.00577" lon="1.33206">
        <ele>65.6</ele>
        <time>2017-05-05T10:10:24Z</time>
      </trkpt>
      <trkpt lat="44.00584" lon="1.33218">
        <ele>65.7</ele>
        <time>2017-05-05T10:10:26Z</time>
      </trkpt>
      <trkpt lat="44.00589" lon="1.33231">
        <ele>66.2</ele>
        <time>2017-05-05T10:10:28Z</time>
      </trkpt>
      <trkpt lat="44.00595" lon="1.33244">
        <ele>66.4</ele>
        <time>2017-05-05T10:10:30Z</time>
      </trkpt>
      <trkpt lat="44.00602" lon="1.33256">
        <ele>66.6</ele>
        <time>2017-05-05T10:10:32Z</time>
      </trkpt>
      <trkpt lat="44.00608" lon="1.33268">
        <ele>66.9</ele>
        <time>2017-05-05T10:10:34Z</time>
      </trkpt>
      <trkpt lat="44.00613" lon="1.3328">
        <ele>66.9</ele>
        <time>2017-05-05T10:10:36Z</time>
      </trkpt>
      <trkpt lat="44.00618" lon="1.33292">
        <ele>67</ele>
        <time>2017-05-05T10:10:38Z</time>
      </trkpt>
      <trkpt lat="44.00625" lon="1.33305">
        <ele>67.1</ele>
        <time>2017-05-05T10:10:40Z</time>
      </trkpt>
      <trkpt lat="44.00631" lon="1.33316">
        <ele>67</ele>
        <time>2017-05-05T10:10:42Z</time>
      </trkpt>
      <trkpt lat="44.00637" lon="1.33328">
        <ele>66.8</ele>
        <time>2017-05-05T10:10:44Z</time>
      </trkpt>
      <trkpt lat="44.00643" lon="1.33341">
        <ele>67.1</ele>
        <time>2017-05-05T10:10:46Z</time>
      </trkpt>
      <trkpt lat="44.00648" lon="1.33354">
        <ele>67.3</ele>
        <time>2017-05-05T10:10:48Z</time>
      </trkpt>
      <trkpt lat="44.00656" lon="1.33366">
        <ele>67.3</ele>
        <time>2017-05-05T10:10:50Z</time>
      </trkpt>
      <trkpt lat="44.00661" lon="1.33378">
        <ele>67.6</ele>
        <time>2017-05-05T10:10:52Z</time>
      </trkpt>
      <trkpt lat="44.00667" lon="1.33391">
        <ele>67.6</ele>
        <time>2017-05-05T10:10:54Z</time>
      </trkpt>
      <trkpt lat="44.00674" lon="1.33403">
        <ele>67.7</ele>
        <time>2017-05-05T10:10:56Z</time>
      </trkpt>
      <trkpt lat="44.00681" lon="1.33416">
        <ele>67.9</ele>
        <time>2017-05-05T10:10:58Z</time>
      </trkpt>
      <trkpt lat="44.00686" lon="1.33427">
        <ele>67.9</ele>
        <time>2017-05-05T10:11:00Z</time>
      </trkpt>
      <trkpt lat="44.00693" lon="1.3344">
        <ele>67.7</ele>
        <time>2017-05-05T10:11:02Z</time>
      </trkpt>
      <trkpt lat="44.00699" lon="1.33452">
        <ele>67.8</ele>
        <time>2017-05-05T10:11:04Z</time>
      </trkpt>
      <trkpt lat="44.00705" lon="1.33464">
        <ele>67.9</ele>
        <time>2017-05-05T10:11:06Z</time>
      </trkpt>
      <trkpt lat="44.00711" lon="1.33478">
        <ele>68.3</ele>
        <time>2017-05-05T10:11:08Z</time>
      </trkpt>
      <trkpt lat="44.00718" lon="1.3349">
        <ele>68.5</ele>
        <time>2017-05-05T10:11:10Z</time>
      </trkpt>
      <trkpt lat="44.00724" lon="1.33501">
        <ele>68.8</ele>
        <time>2017-05-05T10:11:12Z</time>
      </trkpt>
      <trkpt lat="44.0073" lon="1.33514">
        <ele>69</ele>
        <time>2017-05-05T10:11:14Z</time>
      </trkpt>
      <trkpt lat="44.00736" lon="1.33526">
        <ele>69</ele>
        <time>2017-05-05T10:11:16Z</time>
      </trkpt>
      <trkpt lat="44.00741" lon="1.33538">
        <ele>68.9</ele>
        <time>2017-05-05T10:11:18Z</time>
      </trkpt>
      <trkpt lat="44.00748" lon="1.33551">
        <ele>69.2</ele>
        <time>2017-05-05T10:11:20Z</time>
      </trkpt>
      <trkpt lat="44.00755" lon="1.33563">
        <ele>69.8</ele>
        <time>2017-05-05T10:11:22Z</time>
      </trkpt>
      <trkpt lat="44.0076" lon="1.33576">
        <ele>70.1</ele>
        <time>2017-05-05T10:11:24Z</time>
      </trkpt>
      <trkpt lat="44.00766" lon="1.33589">
        <ele>70.4</ele>
        <time>2017-05-05T10:11:26Z</time>
      </trkpt>
      <trkpt lat="44.00769" lon="1.33603">
        <ele>70.8</ele>
        <time>2017-05-05T10:11:28Z</time>
      </trkpt>
      <trkpt lat="44.00772" lon="1.33617">
        <ele>71</ele>
        <time>2017-05-05T10:11:30Z</time>
      </trkpt>
      <trkpt lat="44.00775" lon="1.33631">
        <ele>71.7</ele>
        <time>2017-05-05T10:11:32Z</time>
      </trkpt>
      <trkpt lat="44.00778" lon="1.33647">
        <ele>72.3</ele>
        <time>2017-05-05T10:11:34Z</time>
      </trkpt>
      <trkpt lat="44.0078" lon="1.33662">
        <ele>72.7</ele>
        <time>2017-05-05T10:11:36Z</time>
      </trkpt>
      <trkpt lat="44.00781" lon="1.33676">
        <ele>73.2</ele>
        <time>2017-05-05T10:11:38Z</time>
      </trkpt>
      <trkpt lat="44.00781" lon="1.33691">
        <ele>73.2</ele>
        <time>2017-05-05T10:11:40Z</time>
      </trkpt>
      <trkpt lat="44.0078" lon="1.33706">
        <ele>74</ele>
        <time>2017-05-05T10:11:42Z</time>
      </trkpt>
      <trkpt lat="44.00779" lon="1.3372">
        <ele>74.5</ele>
        <time>2017-05-05T10:11:44Z</time>
      </trkpt>
      <trkpt lat="44.00777" lon="1.33734">
        <ele>74.1</ele>
        <time>2017-05-05T10:11:46Z</time>
      </trkpt>
      <trkpt lat="44.00775" lon="1.33748">
        <ele>73.8</ele>
        <time>2017-05-05T10:11:48Z</time>
      </trkpt>
      <trkpt lat="44.00771" lon="1.33762">
        <ele>74.1</ele>
        <time>2017-05-05T10:11:50Z</time>
      </trkpt>
      <trkpt lat="44.00767" lon="1.33777">
        <ele>74.4</ele>
        <time>2017-05-05T10:11:52Z</time>
      </trkpt>
      <trkpt lat="44.00762" lon="1.33792">
        <ele>74.7</ele>
        <time>2017-05-05T10:11:54Z</time>
      </trkpt>
      <trkpt lat="44.00758" lon="1.33806">
        <ele>75</ele>
        <time>2017-05-05T10:11:56Z</time>
      </trkpt>
      <trkpt lat="44.00753" lon="1.33819">
        <ele>75.8</ele>
        <time>2017-05-05T10:11:58Z</time>
      </trkpt>
      <trkpt lat="44.00749" lon="1.33831">
        <ele>76.5</ele>
        <time>2017-05-05T10:12:00Z</time>
      </trkpt>
      <trkpt lat="44.00745" lon="1.33845">
        <ele>76.8</ele>
        <time>2017-05-05T10:12:02Z</time>
      </trkpt>
      <trkpt lat="44.0074" lon="1.33858">
        <ele>77.1</ele>
        <time>2017-05-05T10:12:04Z</time>
      </trkpt>
      <trkpt lat="44.00736" lon="1.3387">
        <ele>77.5</ele>
        <time>2017-05-05T10:12:06Z</time>
      </trkpt>
      <trkpt lat="44.00731" lon="1.33882">
        <ele>77.6</ele>
        <time>2017-05-05T10:12:08Z</time>
      </trkpt>
      <trkpt lat="44.00727" lon="1.33896">
        <ele>78.2</ele>
        <time>2017-05-05T10:12:10Z</time>
      </trkpt>
      <trkpt lat="44.00723" lon="1.33909">
        <ele>78.6</ele>
        <time>2017-05-05T10:12:12Z</time>
      </trkpt>
      <trkpt lat="44.00719" lon="1.33923">
        <ele>78.8</ele>
        <time>2017-05-05T10:12:14Z</time>
      </trkpt>
      <trkpt lat="44.00715" lon="1.33936">
        <ele>78.8</ele>
        <time>2017-05-05T10:12:16Z</time>
      </trkpt>
      <trkpt lat="44.00711" lon="1.33949">
        <ele>79.4</ele>
        <time>2017-05-05T10:12:18Z</time>
      </trkpt>
      <trkpt lat="44.00707" lon="1.33963">
        <ele>79.4</ele>
        <time>2017-05-05T10:12:20Z</time>
      </trkpt>
      <trkpt lat="44.00703" lon="1.33976">
        <ele>79.7</ele>
        <time>2017-05-05T10:12:22Z</time>
      </trkpt>
      <trkpt lat="44.00699" lon="1.3399">
        <ele>80.1</ele>
        <time>2017-05-05T10:12:24Z</time>
      </trkpt>
      <trkpt lat="44.00694" lon="1.34003">
        <ele>80.4</ele>
        <time>2017-05-05T10:12:26Z</time>
      </trkpt>
      <trkpt lat="44.00691" lon="1.34016">
        <ele>80.6</ele>
        <time>2017-05-05T10:12:28Z</time>
      </trkpt>
      <trkpt lat="44.00687" lon="1.34029">
        <ele>81.1</ele>
        <time>2017-05-05T10:12:30Z</time>
      </trkpt>
      <trkpt lat="44.00683" lon="1.34042">
        <ele>81.4</ele>
        <time>2017-05-05T10:12:32Z</time>
      </trkpt>
      <trkpt lat="44.00679" lon="1.34054">
        <ele>81.7</ele>
        <time>2017-05-05T10:12:34Z</time>
      </trkpt>
      <trkpt lat="44.00675" lon="1.34067">
        <ele>81.9</ele>
        <time>2017-05-05T10:12:36Z</time>
      </trkpt>
      <trkpt lat="44.00672" lon="1.34081">
        <ele>82.3</ele>
        <time>2017-05-05T10:12:38Z</time>
      </trkpt>
      <trkpt lat="44.00667" lon="1.34093">
        <ele>82.4</ele>
        <time>2017-05-05T10:12:40Z</time>
      </trkpt>
      <trkpt lat="44.00664" lon="1.34105">
        <ele>82.7</ele>
        <time>2017-05-05T10:12:42Z</time>
      </trkpt>
      <trkpt lat="44.0066" lon="1.34117">
        <ele>82.7</ele>
        <time>2017-05-05T10:12:44Z</time>
      </trkpt>
      <trkpt lat="44.00657" lon="1.34129">
        <ele>82.7</ele>
        <time>2017-05-05T10:12:46Z</time>
      </trkpt>
      <trkpt lat="44.00654" lon="1.3414">
        <ele>82.7</ele>
        <time>2017-05-05T10:12:48Z</time>
      </trkpt>
      <trkpt lat="44.0065" lon="1.34149">
        <ele>82.5</ele>
        <time>2017-05-05T10:12:50Z</time>
      </trkpt>
      <trkpt lat="44.00647" lon="1.34159">
        <ele>82.1</ele>
        <time>2017-05-05T10:12:54Z</time>
      </trkpt>
      <trkpt lat="44.00648" lon="1.34162">
        <ele>81.8</ele>
        <time>2017-05-05T10:13:01Z</time>
      </trkpt>
      <trkpt lat="44.00649" lon="1.34165">
        <ele>82.2</ele>
        <time>2017-05-05T10:13:26Z</time>
      </trkpt>
      <trkpt lat="44.00656" lon="1.34163">
        <ele>81.2</ele>
        <time>2017-05-05T10:13:33Z</time>
      </trkpt>
      <trkpt lat="44.00662" lon="1.34167">
        <ele>81.6</ele>
        <time>2017-05-05T10:13:45Z</time>
      </trkpt>
      <trkpt lat="44.00671" lon="1.3417">
        <ele>81.1</ele>
        <time>2017-05-05T10:13:49Z</time>
      </trkpt>
      <trkpt lat="44.00681" lon="1.34172">
        <ele>81.1</ele>
        <time>2017-05-05T10:13:52Z</time>
      </trkpt>
      <trkpt lat="44.00692" lon="1.34174">
        <ele>81</ele>
        <time>2017-05-05T10:13:55Z</time>
      </trkpt>
      <trkpt lat="44.007" lon="1.34174">
        <ele>82</ele>
        <time>2017-05-05T10:13:57Z</time>
      </trkpt>
      <trkpt lat="44.00708" lon="1.34176">
        <ele>82.8</ele>
        <time>2017-05-05T10:13:59Z</time>
      </trkpt>
      <trkpt lat="44.00714" lon="1.34184">
        <ele>84</ele>
        <time>2017-05-05T10:14:03Z</time>
      </trkpt>
      <trkpt lat="44.00716" lon="1.34194">
        <ele>84.8</ele>
        <time>2017-05-05T10:14:08Z</time>
      </trkpt>
      <trkpt lat="44.00713" lon="1.34206">
        <ele>85.6</ele>
        <time>2017-05-05T10:14:12Z</time>
      </trkpt>
      <trkpt lat="44.00714" lon="1.34217">
        <ele>87</ele>
        <time>2017-05-05T10:14:15Z</time>
      </trkpt>
      <trkpt lat="44.00719" lon="1.34224">
        <ele>88</ele>
        <time>2017-05-05T10:14:19Z</time>
      </trkpt>
      <trkpt lat="44.00724" lon="1.34215">
        <ele>88.6</ele>
        <time>2017-05-05T10:14:22Z</time>
      </trkpt>
      <trkpt lat="44.00728" lon="1.34206">
        <ele>89</ele>
        <time>2017-05-05T10:14:25Z</time>
      </trkpt>
      <trkpt lat="44.00738" lon="1.34204">
        <ele>88.9</ele>
        <time>2017-05-05T10:14:28Z</time>
      </trkpt>
      <trkpt lat="44.00747" lon="1.34206">
        <ele>89</ele>
        <time>2017-05-05T10:14:31Z</time>
      </trkpt>
      <trkpt lat="44.00757" lon="1.34208">
        <ele>89.1</ele>
        <time>2017-05-05T10:14:34Z</time>
      </trkpt>
      <trkpt lat="44.00768" lon="1.34211">
        <ele>88.8</ele>
        <time>2017-05-05T10:14:37Z</time>
      </trkpt>
      <trkpt lat="44.00777" lon="1.34215">
        <ele>88.3</ele>
        <time>2017-05-05T10:14:39Z</time>
      </trkpt>
      <trkpt lat="44.00785" lon="1.34219">
        <ele>88.1</ele>
        <time>2017-05-05T10:14:41Z</time>
      </trkpt>
      <trkpt lat="44.00794" lon="1.34224">
        <ele>87.8</ele>
        <time>2017-05-05T10:14:43Z</time>
      </trkpt>
      <trkpt lat="44.00803" lon="1.34228">
        <ele>87.6</ele>
        <time>2017-05-05T10:14:45Z</time>
      </trkpt>
      <trkpt lat="44.00812" lon="1.34232">
        <ele>87.3</ele>
        <time>2017-05-05T10:14:47Z</time>
      </trkpt>
      <trkpt lat="44.0082" lon="1.34236">
        <ele>86.8</ele>
        <time>2017-05-05T10:14:49Z</time>
      </trkpt>
      <trkpt lat="44.00829" lon="1.3424">
        <ele>86.3</ele>
        <time>2017-05-05T10:14:51Z</time>
      </trkpt>
      <trkpt lat="44.00837" lon="1.34242">
        <ele>85.7</ele>
        <time>2017-05-05T10:14:53Z</time>
      </trkpt>
      <trkpt lat="44.00842" lon="1.34253">
        <ele>83.8</ele>
        <time>2017-05-05T10:14:57Z</time>
      </trkpt>
      <trkpt lat="44.0084" lon="1.34266">
        <ele>83.1</ele>
        <time>2017-05-05T10:15:01Z</time>
      </trkpt>
      <trkpt lat="44.0084" lon="1.34277">
        <ele>82.5</ele>
        <time>2017-05-05T10:15:08Z</time>
      </trkpt>
      <trkpt lat="44.00838" lon="1.34288">
        <ele>82.2</ele>
        <time>2017-05-05T10:15:10Z</time>
      </trkpt>
      <trkpt lat="44.00831" lon="1.34301">
        <ele>81.9</ele>
        <time>2017-05-05T10:15:13Z</time>
      </trkpt>
      <trkpt lat="44.00828" lon="1.34311">
        <ele>81.7</ele>
        <time>2017-05-05T10:15:17Z</time>
      </trkpt>
      <trkpt lat="44.00826" lon="1.34321">
        <ele>81.2</ele>
        <time>2017-05-05T10:15:22Z</time>
      </trkpt>
      <trkpt lat="44.00826" lon="1.34333">
        <ele>80.7</ele>
        <time>2017-05-05T10:15:24Z</time>
      </trkpt>
      <trkpt lat="44.00828" lon="1.34342">
        <ele>80.1</ele>
        <time>2017-05-05T10:15:28Z</time>
      </trkpt>
      <trkpt lat="44.00834" lon="1.3435">
        <ele>80</ele>
        <time>2017-05-05T10:15:32Z</time>
      </trkpt>
      <trkpt lat="44.00841" lon="1.34359">
        <ele>81.2</ele>
        <time>2017-05-05T10:15:35Z</time>
      </trkpt>
      <trkpt lat="44.00849" lon="1.34364">
        <ele>82</ele>
        <time>2017-05-05T10:15:37Z</time>
      </trkpt>
      <trkpt lat="44.00855" lon="1.3437">
        <ele>83.6</ele>
        <time>2017-05-05T10:15:39Z</time>
      </trkpt>
      <trkpt lat="44.00864" lon="1.34377">
        <ele>85.2</ele>
        <time>2017-05-05T10:15:42Z</time>
      </trkpt>
      <trkpt lat="44.00871" lon="1.34381">
        <ele>85.8</ele>
        <time>2017-05-05T10:15:44Z</time>
      </trkpt>
      <trkpt lat="44.00878" lon="1.34385">
        <ele>86.2</ele>
        <time>2017-05-05T10:15:46Z</time>
      </trkpt>
      <trkpt lat="44.00887" lon="1.3439">
        <ele>86.3</ele>
        <time>2017-05-05T10:15:48Z</time>
      </trkpt>
      <trkpt lat="44.00896" lon="1.34396">
        <ele>86.5</ele>
        <time>2017-05-05T10:15:50Z</time>
      </trkpt>
      <trkpt lat="44.00905" lon="1.34402">
        <ele>86.7</ele>
        <time>2017-05-05T10:15:52Z</time>
      </trkpt>
      <trkpt lat="44.00913" lon="1.34406">
        <ele>87.1</ele>
        <time>2017-05-05T10:15:54Z</time>
      </trkpt>
      <trkpt lat="44.00921" lon="1.34411">
        <ele>87.3</ele>
        <time>2017-05-05T10:15:56Z</time>
      </trkpt>
      <trkpt lat="44.00931" lon="1.34416">
        <ele>87.4</ele>
        <time>2017-05-05T10:15:58Z</time>
      </trkpt>
      <trkpt lat="44.00941" lon="1.3442">
        <ele>87.7</ele>
        <time>2017-05-05T10:16:00Z</time>
      </trkpt>
      <trkpt lat="44.0095" lon="1.34425">
        <ele>87.7</ele>
        <time>2017-05-05T10:16:02Z</time>
      </trkpt>
      <trkpt lat="44.00959" lon="1.3443">
        <ele>87.6</ele>
        <time>2017-05-05T10:16:04Z</time>
      </trkpt>
      <trkpt lat="44.0097" lon="1.34436">
        <ele>87.6</ele>
        <time>2017-05-05T10:16:06Z</time>
      </trkpt>
      <trkpt lat="44.0098" lon="1.34441">
        <ele>87.4</ele>
        <time>2017-05-05T10:16:08Z</time>
      </trkpt>
      <trkpt lat="44.00989" lon="1.34445">
        <ele>87.3</ele>
        <time>2017-05-05T10:16:10Z</time>
      </trkpt>
      <trkpt lat="44.00999" lon="1.34451">
        <ele>87.3</ele>
        <time>2017-05-05T10:16:12Z</time>
      </trkpt>
      <trkpt lat="44.01008" lon="1.34457">
        <ele>87</ele>
        <time>2017-05-05T10:16:14Z</time>
      </trkpt>
      <trkpt lat="44.01017" lon="1.34464">
        <ele>87.2</ele>
        <time>2017-05-05T10:16:16Z</time>
      </trkpt>
      <trkpt lat="44.01025" lon="1.34471">
        <ele>88.4</ele>
        <time>2017-05-05T10:16:18Z</time>
      </trkpt>
      <trkpt lat="44.01034" lon="1.34477">
        <ele>88.9</ele>
        <time>2017-05-05T10:16:20Z</time>
      </trkpt>
      <trkpt lat="44.01042" lon="1.34485">
        <ele>90</ele>
        <time>2017-05-05T10:16:22Z</time>
      </trkpt>
      <trkpt lat="44.01052" lon="1.34491">
        <ele>90.4</ele>
        <time>2017-05-05T10:16:24Z</time>
      </trkpt>
      <trkpt lat="44.01061" lon="1.34497">
        <ele>90.2</ele>
        <time>2017-05-05T10:16:26Z</time>
      </trkpt>
      <trkpt lat="44.0107" lon="1.34501">
        <ele>90</ele>
        <time>2017-05-05T10:16:28Z</time>
      </trkpt>
      <trkpt lat="44.01079" lon="1.34507">
        <ele>90.8</ele>
        <time>2017-05-05T10:16:30Z</time>
      </trkpt>
      <trkpt lat="44.01087" lon="1.34515">
        <ele>91.5</ele>
        <time>2017-05-05T10:16:32Z</time>
      </trkpt>
      <trkpt lat="44.01095" lon="1.3452">
        <ele>91.5</ele>
        <time>2017-05-05T10:16:34Z</time>
      </trkpt>
      <trkpt lat="44.01103" lon="1.34525">
        <ele>91.3</ele>
        <time>2017-05-05T10:16:36Z</time>
      </trkpt>
      <trkpt lat="44.01111" lon="1.34531">
        <ele>91.5</ele>
        <time>2017-05-05T10:16:38Z</time>
      </trkpt>
      <trkpt lat="44.0112" lon="1.34535">
        <ele>92.3</ele>
        <time>2017-05-05T10:16:40Z</time>
      </trkpt>
      <trkpt lat="44.01129" lon="1.3454">
        <ele>92.8</ele>
        <time>2017-05-05T10:16:42Z</time>
      </trkpt>
      <trkpt lat="44.01138" lon="1.34546">
        <ele>93.1</ele>
        <time>2017-05-05T10:16:44Z</time>
      </trkpt>
      <trkpt lat="44.01148" lon="1.34552">
        <ele>93.6</ele>
        <time>2017-05-05T10:16:46Z</time>
      </trkpt>
      <trkpt lat="44.01156" lon="1.34559">
        <ele>94</ele>
        <time>2017-05-05T10:16:48Z</time>
      </trkpt>
      <trkpt lat="44.01166" lon="1.34565">
        <ele>94.2</ele>
        <time>2017-05-05T10:16:50Z</time>
      </trkpt>
      <trkpt lat="44.01177" lon="1.34571">
        <ele>94.3</ele>
        <time>2017-05-05T10:16:52Z</time>
      </trkpt>
      <trkpt lat="44.01184" lon="1.34577">
        <ele>95.2</ele>
        <time>2017-05-05T10:16:54Z</time>
      </trkpt>
      <trkpt lat="44.01192" lon="1.34581">
        <ele>95.6</ele>
        <time>2017-05-05T10:16:56Z</time>
      </trkpt>
      <trkpt lat="44.01202" lon="1.34586">
        <ele>95</ele>
        <time>2017-05-05T10:16:58Z</time>
      </trkpt>
      <trkpt lat="44.01213" lon="1.34591">
        <ele>94.8</ele>
        <time>2017-05-05T10:17:00Z</time>
      </trkpt>
      <trkpt lat="44.01221" lon="1.34595">
        <ele>94.9</ele>
        <time>2017-05-05T10:17:02Z</time>
      </trkpt>
      <trkpt lat="44.01228" lon="1.34598">
        <ele>94.9</ele>
        <time>2017-05-05T10:17:04Z</time>
      </trkpt>
      <trkpt lat="44.01236" lon="1.34602">
        <ele>95.1</ele>
        <time>2017-05-05T10:17:07Z</time>
      </trkpt>
      <trkpt lat="44.01242" lon="1.3461">
        <ele>95.4</ele>
        <time>2017-05-05T10:17:12Z</time>
      </trkpt>
      <trkpt lat="44.01249" lon="1.34615">
        <ele>96.5</ele>
        <time>2017-05-05T10:17:18Z</time>
      </trkpt>
      <trkpt lat="44.01254" lon="1.34623">
        <ele>97.1</ele>
        <time>2017-05-05T10:17:22Z</time>
      </trkpt>
      <trkpt lat="44.01262" lon="1.34619">
        <ele>96.9</ele>
        <time>2017-05-05T10:17:26Z</time>
      </trkpt>
      <trkpt lat="44.01268" lon="1.34611">
        <ele>95.8</ele>
        <time>2017-05-05T10:17:29Z</time>
      </trkpt>
      <trkpt lat="44.0127" lon="1.34602">
        <ele>95.8</ele>
        <time>2017-05-05T10:17:31Z</time>
      </trkpt>
      <trkpt lat="44.01278" lon="1.34591">
        <ele>94.6</ele>
        <time>2017-05-05T10:17:34Z</time>
      </trkpt>
      <trkpt lat="44.01282" lon="1.34579">
        <ele>94.3</ele>
        <time>2017-05-05T10:17:36Z</time>
      </trkpt>
      <trkpt lat="44.01285" lon="1.34567">
        <ele>94.1</ele>
        <time>2017-05-05T10:17:38Z</time>
      </trkpt>
      <trkpt lat="44.01288" lon="1.34553">
        <ele>94</ele>
        <time>2017-05-05T10:17:40Z</time>
      </trkpt>
      <trkpt lat="44.01292" lon="1.34538">
        <ele>93.9</ele>
        <time>2017-05-05T10:17:42Z</time>
      </trkpt>
      <trkpt lat="44.01295" lon="1.34523">
        <ele>93.1</ele>
        <time>2017-05-05T10:17:44Z</time>
      </trkpt>
      <trkpt lat="44.01299" lon="1.34508">
        <ele>92.4</ele>
        <time>2017-05-05T10:17:46Z</time>
      </trkpt>
      <trkpt lat="44.01303" lon="1.34491">
        <ele>91.8</ele>
        <time>2017-05-05T10:17:48Z</time>
      </trkpt>
      <trkpt lat="44.01307" lon="1.34475">
        <ele>91.1</ele>
        <time>2017-05-05T10:17:50Z</time>
      </trkpt>
      <trkpt lat="44.01313" lon="1.34458">
        <ele>91.4</ele>
        <time>2017-05-05T10:17:52Z</time>
      </trkpt>
      <trkpt lat="44.01316" lon="1.34441">
        <ele>90.9</ele>
        <time>2017-05-05T10:17:54Z</time>
      </trkpt>
      <trkpt lat="44.0132" lon="1.34423">
        <ele>89.7</ele>
        <time>2017-05-05T10:17:56Z</time>
      </trkpt>
      <trkpt lat="44.01324" lon="1.34406">
        <ele>89</ele>
        <time>2017-05-05T10:17:58Z</time>
      </trkpt>
      <trkpt lat="44.01328" lon="1.34389">
        <ele>88.3</ele>
        <time>2017-05-05T10:18:00Z</time>
      </trkpt>
      <trkpt lat="44.01332" lon="1.34372">
        <ele>88</ele>
        <time>2017-05-05T10:18:02Z</time>
      </trkpt>
      <trkpt lat="44.01336" lon="1.34356">
        <ele>87.7</ele>
        <time>2017-05-05T10:18:04Z</time>
      </trkpt>
      <trkpt lat="44.0134" lon="1.3434">
        <ele>87.5</ele>
        <time>2017-05-05T10:18:06Z</time>
      </trkpt>
      <trkpt lat="44.01343" lon="1.34324">
        <ele>87.3</ele>
        <time>2017-05-05T10:18:08Z</time>
      </trkpt>
      <trkpt lat="44.01348" lon="1.34308">
        <ele>88</ele>
        <time>2017-05-05T10:18:10Z</time>
      </trkpt>
      <trkpt lat="44.01353" lon="1.34293">
        <ele>88.3</ele>
        <time>2017-05-05T10:18:12Z</time>
      </trkpt>
      <trkpt lat="44.01363" lon="1.34283">
        <ele>88.2</ele>
        <time>2017-05-05T10:18:14Z</time>
      </trkpt>
      <trkpt lat="44.01374" lon="1.34273">
        <ele>88</ele>
        <time>2017-05-05T10:18:16Z</time>
      </trkpt>
      <trkpt lat="44.01384" lon="1.34264">
        <ele>87.9</ele>
        <time>2017-05-05T10:18:19Z</time>
      </trkpt>
      <trkpt lat="44.01393" lon="1.34255">
        <ele>87.5</ele>
        <time>2017-05-05T10:18:20Z</time>
      </trkpt>
      <trkpt lat="44.01401" lon="1.34246">
        <ele>87.1</ele>
        <time>2017-05-05T10:18:22Z</time>
      </trkpt>
      <trkpt lat="44.01411" lon="1.34238">
        <ele>86.9</ele>
        <time>2017-05-05T10:18:24Z</time>
      </trkpt>
      <trkpt lat="44.01419" lon="1.34228">
        <ele>86.2</ele>
        <time>2017-05-05T10:18:26Z</time>
      </trkpt>
      <trkpt lat="44.01426" lon="1.3422">
        <ele>85.9</ele>
        <time>2017-05-05T10:18:28Z</time>
      </trkpt>
      <trkpt lat="44.01432" lon="1.34212">
        <ele>85.7</ele>
        <time>2017-05-05T10:18:30Z</time>
      </trkpt>
      <trkpt lat="44.01433" lon="1.34199">
        <ele>85.1</ele>
        <time>2017-05-05T10:18:33Z</time>
      </trkpt>
      <trkpt lat="44.01427" lon="1.3419">
        <ele>85.2</ele>
        <time>2017-05-05T10:18:36Z</time>
      </trkpt>
      <trkpt lat="44.01424" lon="1.3418">
        <ele>86.4</ele>
        <time>2017-05-05T10:18:39Z</time>
      </trkpt>
      <trkpt lat="44.01424" lon="1.3417">
        <ele>87</ele>
        <time>2017-05-05T10:18:43Z</time>
      </trkpt>
      <trkpt lat="44.01417" lon="1.34174">
        <ele>88.2</ele>
        <time>2017-05-05T10:18:50Z</time>
      </trkpt>
      <trkpt lat="44.01425" lon="1.34165">
        <ele>89.2</ele>
        <time>2017-05-05T10:18:55Z</time>
      </trkpt>
      <trkpt lat="44.01433" lon="1.34159">
        <ele>89.9</ele>
        <time>2017-05-05T10:18:58Z</time>
      </trkpt>
      <trkpt lat="44.0144" lon="1.34157">
        <ele>91.1</ele>
        <time>2017-05-05T10:19:03Z</time>
      </trkpt>
      <trkpt lat="44.01432" lon="1.34157">
        <ele>95.4</ele>
        <time>2017-05-05T10:19:17Z</time>
      </trkpt>
      <trkpt lat="44.01432" lon="1.34159">
        <ele>96.4</ele>
        <time>2017-05-05T10:19:24Z</time>
      </trkpt>
      <trkpt lat="44.01436" lon="1.34155">
        <ele>95.9</ele>
        <time>2017-05-05T10:18:54Z</time>
      </trkpt>
      <trkpt lat="44.01441" lon="1.34165">
        <ele>94.9</ele>
        <time>2017-05-05T10:20:03Z</time>
      </trkpt>
      <trkpt lat="44.0144" lon="1.34166">
        <ele>95</ele>
        <time>2017-05-05T10:20:10Z</time>
      </trkpt>
      <trkpt lat="44.01438" lon="1.34178">
        <ele>94.4</ele>
        <time>2017-05-05T10:20:36Z</time>
      </trkpt>
      <trkpt lat="44.01432" lon="1.34187">
        <ele>93.8</ele>
        <time>2017-05-05T10:20:40Z</time>
      </trkpt>
      <trkpt lat="44.01431" lon="1.342">
        <ele>92.5</ele>
        <time>2017-05-05T10:20:44Z</time>
      </trkpt>
      <trkpt lat="44.01434" lon="1.34209">
        <ele>91.1</ele>
        <time>2017-05-05T10:20:47Z</time>
      </trkpt>
      <trkpt lat="44.01434" lon="1.34219">
        <ele>90</ele>
        <time>2017-05-05T10:20:51Z</time>
      </trkpt>
      <trkpt lat="44.01428" lon="1.34225">
        <ele>89.1</ele>
        <time>2017-05-05T10:20:54Z</time>
      </trkpt>
      <trkpt lat="44.0142" lon="1.34232">
        <ele>88.2</ele>
        <time>2017-05-05T10:20:57Z</time>
      </trkpt>
      <trkpt lat="44.01413" lon="1.34238">
        <ele>87.7</ele>
        <time>2017-05-05T10:20:59Z</time>
      </trkpt>
      <trkpt lat="44.01408" lon="1.34244">
        <ele>87.6</ele>
        <time>2017-05-05T10:21:01Z</time>
      </trkpt>
      <trkpt lat="44.01401" lon="1.3425">
        <ele>87.4</ele>
        <time>2017-05-05T10:21:03Z</time>
      </trkpt>
      <trkpt lat="44.01394" lon="1.34256">
        <ele>87.4</ele>
        <time>2017-05-05T10:21:05Z</time>
      </trkpt>
      <trkpt lat="44.01387" lon="1.34263">
        <ele>87.3</ele>
        <time>2017-05-05T10:21:07Z</time>
      </trkpt>
      <trkpt lat="44.0138" lon="1.34269">
        <ele>86.9</ele>
        <time>2017-05-05T10:21:09Z</time>
      </trkpt>
      <trkpt lat="44.01373" lon="1.34275">
        <ele>86.5</ele>
        <time>2017-05-05T10:21:11Z</time>
      </trkpt>
      <trkpt lat="44.01365" lon="1.34283">
        <ele>86.3</ele>
        <time>2017-05-05T10:21:13Z</time>
      </trkpt>
      <trkpt lat="44.01357" lon="1.34289">
        <ele>86.6</ele>
        <time>2017-05-05T10:21:15Z</time>
      </trkpt>
      <trkpt lat="44.01351" lon="1.34296">
        <ele>86.6</ele>
        <time>2017-05-05T10:21:17Z</time>
      </trkpt>
      <trkpt lat="44.01346" lon="1.34306">
        <ele>86.5</ele>
        <time>2017-05-05T10:21:19Z</time>
      </trkpt>
      <trkpt lat="44.01343" lon="1.34319">
        <ele>86.6</ele>
        <time>2017-05-05T10:21:21Z</time>
      </trkpt>
      <trkpt lat="44.01339" lon="1.34332">
        <ele>86.6</ele>
        <time>2017-05-05T10:21:23Z</time>
      </trkpt>
      <trkpt lat="44.01337" lon="1.34345">
        <ele>87.4</ele>
        <time>2017-05-05T10:21:25Z</time>
      </trkpt>
      <trkpt lat="44.01334" lon="1.34358">
        <ele>87.2</ele>
        <time>2017-05-05T10:21:27Z</time>
      </trkpt>
      <trkpt lat="44.0133" lon="1.34371">
        <ele>87.3</ele>
        <time>2017-05-05T10:21:30Z</time>
      </trkpt>
      <trkpt lat="44.01327" lon="1.34385">
        <ele>87.2</ele>
        <time>2017-05-05T10:21:31Z</time>
      </trkpt>
      <trkpt lat="44.01325" lon="1.34398">
        <ele>86.9</ele>
        <time>2017-05-05T10:21:33Z</time>
      </trkpt>
      <trkpt lat="44.01322" lon="1.34411">
        <ele>87</ele>
        <time>2017-05-05T10:21:35Z</time>
      </trkpt>
      <trkpt lat="44.01319" lon="1.34425">
        <ele>86.7</ele>
        <time>2017-05-05T10:21:37Z</time>
      </trkpt>
      <trkpt lat="44.01315" lon="1.34437">
        <ele>86.4</ele>
        <time>2017-05-05T10:21:39Z</time>
      </trkpt>
      <trkpt lat="44.01312" lon="1.3445">
        <ele>86.1</ele>
        <time>2017-05-05T10:21:41Z</time>
      </trkpt>
      <trkpt lat="44.01309" lon="1.34463">
        <ele>86</ele>
        <time>2017-05-05T10:21:43Z</time>
      </trkpt>
      <trkpt lat="44.01306" lon="1.34476">
        <ele>85.6</ele>
        <time>2017-05-05T10:21:45Z</time>
      </trkpt>
      <trkpt lat="44.01303" lon="1.34488">
        <ele>85.6</ele>
        <time>2017-05-05T10:21:47Z</time>
      </trkpt>
      <trkpt lat="44.01301" lon="1.34501">
        <ele>85.4</ele>
        <time>2017-05-05T10:21:49Z</time>
      </trkpt>
      <trkpt lat="44.01298" lon="1.34512">
        <ele>85.2</ele>
        <time>2017-05-05T10:21:51Z</time>
      </trkpt>
      <trkpt lat="44.01296" lon="1.34525">
        <ele>85</ele>
        <time>2017-05-05T10:21:53Z</time>
      </trkpt>
      <trkpt lat="44.01293" lon="1.34538">
        <ele>84.9</ele>
        <time>2017-05-05T10:21:55Z</time>
      </trkpt>
      <trkpt lat="44.01291" lon="1.34551">
        <ele>85.3</ele>
        <time>2017-05-05T10:21:57Z</time>
      </trkpt>
      <trkpt lat="44.01288" lon="1.34562">
        <ele>85.5</ele>
        <time>2017-05-05T10:21:59Z</time>
      </trkpt>
      <trkpt lat="44.01285" lon="1.34574">
        <ele>85.2</ele>
        <time>2017-05-05T10:22:01Z</time>
      </trkpt>
      <trkpt lat="44.01282" lon="1.34586">
        <ele>84.7</ele>
        <time>2017-05-05T10:22:03Z</time>
      </trkpt>
      <trkpt lat="44.01278" lon="1.34598">
        <ele>84.1</ele>
        <time>2017-05-05T10:22:05Z</time>
      </trkpt>
      <trkpt lat="44.01276" lon="1.34611">
        <ele>84</ele>
        <time>2017-05-05T10:22:07Z</time>
      </trkpt>
      <trkpt lat="44.01269" lon="1.34619">
        <ele>83.9</ele>
        <time>2017-05-05T10:22:09Z</time>
      </trkpt>
      <trkpt lat="44.01256" lon="1.34618">
        <ele>83.5</ele>
        <time>2017-05-05T10:22:11Z</time>
      </trkpt>
      <trkpt lat="44.01244" lon="1.34613">
        <ele>83.5</ele>
        <time>2017-05-05T10:22:13Z</time>
      </trkpt>
      <trkpt lat="44.01232" lon="1.34607">
        <ele>84</ele>
        <time>2017-05-05T10:22:15Z</time>
      </trkpt>
      <trkpt lat="44.01223" lon="1.346">
        <ele>84.4</ele>
        <time>2017-05-05T10:22:17Z</time>
      </trkpt>
      <trkpt lat="44.01212" lon="1.34595">
        <ele>85.1</ele>
        <time>2017-05-05T10:22:19Z</time>
      </trkpt>
      <trkpt lat="44.01201" lon="1.3459">
        <ele>85.7</ele>
        <time>2017-05-05T10:22:21Z</time>
      </trkpt>
      <trkpt lat="44.0119" lon="1.34585">
        <ele>86</ele>
        <time>2017-05-05T10:22:23Z</time>
      </trkpt>
      <trkpt lat="44.01179" lon="1.34577">
        <ele>86.8</ele>
        <time>2017-05-05T10:22:25Z</time>
      </trkpt>
      <trkpt lat="44.01167" lon="1.34569">
        <ele>87</ele>
        <time>2017-05-05T10:22:27Z</time>
      </trkpt>
      <trkpt lat="44.01155" lon="1.34562">
        <ele>87.1</ele>
        <time>2017-05-05T10:22:29Z</time>
      </trkpt>
      <trkpt lat="44.01142" lon="1.34555">
        <ele>87.4</ele>
        <time>2017-05-05T10:22:31Z</time>
      </trkpt>
      <trkpt lat="44.01135" lon="1.34551">
        <ele>87.4</ele>
        <time>2017-05-05T10:22:32Z</time>
      </trkpt>
      <trkpt lat="44.01128" lon="1.34546">
        <ele>87.6</ele>
        <time>2017-05-05T10:22:33Z</time>
      </trkpt>
      <trkpt lat="44.0112" lon="1.34541">
        <ele>87.8</ele>
        <time>2017-05-05T10:22:34Z</time>
      </trkpt>
      <trkpt lat="44.01112" lon="1.34537">
        <ele>87.9</ele>
        <time>2017-05-05T10:22:35Z</time>
      </trkpt>
      <trkpt lat="44.01105" lon="1.34532">
        <ele>88.1</ele>
        <time>2017-05-05T10:22:36Z</time>
      </trkpt>
      <trkpt lat="44.01098" lon="1.34528">
        <ele>88.3</ele>
        <time>2017-05-05T10:22:37Z</time>
      </trkpt>
      <trkpt lat="44.01091" lon="1.34523">
        <ele>88.5</ele>
        <time>2017-05-05T10:22:38Z</time>
      </trkpt>
      <trkpt lat="44.01083" lon="1.34519">
        <ele>88.9</ele>
        <time>2017-05-05T10:22:39Z</time>
      </trkpt>
      <trkpt lat="44.01076" lon="1.34514">
        <ele>89.3</ele>
        <time>2017-05-05T10:22:40Z</time>
      </trkpt>
      <trkpt lat="44.01069" lon="1.3451">
        <ele>89.3</ele>
        <time>2017-05-05T10:22:41Z</time>
      </trkpt>
      <trkpt lat="44.01063" lon="1.34504">
        <ele>89.3</ele>
        <time>2017-05-05T10:22:42Z</time>
      </trkpt>
      <trkpt lat="44.01057" lon="1.34498">
        <ele>89.4</ele>
        <time>2017-05-05T10:22:43Z</time>
      </trkpt>
      <trkpt lat="44.0105" lon="1.34494">
        <ele>89.4</ele>
        <time>2017-05-05T10:22:44Z</time>
      </trkpt>
      <trkpt lat="44.01042" lon="1.3449">
        <ele>89.6</ele>
        <time>2017-05-05T10:22:45Z</time>
      </trkpt>
      <trkpt lat="44.01035" lon="1.34486">
        <ele>89.7</ele>
        <time>2017-05-05T10:22:46Z</time>
      </trkpt>
      <trkpt lat="44.01029" lon="1.34482">
        <ele>89.9</ele>
        <time>2017-05-05T10:22:47Z</time>
      </trkpt>
      <trkpt lat="44.01023" lon="1.34478">
        <ele>90</ele>
        <time>2017-05-05T10:22:48Z</time>
      </trkpt>
      <trkpt lat="44.01016" lon="1.34474">
        <ele>90.1</ele>
        <time>2017-05-05T10:22:49Z</time>
      </trkpt>
      <trkpt lat="44.01002" lon="1.34466">
        <ele>90.1</ele>
        <time>2017-05-05T10:22:51Z</time>
      </trkpt>
      <trkpt lat="44.00996" lon="1.34463">
        <ele>90.3</ele>
        <time>2017-05-05T10:22:52Z</time>
      </trkpt>
      <trkpt lat="44.00988" lon="1.34459">
        <ele>90.5</ele>
        <time>2017-05-05T10:22:53Z</time>
      </trkpt>
      <trkpt lat="44.00981" lon="1.34456">
        <ele>90.8</ele>
        <time>2017-05-05T10:22:54Z</time>
      </trkpt>
      <trkpt lat="44.00974" lon="1.34452">
        <ele>91.1</ele>
        <time>2017-05-05T10:22:55Z</time>
      </trkpt>
      <trkpt lat="44.00966" lon="1.34448">
        <ele>91.3</ele>
        <time>2017-05-05T10:22:56Z</time>
      </trkpt>
      <trkpt lat="44.00954" lon="1.34441">
        <ele>91.8</ele>
        <time>2017-05-05T10:22:58Z</time>
      </trkpt>
      <trkpt lat="44.0094" lon="1.34435">
        <ele>92.4</ele>
        <time>2017-05-05T10:23:00Z</time>
      </trkpt>
      <trkpt lat="44.00928" lon="1.34427">
        <ele>92.8</ele>
        <time>2017-05-05T10:23:02Z</time>
      </trkpt>
      <trkpt lat="44.00915" lon="1.3442">
        <ele>93.1</ele>
        <time>2017-05-05T10:23:04Z</time>
      </trkpt>
      <trkpt lat="44.00905" lon="1.34412">
        <ele>93.5</ele>
        <time>2017-05-05T10:23:06Z</time>
      </trkpt>
      <trkpt lat="44.00894" lon="1.34405">
        <ele>93.1</ele>
        <time>2017-05-05T10:23:08Z</time>
      </trkpt>
      <trkpt lat="44.00883" lon="1.34398">
        <ele>92.9</ele>
        <time>2017-05-05T10:23:10Z</time>
      </trkpt>
      <trkpt lat="44.00876" lon="1.34392">
        <ele>92.6</ele>
        <time>2017-05-05T10:23:13Z</time>
      </trkpt>
      <trkpt lat="44.00868" lon="1.34387">
        <ele>92.5</ele>
        <time>2017-05-05T10:23:14Z</time>
      </trkpt>
      <trkpt lat="44.0086" lon="1.34382">
        <ele>93.4</ele>
        <time>2017-05-05T10:23:16Z</time>
      </trkpt>
      <trkpt lat="44.0085" lon="1.34376">
        <ele>93.2</ele>
        <time>2017-05-05T10:23:18Z</time>
      </trkpt>
      <trkpt lat="44.00838" lon="1.34371">
        <ele>93.2</ele>
        <time>2017-05-05T10:23:20Z</time>
      </trkpt>
      <trkpt lat="44.00828" lon="1.34365">
        <ele>93.1</ele>
        <time>2017-05-05T10:23:22Z</time>
      </trkpt>
      <trkpt lat="44.00817" lon="1.34359">
        <ele>93</ele>
        <time>2017-05-05T10:23:24Z</time>
      </trkpt>
      <trkpt lat="44.00807" lon="1.34352">
        <ele>93.1</ele>
        <time>2017-05-05T10:23:26Z</time>
      </trkpt>
      <trkpt lat="44.00796" lon="1.34346">
        <ele>93.2</ele>
        <time>2017-05-05T10:23:28Z</time>
      </trkpt>
      <trkpt lat="44.00784" lon="1.34341">
        <ele>93.8</ele>
        <time>2017-05-05T10:23:30Z</time>
      </trkpt>
      <trkpt lat="44.00775" lon="1.34335">
        <ele>93.1</ele>
        <time>2017-05-05T10:23:32Z</time>
      </trkpt>
      <trkpt lat="44.00766" lon="1.3433">
        <ele>92.7</ele>
        <time>2017-05-05T10:23:34Z</time>
      </trkpt>
      <trkpt lat="44.00757" lon="1.34325">
        <ele>93.1</ele>
        <time>2017-05-05T10:23:36Z</time>
      </trkpt>
      <trkpt lat="44.00748" lon="1.34319">
        <ele>93</ele>
        <time>2017-05-05T10:23:38Z</time>
      </trkpt>
      <trkpt lat="44.00741" lon="1.34313">
        <ele>93.4</ele>
        <time>2017-05-05T10:23:40Z</time>
      </trkpt>
      <trkpt lat="44.00734" lon="1.34308">
        <ele>93.6</ele>
        <time>2017-05-05T10:23:42Z</time>
      </trkpt>
      <trkpt lat="44.00726" lon="1.34302">
        <ele>93.8</ele>
        <time>2017-05-05T10:23:45Z</time>
      </trkpt>
      <trkpt lat="44.00731" lon="1.343">
        <ele>93.7</ele>
        <time>2017-05-05T10:23:52Z</time>
      </trkpt>
      <trkpt lat="44.00741" lon="1.34304">
        <ele>94</ele>
        <time>2017-05-05T10:23:55Z</time>
      </trkpt>
      <trkpt lat="44.00751" lon="1.34308">
        <ele>94.3</ele>
        <time>2017-05-05T10:23:58Z</time>
      </trkpt>
      <trkpt lat="44.00758" lon="1.34313">
        <ele>94.9</ele>
        <time>2017-05-05T10:24:01Z</time>
      </trkpt>
      <trkpt lat="44.00766" lon="1.34317">
        <ele>95.4</ele>
        <time>2017-05-05T10:24:05Z</time>
      </trkpt>
      <trkpt lat="44.00774" lon="1.34324">
        <ele>96.6</ele>
        <time>2017-05-05T10:24:08Z</time>
      </trkpt>
      <trkpt lat="44.00783" lon="1.34329">
        <ele>96.8</ele>
        <time>2017-05-05T10:24:10Z</time>
      </trkpt>
      <trkpt lat="44.00791" lon="1.34333">
        <ele>96.9</ele>
        <time>2017-05-05T10:24:12Z</time>
      </trkpt>
      <trkpt lat="44.008" lon="1.34338">
        <ele>97.2</ele>
        <time>2017-05-05T10:24:14Z</time>
      </trkpt>
      <trkpt lat="44.00807" lon="1.34347">
        <ele>97.1</ele>
        <time>2017-05-05T10:24:16Z</time>
      </trkpt>
      <trkpt lat="44.00814" lon="1.34352">
        <ele>97.4</ele>
        <time>2017-05-05T10:24:18Z</time>
      </trkpt>
      <trkpt lat="44.00821" lon="1.34354">
        <ele>96.7</ele>
        <time>2017-05-05T10:24:21Z</time>
      </trkpt>
      <trkpt lat="44.00824" lon="1.34342">
        <ele>95.4</ele>
        <time>2017-05-05T10:24:24Z</time>
      </trkpt>
      <trkpt lat="44.00827" lon="1.34332">
        <ele>94.5</ele>
        <time>2017-05-05T10:24:26Z</time>
      </trkpt>
      <trkpt lat="44.00829" lon="1.3432">
        <ele>93.5</ele>
        <time>2017-05-05T10:24:28Z</time>
      </trkpt>
      <trkpt lat="44.0083" lon="1.34307">
        <ele>93</ele>
        <time>2017-05-05T10:24:31Z</time>
      </trkpt>
      <trkpt lat="44.00833" lon="1.34296">
        <ele>92.6</ele>
        <time>2017-05-05T10:24:34Z</time>
      </trkpt>
      <trkpt lat="44.00837" lon="1.34283">
        <ele>92.3</ele>
        <time>2017-05-05T10:24:37Z</time>
      </trkpt>
      <trkpt lat="44.00836" lon="1.34268">
        <ele>92</ele>
        <time>2017-05-05T10:24:39Z</time>
      </trkpt>
      <trkpt lat="44.00838" lon="1.34256">
        <ele>91.2</ele>
        <time>2017-05-05T10:24:41Z</time>
      </trkpt>
      <trkpt lat="44.00834" lon="1.34246">
        <ele>89.8</ele>
        <time>2017-05-05T10:24:46Z</time>
      </trkpt>
      <trkpt lat="44.00827" lon="1.34243">
        <ele>89.7</ele>
        <time>2017-05-05T10:24:48Z</time>
      </trkpt>
      <trkpt lat="44.00818" lon="1.34242">
        <ele>91</ele>
        <time>2017-05-05T10:24:50Z</time>
      </trkpt>
      <trkpt lat="44.0081" lon="1.34238">
        <ele>91.5</ele>
        <time>2017-05-05T10:24:52Z</time>
      </trkpt>
      <trkpt lat="44.00801" lon="1.34236">
        <ele>92.5</ele>
        <time>2017-05-05T10:24:54Z</time>
      </trkpt>
      <trkpt lat="44.00792" lon="1.34232">
        <ele>93</ele>
        <time>2017-05-05T10:24:56Z</time>
      </trkpt>
      <trkpt lat="44.00784" lon="1.34229">
        <ele>93.1</ele>
        <time>2017-05-05T10:24:58Z</time>
      </trkpt>
      <trkpt lat="44.00776" lon="1.34225">
        <ele>93.1</ele>
        <time>2017-05-05T10:25:00Z</time>
      </trkpt>
      <trkpt lat="44.00767" lon="1.34221">
        <ele>92.9</ele>
        <time>2017-05-05T10:25:02Z</time>
      </trkpt>
      <trkpt lat="44.00758" lon="1.34218">
        <ele>92.9</ele>
        <time>2017-05-05T10:25:04Z</time>
      </trkpt>
      <trkpt lat="44.00749" lon="1.34215">
        <ele>92.3</ele>
        <time>2017-05-05T10:25:06Z</time>
      </trkpt>
      <trkpt lat="44.0074" lon="1.3421">
        <ele>91.6</ele>
        <time>2017-05-05T10:25:08Z</time>
      </trkpt>
      <trkpt lat="44.00731" lon="1.34204">
        <ele>91</ele>
        <time>2017-05-05T10:25:10Z</time>
      </trkpt>
      <trkpt lat="44.00724" lon="1.34197">
        <ele>90.5</ele>
        <time>2017-05-05T10:25:12Z</time>
      </trkpt>
      <trkpt lat="44.00719" lon="1.34188">
        <ele>90.2</ele>
        <time>2017-05-05T10:25:14Z</time>
      </trkpt>
      <trkpt lat="44.00719" lon="1.34178">
        <ele>89.6</ele>
        <time>2017-05-05T10:25:16Z</time>
      </trkpt>
      <trkpt lat="44.0072" lon="1.34166">
        <ele>89.3</ele>
        <time>2017-05-05T10:25:18Z</time>
      </trkpt>
      <trkpt lat="44.00723" lon="1.34155">
        <ele>89</ele>
        <time>2017-05-05T10:25:20Z</time>
      </trkpt>
      <trkpt lat="44.00726" lon="1.34144">
        <ele>89.1</ele>
        <time>2017-05-05T10:25:22Z</time>
      </trkpt>
      <trkpt lat="44.0073" lon="1.34131">
        <ele>89</ele>
        <time>2017-05-05T10:25:24Z</time>
      </trkpt>
      <trkpt lat="44.00735" lon="1.34119">
        <ele>88.7</ele>
        <time>2017-05-05T10:25:26Z</time>
      </trkpt>
      <trkpt lat="44.00739" lon="1.34106">
        <ele>87.8</ele>
        <time>2017-05-05T10:25:28Z</time>
      </trkpt>
      <trkpt lat="44.00744" lon="1.34094">
        <ele>87.3</ele>
        <time>2017-05-05T10:25:30Z</time>
      </trkpt>
      <trkpt lat="44.00749" lon="1.34082">
        <ele>86.9</ele>
        <time>2017-05-05T10:25:32Z</time>
      </trkpt>
      <trkpt lat="44.00754" lon="1.3407">
        <ele>87.6</ele>
        <time>2017-05-05T10:25:34Z</time>
      </trkpt>
      <trkpt lat="44.00759" lon="1.34057">
        <ele>87.3</ele>
        <time>2017-05-05T10:25:36Z</time>
      </trkpt>
      <trkpt lat="44.00763" lon="1.34044">
        <ele>87</ele>
        <time>2017-05-05T10:25:38Z</time>
      </trkpt>
      <trkpt lat="44.00767" lon="1.34032">
        <ele>86</ele>
        <time>2017-05-05T10:25:40Z</time>
      </trkpt>
      <trkpt lat="44.00771" lon="1.34019">
        <ele>85.4</ele>
        <time>2017-05-05T10:25:42Z</time>
      </trkpt>
      <trkpt lat="44.00775" lon="1.34006">
        <ele>85.2</ele>
        <time>2017-05-05T10:25:44Z</time>
      </trkpt>
      <trkpt lat="44.00779" lon="1.33995">
        <ele>84.5</ele>
        <time>2017-05-05T10:25:46Z</time>
      </trkpt>
      <trkpt lat="44.00784" lon="1.33985">
        <ele>84.1</ele>
        <time>2017-05-05T10:25:48Z</time>
      </trkpt>
      <trkpt lat="44.0079" lon="1.3397">
        <ele>83.8</ele>
        <time>2017-05-05T10:25:50Z</time>
      </trkpt>
      <trkpt lat="44.00795" lon="1.33957">
        <ele>83.4</ele>
        <time>2017-05-05T10:25:52Z</time>
      </trkpt>
      <trkpt lat="44.00799" lon="1.33946">
        <ele>83.9</ele>
        <time>2017-05-05T10:25:54Z</time>
      </trkpt>
      <trkpt lat="44.00803" lon="1.33934">
        <ele>83.9</ele>
        <time>2017-05-05T10:25:57Z</time>
      </trkpt>
      <trkpt lat="44.00805" lon="1.33921">
        <ele>85.2</ele>
        <time>2017-05-05T10:26:00Z</time>
      </trkpt>
      <trkpt lat="44.00809" lon="1.33906">
        <ele>85.2</ele>
        <time>2017-05-05T10:26:03Z</time>
      </trkpt>
      <trkpt lat="44.00809" lon="1.33893">
        <ele>85.1</ele>
        <time>2017-05-05T10:26:05Z</time>
      </trkpt>
      <trkpt lat="44.00806" lon="1.33876">
        <ele>85.1</ele>
        <time>2017-05-05T10:26:07Z</time>
      </trkpt>
      <trkpt lat="44.00799" lon="1.33862">
        <ele>85</ele>
        <time>2017-05-05T10:26:09Z</time>
      </trkpt>
      <trkpt lat="44.00792" lon="1.33849">
        <ele>84.7</ele>
        <time>2017-05-05T10:26:11Z</time>
      </trkpt>
      <trkpt lat="44.00785" lon="1.33835">
        <ele>84.5</ele>
        <time>2017-05-05T10:26:13Z</time>
      </trkpt>
      <trkpt lat="44.00787" lon="1.33821">
        <ele>84.3</ele>
        <time>2017-05-05T10:26:15Z</time>
      </trkpt>
      <trkpt lat="44.00791" lon="1.33807">
        <ele>83.9</ele>
        <time>2017-05-05T10:26:17Z</time>
      </trkpt>
      <trkpt lat="44.00796" lon="1.33792">
        <ele>83.8</ele>
        <time>2017-05-05T10:26:19Z</time>
      </trkpt>
      <trkpt lat="44.00798" lon="1.33776">
        <ele>84.2</ele>
        <time>2017-05-05T10:26:21Z</time>
      </trkpt>
      <trkpt lat="44.00802" lon="1.33761">
        <ele>84.4</ele>
        <time>2017-05-05T10:26:23Z</time>
      </trkpt>
      <trkpt lat="44.00806" lon="1.33744">
        <ele>84.5</ele>
        <time>2017-05-05T10:26:25Z</time>
      </trkpt>
      <trkpt lat="44.00807" lon="1.33728">
        <ele>84.7</ele>
        <time>2017-05-05T10:26:27Z</time>
      </trkpt>
      <trkpt lat="44.00809" lon="1.33711">
        <ele>84.9</ele>
        <time>2017-05-05T10:26:29Z</time>
      </trkpt>
      <trkpt lat="44.00809" lon="1.33693">
        <ele>85.2</ele>
        <time>2017-05-05T10:26:31Z</time>
      </trkpt>
      <trkpt lat="44.00808" lon="1.33677">
        <ele>85.8</ele>
        <time>2017-05-05T10:26:33Z</time>
      </trkpt>
      <trkpt lat="44.00807" lon="1.33659">
        <ele>86</ele>
        <time>2017-05-05T10:26:35Z</time>
      </trkpt>
      <trkpt lat="44.00806" lon="1.33642">
        <ele>86.7</ele>
        <time>2017-05-05T10:26:37Z</time>
      </trkpt>
      <trkpt lat="44.00804" lon="1.33626">
        <ele>86.7</ele>
        <time>2017-05-05T10:26:39Z</time>
      </trkpt>
      <trkpt lat="44.008" lon="1.3361">
        <ele>86.6</ele>
        <time>2017-05-05T10:26:41Z</time>
      </trkpt>
      <trkpt lat="44.00796" lon="1.33593">
        <ele>86.7</ele>
        <time>2017-05-05T10:26:43Z</time>
      </trkpt>
      <trkpt lat="44.00792" lon="1.33576">
        <ele>86.7</ele>
        <time>2017-05-05T10:26:45Z</time>
      </trkpt>
      <trkpt lat="44.00786" lon="1.33561">
        <ele>87.3</ele>
        <time>2017-05-05T10:26:47Z</time>
      </trkpt>
      <trkpt lat="44.00781" lon="1.33546">
        <ele>87.5</ele>
        <time>2017-05-05T10:26:49Z</time>
      </trkpt>
      <trkpt lat="44.00774" lon="1.33531">
        <ele>87.9</ele>
        <time>2017-05-05T10:26:51Z</time>
      </trkpt>
      <trkpt lat="44.00766" lon="1.33517">
        <ele>88.4</ele>
        <time>2017-05-05T10:26:53Z</time>
      </trkpt>
      <trkpt lat="44.0076" lon="1.33504">
        <ele>89</ele>
        <time>2017-05-05T10:26:55Z</time>
      </trkpt>
      <trkpt lat="44.00752" lon="1.33491">
        <ele>89.7</ele>
        <time>2017-05-05T10:26:57Z</time>
      </trkpt>
      <trkpt lat="44.00746" lon="1.33478">
        <ele>90.3</ele>
        <time>2017-05-05T10:26:59Z</time>
      </trkpt>
      <trkpt lat="44.00739" lon="1.33465">
        <ele>90.8</ele>
        <time>2017-05-05T10:27:01Z</time>
      </trkpt>
      <trkpt lat="44.00733" lon="1.33451">
        <ele>91.1</ele>
        <time>2017-05-05T10:27:03Z</time>
      </trkpt>
      <trkpt lat="44.00727" lon="1.33437">
        <ele>91</ele>
        <time>2017-05-05T10:27:05Z</time>
      </trkpt>
      <trkpt lat="44.00721" lon="1.33425">
        <ele>91.2</ele>
        <time>2017-05-05T10:27:07Z</time>
      </trkpt>
      <trkpt lat="44.00716" lon="1.33412">
        <ele>91.2</ele>
        <time>2017-05-05T10:27:09Z</time>
      </trkpt>
      <trkpt lat="44.00709" lon="1.33397">
        <ele>90.8</ele>
        <time>2017-05-05T10:27:11Z</time>
      </trkpt>
      <trkpt lat="44.00703" lon="1.33383">
        <ele>90.9</ele>
        <time>2017-05-05T10:27:13Z</time>
      </trkpt>
      <trkpt lat="44.00696" lon="1.3337">
        <ele>91.1</ele>
        <time>2017-05-05T10:27:15Z</time>
      </trkpt>
      <trkpt lat="44.0069" lon="1.33357">
        <ele>91.3</ele>
        <time>2017-05-05T10:27:17Z</time>
      </trkpt>
      <trkpt lat="44.00682" lon="1.33344">
        <ele>91.3</ele>
        <time>2017-05-05T10:27:19Z</time>
      </trkpt>
      <trkpt lat="44.00676" lon="1.33329">
        <ele>91.2</ele>
        <time>2017-05-05T10:27:21Z</time>
      </trkpt>
      <trkpt lat="44.00669" lon="1.33316">
        <ele>91.4</ele>
        <time>2017-05-05T10:27:23Z</time>
      </trkpt>
      <trkpt lat="44.00663" lon="1.33302">
        <ele>90.9</ele>
        <time>2017-05-05T10:27:25Z</time>
      </trkpt>
      <trkpt lat="44.00656" lon="1.33288">
        <ele>90.7</ele>
        <time>2017-05-05T10:27:27Z</time>
      </trkpt>
      <trkpt lat="44.0065" lon="1.33275">
        <ele>90.8</ele>
        <time>2017-05-05T10:27:29Z</time>
      </trkpt>
      <trkpt lat="44.00643" lon="1.33262">
        <ele>90.4</ele>
        <time>2017-05-05T10:27:31Z</time>
      </trkpt>
      <trkpt lat="44.00636" lon="1.33249">
        <ele>90.7</ele>
        <time>2017-05-05T10:27:33Z</time>
      </trkpt>
      <trkpt lat="44.00629" lon="1.33237">
        <ele>90.5</ele>
        <time>2017-05-05T10:27:35Z</time>
      </trkpt>
      <trkpt lat="44.00622" lon="1.33224">
        <ele>90.6</ele>
        <time>2017-05-05T10:27:37Z</time>
      </trkpt>
      <trkpt lat="44.00617" lon="1.33212">
        <ele>91.2</ele>
        <time>2017-05-05T10:27:39Z</time>
      </trkpt>
      <trkpt lat="44.00611" lon="1.332">
        <ele>91.4</ele>
        <time>2017-05-05T10:27:41Z</time>
      </trkpt>
      <trkpt lat="44.00606" lon="1.33188">
        <ele>91.7</ele>
        <time>2017-05-05T10:27:43Z</time>
      </trkpt>
      <trkpt lat="44.006" lon="1.33176">
        <ele>91.9</ele>
        <time>2017-05-05T10:27:45Z</time>
      </trkpt>
      <trkpt lat="44.00594" lon="1.33163">
        <ele>91.9</ele>
        <time>2017-05-05T10:27:47Z</time>
      </trkpt>
      <trkpt lat="44.00587" lon="1.33149">
        <ele>92.5</ele>
        <time>2017-05-05T10:27:49Z</time>
      </trkpt>
      <trkpt lat="44.00579" lon="1.33135">
        <ele>92.9</ele>
        <time>2017-05-05T10:27:51Z</time>
      </trkpt>
      <trkpt lat="44.00572" lon="1.33124">
        <ele>92.8</ele>
        <time>2017-05-05T10:27:53Z</time>
      </trkpt>
      <trkpt lat="44.00565" lon="1.33109">
        <ele>92.8</ele>
        <time>2017-05-05T10:27:55Z</time>
      </trkpt>
      <trkpt lat="44.00558" lon="1.33096">
        <ele>92.2</ele>
        <time>2017-05-05T10:27:57Z</time>
      </trkpt>
      <trkpt lat="44.00551" lon="1.33083">
        <ele>92.3</ele>
        <time>2017-05-05T10:27:59Z</time>
      </trkpt>
      <trkpt lat="44.00546" lon="1.3307">
        <ele>92.5</ele>
        <time>2017-05-05T10:28:01Z</time>
      </trkpt>
      <trkpt lat="44.0054" lon="1.33058">
        <ele>93</ele>
        <time>2017-05-05T10:28:03Z</time>
      </trkpt>
      <trkpt lat="44.00534" lon="1.33046">
        <ele>94</ele>
        <time>2017-05-05T10:28:05Z</time>
      </trkpt>
      <trkpt lat="44.00527" lon="1.33033">
        <ele>94.1</ele>
        <time>2017-05-05T10:28:07Z</time>
      </trkpt>
      <trkpt lat="44.00521" lon="1.3302">
        <ele>94.9</ele>
        <time>2017-05-05T10:28:09Z</time>
      </trkpt>
      <trkpt lat="44.00515" lon="1.33009">
        <ele>95.7</ele>
        <time>2017-05-05T10:28:11Z</time>
      </trkpt>
      <trkpt lat="44.00508" lon="1.32996">
        <ele>95.7</ele>
        <time>2017-05-05T10:28:13Z</time>
      </trkpt>
      <trkpt lat="44.00503" lon="1.32984">
        <ele>96.1</ele>
        <time>2017-05-05T10:28:15Z</time>
      </trkpt>
      <trkpt lat="44.00496" lon="1.32972">
        <ele>96.5</ele>
        <time>2017-05-05T10:28:17Z</time>
      </trkpt>
      <trkpt lat="44.0049" lon="1.32958">
        <ele>96.4</ele>
        <time>2017-05-05T10:28:19Z</time>
      </trkpt>
      <trkpt lat="44.00484" lon="1.32945">
        <ele>96.6</ele>
        <time>2017-05-05T10:28:21Z</time>
      </trkpt>
      <trkpt lat="44.0048" lon="1.3293">
        <ele>96.4</ele>
        <time>2017-05-05T10:28:23Z</time>
      </trkpt>
      <trkpt lat="44.00473" lon="1.32916">
        <ele>96.6</ele>
        <time>2017-05-05T10:28:25Z</time>
      </trkpt>
      <trkpt lat="44.00468" lon="1.32906">
        <ele>96.8</ele>
        <time>2017-05-05T10:28:27Z</time>
      </trkpt>
      <trkpt lat="44.00461" lon="1.32894">
        <ele>97.5</ele>
        <time>2017-05-05T10:28:29Z</time>
      </trkpt>
      <trkpt lat="44.00455" lon="1.32881">
        <ele>97.9</ele>
        <time>2017-05-05T10:28:31Z</time>
      </trkpt>
      <trkpt lat="44.00448" lon="1.32868">
        <ele>98.3</ele>
        <time>2017-05-05T10:28:33Z</time>
      </trkpt>
      <trkpt lat="44.00441" lon="1.32857">
        <ele>98.8</ele>
        <time>2017-05-05T10:28:35Z</time>
      </trkpt>
      <trkpt lat="44.00434" lon="1.32844">
        <ele>99.6</ele>
        <time>2017-05-05T10:28:37Z</time>
      </trkpt>
      <trkpt lat="44.00428" lon="1.32833">
        <ele>100.5</ele>
        <time>2017-05-05T10:28:39Z</time>
      </trkpt>
      <trkpt lat="44.00421" lon="1.3282">
        <ele>101</ele>
        <time>2017-05-05T10:28:41Z</time>
      </trkpt>
      <trkpt lat="44.00415" lon="1.32807">
        <ele>101.1</ele>
        <time>2017-05-05T10:28:43Z</time>
      </trkpt>
      <trkpt lat="44.00409" lon="1.32794">
        <ele>100.8</ele>
        <time>2017-05-05T10:28:45Z</time>
      </trkpt>
      <trkpt lat="44.00403" lon="1.32781">
        <ele>100.9</ele>
        <time>2017-05-05T10:28:47Z</time>
      </trkpt>
      <trkpt lat="44.00397" lon="1.32767">
        <ele>100.9</ele>
        <time>2017-05-05T10:28:49Z</time>
      </trkpt>
      <trkpt lat="44.0039" lon="1.32753">
        <ele>100.2</ele>
        <time>2017-05-05T10:28:51Z</time>
      </trkpt>
      <trkpt lat="44.00385" lon="1.32739">
        <ele>100</ele>
        <time>2017-05-05T10:28:53Z</time>
      </trkpt>
      <trkpt lat="44.0038" lon="1.32725">
        <ele>100.1</ele>
        <time>2017-05-05T10:28:55Z</time>
      </trkpt>
      <trkpt lat="44.00373" lon="1.32712">
        <ele>99.9</ele>
        <time>2017-05-05T10:28:57Z</time>
      </trkpt>
      <trkpt lat="44.00368" lon="1.32698">
        <ele>100</ele>
        <time>2017-05-05T10:28:59Z</time>
      </trkpt>
      <trkpt lat="44.00363" lon="1.32685">
        <ele>99.6</ele>
        <time>2017-05-05T10:29:01Z</time>
      </trkpt>
      <trkpt lat="44.00357" lon="1.32672">
        <ele>99.6</ele>
        <time>2017-05-05T10:29:04Z</time>
      </trkpt>
      <trkpt lat="44.0035" lon="1.32659">
        <ele>98.9</ele>
        <time>2017-05-05T10:29:05Z</time>
      </trkpt>
      <trkpt lat="44.00344" lon="1.32649">
        <ele>98.7</ele>
        <time>2017-05-05T10:29:07Z</time>
      </trkpt>
      <trkpt lat="44.00337" lon="1.32638">
        <ele>98.7</ele>
        <time>2017-05-05T10:29:09Z</time>
      </trkpt>
      <trkpt lat="44.0033" lon="1.32627">
        <ele>99</ele>
        <time>2017-05-05T10:29:11Z</time>
      </trkpt>
      <trkpt lat="44.00324" lon="1.32617">
        <ele>98.5</ele>
        <time>2017-05-05T10:29:13Z</time>
      </trkpt>
      <trkpt lat="44.00319" lon="1.32607">
        <ele>97.9</ele>
        <time>2017-05-05T10:29:15Z</time>
      </trkpt>
      <trkpt lat="44.00313" lon="1.326">
        <ele>96.7</ele>
        <time>2017-05-05T10:29:17Z</time>
      </trkpt>
      <trkpt lat="44.00311" lon="1.3259">
        <ele>94.6</ele>
        <time>2017-05-05T10:29:22Z</time>
      </trkpt>
      <trkpt lat="44.00311" lon="1.32576">
        <ele>90.9</ele>
        <time>2017-05-05T10:29:33Z</time>
      </trkpt>
      <trkpt lat="44.00307" lon="1.32578">
        <ele>85.4</ele>
        <time>2017-05-05T10:30:32Z</time>
      </trkpt>
      <trkpt lat="44.00302" lon="1.32584">
        <ele>85.1</ele>
        <time>2017-05-05T10:30:37Z</time>
      </trkpt>
      <trkpt lat="44.00298" lon="1.32588">
        <ele>84.7</ele>
        <time>2017-05-05T10:30:44Z</time>
      </trkpt>
      <trkpt lat="44.00294" lon="1.32596">
        <ele>83</ele>
        <time>2017-05-05T10:31:45Z</time>
      </trkpt>
      <trkpt lat="44.00299" lon="1.32585">
        <ele>83.7</ele>
        <time>2017-05-05T10:32:07Z</time>
      </trkpt>
      <trkpt lat="44.00303" lon="1.32576">
        <ele>83.5</ele>
        <time>2017-05-05T10:32:10Z</time>
      </trkpt>
      <trkpt lat="44.00299" lon="1.32566">
        <ele>83.4</ele>
        <time>2017-05-05T10:32:12Z</time>
      </trkpt>
      <trkpt lat="44.00295" lon="1.32556">
        <ele>83.4</ele>
        <time>2017-05-05T10:32:14Z</time>
      </trkpt>
      <trkpt lat="44.0029" lon="1.32547">
        <ele>83.4</ele>
        <time>2017-05-05T10:32:17Z</time>
      </trkpt>
      <trkpt lat="44.00285" lon="1.32537">
        <ele>83.6</ele>
        <time>2017-05-05T10:32:18Z</time>
      </trkpt>
      <trkpt lat="44.0028" lon="1.32527">
        <ele>83.9</ele>
        <time>2017-05-05T10:32:20Z</time>
      </trkpt>
      <trkpt lat="44.00275" lon="1.32516">
        <ele>84.3</ele>
        <time>2017-05-05T10:32:23Z</time>
      </trkpt>
      <trkpt lat="44.00269" lon="1.32504">
        <ele>85</ele>
        <time>2017-05-05T10:32:24Z</time>
      </trkpt>
      <trkpt lat="44.00265" lon="1.32492">
        <ele>85.8</ele>
        <time>2017-05-05T10:32:26Z</time>
      </trkpt>
      <trkpt lat="44.00259" lon="1.32481">
        <ele>86.5</ele>
        <time>2017-05-05T10:32:28Z</time>
      </trkpt>
      <trkpt lat="44.00254" lon="1.32471">
        <ele>87.7</ele>
        <time>2017-05-05T10:32:30Z</time>
      </trkpt>
      <trkpt lat="44.00249" lon="1.32461">
        <ele>88.6</ele>
        <time>2017-05-05T10:32:32Z</time>
      </trkpt>
      <trkpt lat="44.00244" lon="1.3245">
        <ele>89.2</ele>
        <time>2017-05-05T10:32:34Z</time>
      </trkpt>
      <trkpt lat="44.00238" lon="1.32438">
        <ele>90.2</ele>
        <time>2017-05-05T10:32:36Z</time>
      </trkpt>
      <trkpt lat="44.00233" lon="1.32426">
        <ele>90.8</ele>
        <time>2017-05-05T10:32:38Z</time>
      </trkpt>
      <trkpt lat="44.00226" lon="1.32415">
        <ele>91.9</ele>
        <time>2017-05-05T10:32:40Z</time>
      </trkpt>
      <trkpt lat="44.00221" lon="1.32405">
        <ele>92.7</ele>
        <time>2017-05-05T10:32:43Z</time>
      </trkpt>
      <trkpt lat="44.00216" lon="1.32395">
        <ele>93.6</ele>
        <time>2017-05-05T10:32:44Z</time>
      </trkpt>
      <trkpt lat="44.00209" lon="1.32383">
        <ele>94.4</ele>
        <time>2017-05-05T10:32:46Z</time>
      </trkpt>
      <trkpt lat="44.00203" lon="1.3237">
        <ele>94.9</ele>
        <time>2017-05-05T10:32:48Z</time>
      </trkpt>
      <trkpt lat="44.00197" lon="1.32357">
        <ele>95.6</ele>
        <time>2017-05-05T10:32:50Z</time>
      </trkpt>
      <trkpt lat="44.0019" lon="1.32345">
        <ele>96.2</ele>
        <time>2017-05-05T10:32:52Z</time>
      </trkpt>
      <trkpt lat="44.00184" lon="1.32333">
        <ele>96.8</ele>
        <time>2017-05-05T10:32:54Z</time>
      </trkpt>
      <trkpt lat="44.00178" lon="1.3232">
        <ele>97.1</ele>
        <time>2017-05-05T10:32:56Z</time>
      </trkpt>
      <trkpt lat="44.00175" lon="1.32306">
        <ele>97.5</ele>
        <time>2017-05-05T10:32:58Z</time>
      </trkpt>
      <trkpt lat="44.00169" lon="1.32292">
        <ele>97.4</ele>
        <time>2017-05-05T10:33:00Z</time>
      </trkpt>
      <trkpt lat="44.00164" lon="1.32277">
        <ele>97.7</ele>
        <time>2017-05-05T10:33:02Z</time>
      </trkpt>
      <trkpt lat="44.00159" lon="1.32263">
        <ele>98.2</ele>
        <time>2017-05-05T10:33:04Z</time>
      </trkpt>
      <trkpt lat="44.00155" lon="1.32249">
        <ele>97.9</ele>
        <time>2017-05-05T10:33:06Z</time>
      </trkpt>
      <trkpt lat="44.00151" lon="1.32236">
        <ele>98.6</ele>
        <time>2017-05-05T10:33:08Z</time>
      </trkpt>
      <trkpt lat="44.00147" lon="1.32223">
        <ele>99.2</ele>
        <time>2017-05-05T10:33:10Z</time>
      </trkpt>
      <trkpt lat="44.00143" lon="1.32209">
        <ele>99.8</ele>
        <time>2017-05-05T10:33:12Z</time>
      </trkpt>
      <trkpt lat="44.00139" lon="1.32193">
        <ele>99.7</ele>
        <time>2017-05-05T10:33:14Z</time>
      </trkpt>
      <trkpt lat="44.00136" lon="1.32179">
        <ele>99.6</ele>
        <time>2017-05-05T10:33:16Z</time>
      </trkpt>
      <trkpt lat="44.00133" lon="1.32164">
        <ele>99</ele>
        <time>2017-05-05T10:33:18Z</time>
      </trkpt>
      <trkpt lat="44.00131" lon="1.32151">
        <ele>99.1</ele>
        <time>2017-05-05T10:33:20Z</time>
      </trkpt>
      <trkpt lat="44.00128" lon="1.32136">
        <ele>98.6</ele>
        <time>2017-05-05T10:33:22Z</time>
      </trkpt>
      <trkpt lat="44.00125" lon="1.32121">
        <ele>98.5</ele>
        <time>2017-05-05T10:33:24Z</time>
      </trkpt>
      <trkpt lat="44.00121" lon="1.32107">
        <ele>98.7</ele>
        <time>2017-05-05T10:33:26Z</time>
      </trkpt>
      <trkpt lat="44.00118" lon="1.32091">
        <ele>98.6</ele>
        <time>2017-05-05T10:33:28Z</time>
      </trkpt>
      <trkpt lat="44.00115" lon="1.32075">
        <ele>97.8</ele>
        <time>2017-05-05T10:33:30Z</time>
      </trkpt>
      <trkpt lat="44.00112" lon="1.32059">
        <ele>97</ele>
        <time>2017-05-05T10:33:32Z</time>
      </trkpt>
      <trkpt lat="44.00108" lon="1.32043">
        <ele>96.8</ele>
        <time>2017-05-05T10:33:34Z</time>
      </trkpt>
      <trkpt lat="44.00105" lon="1.32028">
        <ele>95.9</ele>
        <time>2017-05-05T10:33:36Z</time>
      </trkpt>
      <trkpt lat="44.00102" lon="1.32013">
        <ele>95.8</ele>
        <time>2017-05-05T10:33:38Z</time>
      </trkpt>
      <trkpt lat="44.001" lon="1.31997">
        <ele>95.5</ele>
        <time>2017-05-05T10:33:40Z</time>
      </trkpt>
      <trkpt lat="44.00098" lon="1.31982">
        <ele>95.8</ele>
        <time>2017-05-05T10:33:42Z</time>
      </trkpt>
      <trkpt lat="44.00095" lon="1.31969">
        <ele>96.1</ele>
        <time>2017-05-05T10:33:44Z</time>
      </trkpt>
      <trkpt lat="44.00091" lon="1.31956">
        <ele>96.3</ele>
        <time>2017-05-05T10:33:47Z</time>
      </trkpt>
      <trkpt lat="44.00089" lon="1.31943">
        <ele>96.5</ele>
        <time>2017-05-05T10:33:48Z</time>
      </trkpt>
      <trkpt lat="44.00087" lon="1.3193">
        <ele>97</ele>
        <time>2017-05-05T10:33:50Z</time>
      </trkpt>
      <trkpt lat="44.00085" lon="1.31915">
        <ele>97.2</ele>
        <time>2017-05-05T10:33:52Z</time>
      </trkpt>
      <trkpt lat="44.00081" lon="1.31901">
        <ele>97.5</ele>
        <time>2017-05-05T10:33:54Z</time>
      </trkpt>
      <trkpt lat="44.00077" lon="1.31886">
        <ele>97.7</ele>
        <time>2017-05-05T10:33:56Z</time>
      </trkpt>
      <trkpt lat="44.00074" lon="1.31871">
        <ele>98</ele>
        <time>2017-05-05T10:33:58Z</time>
      </trkpt>
      <trkpt lat="44.0007" lon="1.31854">
        <ele>97.5</ele>
        <time>2017-05-05T10:34:00Z</time>
      </trkpt>
      <trkpt lat="44.00066" lon="1.31837">
        <ele>96.7</ele>
        <time>2017-05-05T10:34:02Z</time>
      </trkpt>
      <trkpt lat="44.00062" lon="1.31821">
        <ele>95.9</ele>
        <time>2017-05-05T10:34:04Z</time>
      </trkpt>
      <trkpt lat="44.00059" lon="1.31807">
        <ele>96</ele>
        <time>2017-05-05T10:34:06Z</time>
      </trkpt>
      <trkpt lat="44.00056" lon="1.31792">
        <ele>96.5</ele>
        <time>2017-05-05T10:34:08Z</time>
      </trkpt>
      <trkpt lat="44.00054" lon="1.31777">
        <ele>97</ele>
        <time>2017-05-05T10:34:10Z</time>
      </trkpt>
      <trkpt lat="44.00051" lon="1.31762">
        <ele>97.7</ele>
        <time>2017-05-05T10:34:12Z</time>
      </trkpt>
      <trkpt lat="44.00048" lon="1.31746">
        <ele>98.5</ele>
        <time>2017-05-05T10:34:14Z</time>
      </trkpt>
      <trkpt lat="44.00045" lon="1.31734">
        <ele>98.9</ele>
        <time>2017-05-05T10:34:16Z</time>
      </trkpt>
      <trkpt lat="44.00042" lon="1.31721">
        <ele>99.7</ele>
        <time>2017-05-05T10:34:18Z</time>
      </trkpt>
      <trkpt lat="44.00038" lon="1.31707">
        <ele>100.1</ele>
        <time>2017-05-05T10:34:20Z</time>
      </trkpt>
      <trkpt lat="44.00034" lon="1.31692">
        <ele>100.1</ele>
        <time>2017-05-05T10:34:22Z</time>
      </trkpt>
      <trkpt lat="44.00031" lon="1.31678">
        <ele>100.7</ele>
        <time>2017-05-05T10:34:24Z</time>
      </trkpt>
      <trkpt lat="44.00028" lon="1.31664">
        <ele>100.9</ele>
        <time>2017-05-05T10:34:26Z</time>
      </trkpt>
      <trkpt lat="44.00025" lon="1.31649">
        <ele>100.7</ele>
        <time>2017-05-05T10:34:28Z</time>
      </trkpt>
      <trkpt lat="44.00022" lon="1.31634">
        <ele>101.2</ele>
        <time>2017-05-05T10:34:30Z</time>
      </trkpt>
      <trkpt lat="44.00019" lon="1.3162">
        <ele>101.1</ele>
        <time>2017-05-05T10:34:32Z</time>
      </trkpt>
      <trkpt lat="44.00017" lon="1.31606">
        <ele>100.7</ele>
        <time>2017-05-05T10:34:34Z</time>
      </trkpt>
      <trkpt lat="44.00014" lon="1.3159">
        <ele>100.9</ele>
        <time>2017-05-05T10:34:36Z</time>
      </trkpt>
      <trkpt lat="44.00011" lon="1.31577">
        <ele>101.3</ele>
        <time>2017-05-05T10:34:38Z</time>
      </trkpt>
      <trkpt lat="44.00008" lon="1.31563">
        <ele>101.7</ele>
        <time>2017-05-05T10:34:40Z</time>
      </trkpt>
      <trkpt lat="44.00006" lon="1.31549">
        <ele>101.8</ele>
        <time>2017-05-05T10:34:42Z</time>
      </trkpt>
      <trkpt lat="44.00003" lon="1.31533">
        <ele>102.1</ele>
        <time>2017-05-05T10:34:44Z</time>
      </trkpt>
      <trkpt lat="44" lon="1.31518">
        <ele>102.6</ele>
        <time>2017-05-05T10:34:46Z</time>
      </trkpt>
      <trkpt lat="43.99996" lon="1.31503">
        <ele>103</ele>
        <time>2017-05-05T10:34:48Z</time>
      </trkpt>
      <trkpt lat="43.99991" lon="1.31488">
        <ele>103.5</ele>
        <time>2017-05-05T10:34:50Z</time>
      </trkpt>
      <trkpt lat="43.99987" lon="1.31471">
        <ele>103.9</ele>
        <time>2017-05-05T10:34:52Z</time>
      </trkpt>
      <trkpt lat="43.99985" lon="1.31457">
        <ele>104.6</ele>
        <time>2017-05-05T10:34:54Z</time>
      </trkpt>
      <trkpt lat="43.99981" lon="1.31443">
        <ele>104.8</ele>
        <time>2017-05-05T10:34:56Z</time>
      </trkpt>
      <trkpt lat="43.99978" lon="1.3143">
        <ele>105.3</ele>
        <time>2017-05-05T10:34:58Z</time>
      </trkpt>
      <trkpt lat="43.99977" lon="1.31417">
        <ele>105.6</ele>
        <time>2017-05-05T10:35:00Z</time>
      </trkpt>
      <trkpt lat="43.99974" lon="1.31402">
        <ele>105.3</ele>
        <time>2017-05-05T10:35:02Z</time>
      </trkpt>
      <trkpt lat="43.9997" lon="1.31384">
        <ele>103.9</ele>
        <time>2017-05-05T10:35:04Z</time>
      </trkpt>
      <trkpt lat="43.99967" lon="1.31367">
        <ele>102.3</ele>
        <time>2017-05-05T10:35:06Z</time>
      </trkpt>
      <trkpt lat="43.99964" lon="1.31351">
        <ele>101.5</ele>
        <time>2017-05-05T10:35:08Z</time>
      </trkpt>
      <trkpt lat="43.99961" lon="1.31336">
        <ele>101.6</ele>
        <time>2017-05-05T10:35:10Z</time>
      </trkpt>
      <trkpt lat="43.99958" lon="1.31322">
        <ele>101.7</ele>
        <time>2017-05-05T10:35:12Z</time>
      </trkpt>
      <trkpt lat="43.99955" lon="1.31309">
        <ele>101.6</ele>
        <time>2017-05-05T10:35:14Z</time>
      </trkpt>
      <trkpt lat="43.9995" lon="1.31294">
        <ele>101.7</ele>
        <time>2017-05-05T10:35:16Z</time>
      </trkpt>
      <trkpt lat="43.99947" lon="1.31278">
        <ele>101.6</ele>
        <time>2017-05-05T10:35:18Z</time>
      </trkpt>
      <trkpt lat="43.99945" lon="1.31263">
        <ele>101.7</ele>
        <time>2017-05-05T10:35:20Z</time>
      </trkpt>
      <trkpt lat="43.99941" lon="1.31248">
        <ele>101.8</ele>
        <time>2017-05-05T10:35:22Z</time>
      </trkpt>
      <trkpt lat="43.99938" lon="1.31233">
        <ele>102.1</ele>
        <time>2017-05-05T10:35:24Z</time>
      </trkpt>
      <trkpt lat="43.99935" lon="1.31219">
        <ele>102.3</ele>
        <time>2017-05-05T10:35:26Z</time>
      </trkpt>
      <trkpt lat="43.99931" lon="1.31202">
        <ele>102.1</ele>
        <time>2017-05-05T10:35:28Z</time>
      </trkpt>
      <trkpt lat="43.99927" lon="1.31186">
        <ele>101.8</ele>
        <time>2017-05-05T10:35:30Z</time>
      </trkpt>
      <trkpt lat="43.99922" lon="1.31169">
        <ele>101.1</ele>
        <time>2017-05-05T10:35:32Z</time>
      </trkpt>
      <trkpt lat="43.9992" lon="1.31154">
        <ele>100.1</ele>
        <time>2017-05-05T10:35:34Z</time>
      </trkpt>
      <trkpt lat="43.99915" lon="1.31138">
        <ele>99.3</ele>
        <time>2017-05-05T10:35:36Z</time>
      </trkpt>
      <trkpt lat="43.99913" lon="1.31122">
        <ele>98.3</ele>
        <time>2017-05-05T10:35:38Z</time>
      </trkpt>
      <trkpt lat="43.9991" lon="1.31108">
        <ele>98</ele>
        <time>2017-05-05T10:35:40Z</time>
      </trkpt>
      <trkpt lat="43.99907" lon="1.31093">
        <ele>97.3</ele>
        <time>2017-05-05T10:35:42Z</time>
      </trkpt>
      <trkpt lat="43.99904" lon="1.31077">
        <ele>96.5</ele>
        <time>2017-05-05T10:35:44Z</time>
      </trkpt>
      <trkpt lat="43.99902" lon="1.31061">
        <ele>95.2</ele>
        <time>2017-05-05T10:35:46Z</time>
      </trkpt>
      <trkpt lat="43.99899" lon="1.31045">
        <ele>94.5</ele>
        <time>2017-05-05T10:35:48Z</time>
      </trkpt>
      <trkpt lat="43.99896" lon="1.3103">
        <ele>94.2</ele>
        <time>2017-05-05T10:35:50Z</time>
      </trkpt>
      <trkpt lat="43.99893" lon="1.31014">
        <ele>93.7</ele>
        <time>2017-05-05T10:35:52Z</time>
      </trkpt>
      <trkpt lat="43.9989" lon="1.30999">
        <ele>93</ele>
        <time>2017-05-05T10:35:54Z</time>
      </trkpt>
      <trkpt lat="43.99886" lon="1.30984">
        <ele>93.2</ele>
        <time>2017-05-05T10:35:56Z</time>
      </trkpt>
      <trkpt lat="43.99883" lon="1.30969">
        <ele>93.2</ele>
        <time>2017-05-05T10:35:58Z</time>
      </trkpt>
      <trkpt lat="43.9988" lon="1.30954">
        <ele>92.7</ele>
        <time>2017-05-05T10:36:00Z</time>
      </trkpt>
      <trkpt lat="43.99877" lon="1.30938">
        <ele>92.8</ele>
        <time>2017-05-05T10:36:02Z</time>
      </trkpt>
      <trkpt lat="43.99874" lon="1.30923">
        <ele>91.6</ele>
        <time>2017-05-05T10:36:04Z</time>
      </trkpt>
      <trkpt lat="43.99871" lon="1.30908">
        <ele>91.8</ele>
        <time>2017-05-05T10:36:06Z</time>
      </trkpt>
      <trkpt lat="43.99867" lon="1.30893">
        <ele>91.6</ele>
        <time>2017-05-05T10:36:08Z</time>
      </trkpt>
      <trkpt lat="43.99864" lon="1.30878">
        <ele>91.6</ele>
        <time>2017-05-05T10:36:10Z</time>
      </trkpt>
      <trkpt lat="43.99861" lon="1.30862">
        <ele>91.9</ele>
        <time>2017-05-05T10:36:12Z</time>
      </trkpt>
      <trkpt lat="43.99857" lon="1.30848">
        <ele>91.8</ele>
        <time>2017-05-05T10:36:14Z</time>
      </trkpt>
      <trkpt lat="43.99853" lon="1.30833">
        <ele>92.2</ele>
        <time>2017-05-05T10:36:16Z</time>
      </trkpt>
      <trkpt lat="43.9985" lon="1.30818">
        <ele>92</ele>
        <time>2017-05-05T10:36:18Z</time>
      </trkpt>
      <trkpt lat="43.99848" lon="1.30803">
        <ele>92.1</ele>
        <time>2017-05-05T10:36:20Z</time>
      </trkpt>
      <trkpt lat="43.99845" lon="1.30789">
        <ele>92.3</ele>
        <time>2017-05-05T10:36:22Z</time>
      </trkpt>
      <trkpt lat="43.99843" lon="1.30776">
        <ele>92.1</ele>
        <time>2017-05-05T10:36:24Z</time>
      </trkpt>
      <trkpt lat="43.9984" lon="1.30764">
        <ele>92.1</ele>
        <time>2017-05-05T10:36:26Z</time>
      </trkpt>
      <trkpt lat="43.99837" lon="1.30753">
        <ele>92.4</ele>
        <time>2017-05-05T10:36:28Z</time>
      </trkpt>
      <trkpt lat="43.99835" lon="1.30743">
        <ele>93.1</ele>
        <time>2017-05-05T10:36:30Z</time>
      </trkpt>
      <trkpt lat="43.99832" lon="1.30732">
        <ele>93.8</ele>
        <time>2017-05-05T10:36:33Z</time>
      </trkpt>
      <trkpt lat="43.9983" lon="1.30721">
        <ele>94.4</ele>
        <time>2017-05-05T10:36:37Z</time>
      </trkpt>
      <trkpt lat="43.99826" lon="1.30712">
        <ele>94.8</ele>
        <time>2017-05-05T10:36:42Z</time>
      </trkpt>
      <trkpt lat="43.9982" lon="1.30707">
        <ele>94.7</ele>
        <time>2017-05-05T10:36:45Z</time>
      </trkpt>
      <trkpt lat="43.99819" lon="1.30696">
        <ele>95.2</ele>
        <time>2017-05-05T10:36:47Z</time>
      </trkpt>
      <trkpt lat="43.99818" lon="1.30686">
        <ele>95.2</ele>
        <time>2017-05-05T10:36:49Z</time>
      </trkpt>
      <trkpt lat="43.99816" lon="1.30675">
        <ele>94.9</ele>
        <time>2017-05-05T10:36:51Z</time>
      </trkpt>
      <trkpt lat="43.99815" lon="1.30664">
        <ele>94.9</ele>
        <time>2017-05-05T10:36:53Z</time>
      </trkpt>
      <trkpt lat="43.99812" lon="1.30651">
        <ele>94.9</ele>
        <time>2017-05-05T10:36:55Z</time>
      </trkpt>
      <trkpt lat="43.9981" lon="1.30639">
        <ele>94.7</ele>
        <time>2017-05-05T10:36:57Z</time>
      </trkpt>
      <trkpt lat="43.99808" lon="1.30626">
        <ele>94.6</ele>
        <time>2017-05-05T10:36:59Z</time>
      </trkpt>
      <trkpt lat="43.99806" lon="1.30613">
        <ele>94.5</ele>
        <time>2017-05-05T10:37:01Z</time>
      </trkpt>
      <trkpt lat="43.99803" lon="1.306">
        <ele>94.4</ele>
        <time>2017-05-05T10:37:03Z</time>
      </trkpt>
      <trkpt lat="43.99798" lon="1.30588">
        <ele>94.2</ele>
        <time>2017-05-05T10:37:05Z</time>
      </trkpt>
      <trkpt lat="43.99793" lon="1.30575">
        <ele>94.2</ele>
        <time>2017-05-05T10:37:07Z</time>
      </trkpt>
      <trkpt lat="43.99789" lon="1.30563">
        <ele>93.9</ele>
        <time>2017-05-05T10:37:09Z</time>
      </trkpt>
      <trkpt lat="43.99784" lon="1.30551">
        <ele>93.6</ele>
        <time>2017-05-05T10:37:11Z</time>
      </trkpt>
      <trkpt lat="43.99778" lon="1.30539">
        <ele>93.2</ele>
        <time>2017-05-05T10:37:13Z</time>
      </trkpt>
      <trkpt lat="43.99771" lon="1.30528">
        <ele>93.1</ele>
        <time>2017-05-05T10:37:15Z</time>
      </trkpt>
      <trkpt lat="43.99765" lon="1.30518">
        <ele>93.1</ele>
        <time>2017-05-05T10:37:17Z</time>
      </trkpt>
      <trkpt lat="43.99758" lon="1.30508">
        <ele>93</ele>
        <time>2017-05-05T10:37:19Z</time>
      </trkpt>
      <trkpt lat="43.99752" lon="1.30499">
        <ele>93.1</ele>
        <time>2017-05-05T10:37:21Z</time>
      </trkpt>
      <trkpt lat="43.99747" lon="1.30491">
        <ele>93.4</ele>
        <time>2017-05-05T10:37:23Z</time>
      </trkpt>
      <trkpt lat="43.9974" lon="1.30483">
        <ele>93.7</ele>
        <time>2017-05-05T10:37:25Z</time>
      </trkpt>
      <trkpt lat="43.99734" lon="1.30475">
        <ele>93.9</ele>
        <time>2017-05-05T10:37:27Z</time>
      </trkpt>
      <trkpt lat="43.99726" lon="1.30467">
        <ele>94</ele>
        <time>2017-05-05T10:37:29Z</time>
      </trkpt>
      <trkpt lat="43.99718" lon="1.30459">
        <ele>94</ele>
        <time>2017-05-05T10:37:31Z</time>
      </trkpt>
      <trkpt lat="43.9971" lon="1.30451">
        <ele>94</ele>
        <time>2017-05-05T10:37:33Z</time>
      </trkpt>
      <trkpt lat="43.99702" lon="1.30444">
        <ele>93.9</ele>
        <time>2017-05-05T10:37:35Z</time>
      </trkpt>
      <trkpt lat="43.99693" lon="1.30437">
        <ele>94</ele>
        <time>2017-05-05T10:37:37Z</time>
      </trkpt>
      <trkpt lat="43.99683" lon="1.30431">
        <ele>94</ele>
        <time>2017-05-05T10:37:39Z</time>
      </trkpt>
      <trkpt lat="43.99674" lon="1.30424">
        <ele>93.8</ele>
        <time>2017-05-05T10:37:41Z</time>
      </trkpt>
      <trkpt lat="43.99664" lon="1.30418">
        <ele>93.6</ele>
        <time>2017-05-05T10:37:43Z</time>
      </trkpt>
      <trkpt lat="43.99655" lon="1.30413">
        <ele>93.4</ele>
        <time>2017-05-05T10:37:45Z</time>
      </trkpt>
      <trkpt lat="43.99645" lon="1.3041">
        <ele>93.2</ele>
        <time>2017-05-05T10:37:47Z</time>
      </trkpt>
      <trkpt lat="43.99635" lon="1.30408">
        <ele>93.1</ele>
        <time>2017-05-05T10:37:49Z</time>
      </trkpt>
      <trkpt lat="43.99625" lon="1.30407">
        <ele>93.5</ele>
        <time>2017-05-05T10:37:51Z</time>
      </trkpt>
      <trkpt lat="43.99616" lon="1.30407">
        <ele>95</ele>
        <time>2017-05-05T10:37:53Z</time>
      </trkpt>
      <trkpt lat="43.99606" lon="1.30405">
        <ele>95.5</ele>
        <time>2017-05-05T10:37:55Z</time>
      </trkpt>
      <trkpt lat="43.99597" lon="1.30404">
        <ele>95.7</ele>
        <time>2017-05-05T10:37:57Z</time>
      </trkpt>
      <trkpt lat="43.99589" lon="1.30402">
        <ele>96.1</ele>
        <time>2017-05-05T10:37:59Z</time>
      </trkpt>
      <trkpt lat="43.9958" lon="1.30399">
        <ele>96.7</ele>
        <time>2017-05-05T10:38:01Z</time>
      </trkpt>
      <trkpt lat="43.99572" lon="1.30394">
        <ele>97.5</ele>
        <time>2017-05-05T10:38:03Z</time>
      </trkpt>
      <trkpt lat="43.99563" lon="1.3039">
        <ele>97.8</ele>
        <time>2017-05-05T10:38:05Z</time>
      </trkpt>
      <trkpt lat="43.99554" lon="1.30387">
        <ele>98</ele>
        <time>2017-05-05T10:38:07Z</time>
      </trkpt>
      <trkpt lat="43.99545" lon="1.30384">
        <ele>98.1</ele>
        <time>2017-05-05T10:38:09Z</time>
      </trkpt>
      <trkpt lat="43.99536" lon="1.30381">
        <ele>98.6</ele>
        <time>2017-05-05T10:38:11Z</time>
      </trkpt>
      <trkpt lat="43.99527" lon="1.30377">
        <ele>98.5</ele>
        <time>2017-05-05T10:38:13Z</time>
      </trkpt>
      <trkpt lat="43.99518" lon="1.30373">
        <ele>98.2</ele>
        <time>2017-05-05T10:38:15Z</time>
      </trkpt>
      <trkpt lat="43.99508" lon="1.3037">
        <ele>97.9</ele>
        <time>2017-05-05T10:38:17Z</time>
      </trkpt>
      <trkpt lat="43.99499" lon="1.30367">
        <ele>98.3</ele>
        <time>2017-05-05T10:38:19Z</time>
      </trkpt>
      <trkpt lat="43.99489" lon="1.30364">
        <ele>98.7</ele>
        <time>2017-05-05T10:38:21Z</time>
      </trkpt>
      <trkpt lat="43.9948" lon="1.30361">
        <ele>98.7</ele>
        <time>2017-05-05T10:38:23Z</time>
      </trkpt>
      <trkpt lat="43.9947" lon="1.30358">
        <ele>98.7</ele>
        <time>2017-05-05T10:38:25Z</time>
      </trkpt>
      <trkpt lat="43.99461" lon="1.30355">
        <ele>99.3</ele>
        <time>2017-05-05T10:38:27Z</time>
      </trkpt>
      <trkpt lat="43.99451" lon="1.30353">
        <ele>99.6</ele>
        <time>2017-05-05T10:38:29Z</time>
      </trkpt>
      <trkpt lat="43.99442" lon="1.3035">
        <ele>99.8</ele>
        <time>2017-05-05T10:38:31Z</time>
      </trkpt>
      <trkpt lat="43.99433" lon="1.30347">
        <ele>100.1</ele>
        <time>2017-05-05T10:38:33Z</time>
      </trkpt>
      <trkpt lat="43.99423" lon="1.30345">
        <ele>100.2</ele>
        <time>2017-05-05T10:38:35Z</time>
      </trkpt>
      <trkpt lat="43.99414" lon="1.30342">
        <ele>100.4</ele>
        <time>2017-05-05T10:38:37Z</time>
      </trkpt>
      <trkpt lat="43.99404" lon="1.30339">
        <ele>100.4</ele>
        <time>2017-05-05T10:38:39Z</time>
      </trkpt>
      <trkpt lat="43.99394" lon="1.30337">
        <ele>100.3</ele>
        <time>2017-05-05T10:38:41Z</time>
      </trkpt>
      <trkpt lat="43.99385" lon="1.30333">
        <ele>100.1</ele>
        <time>2017-05-05T10:38:43Z</time>
      </trkpt>
      <trkpt lat="43.99376" lon="1.30329">
        <ele>99.7</ele>
        <time>2017-05-05T10:38:45Z</time>
      </trkpt>
      <trkpt lat="43.99367" lon="1.30325">
        <ele>99.5</ele>
        <time>2017-05-05T10:38:47Z</time>
      </trkpt>
      <trkpt lat="43.9936" lon="1.30323">
        <ele>99.3</ele>
        <time>2017-05-05T10:38:49Z</time>
      </trkpt>
      <trkpt lat="43.99352" lon="1.3032">
        <ele>99.3</ele>
        <time>2017-05-05T10:38:51Z</time>
      </trkpt>
      <trkpt lat="43.99345" lon="1.30317">
        <ele>99.5</ele>
        <time>2017-05-05T10:38:53Z</time>
      </trkpt>
      <trkpt lat="43.99337" lon="1.30314">
        <ele>98.9</ele>
        <time>2017-05-05T10:38:55Z</time>
      </trkpt>
      <trkpt lat="43.99328" lon="1.30312">
        <ele>98.8</ele>
        <time>2017-05-05T10:38:57Z</time>
      </trkpt>
      <trkpt lat="43.99318" lon="1.30309">
        <ele>99.3</ele>
        <time>2017-05-05T10:38:59Z</time>
      </trkpt>
      <trkpt lat="43.99309" lon="1.30306">
        <ele>99.3</ele>
        <time>2017-05-05T10:39:01Z</time>
      </trkpt>
      <trkpt lat="43.993" lon="1.30302">
        <ele>98.5</ele>
        <time>2017-05-05T10:39:03Z</time>
      </trkpt>
      <trkpt lat="43.9929" lon="1.30299">
        <ele>98.3</ele>
        <time>2017-05-05T10:39:05Z</time>
      </trkpt>
      <trkpt lat="43.99281" lon="1.30295">
        <ele>98.7</ele>
        <time>2017-05-05T10:39:07Z</time>
      </trkpt>
      <trkpt lat="43.99271" lon="1.30291">
        <ele>99</ele>
        <time>2017-05-05T10:39:09Z</time>
      </trkpt>
      <trkpt lat="43.99262" lon="1.30287">
        <ele>99.5</ele>
        <time>2017-05-05T10:39:11Z</time>
      </trkpt>
      <trkpt lat="43.99252" lon="1.30281">
        <ele>99.4</ele>
        <time>2017-05-05T10:39:13Z</time>
      </trkpt>
      <trkpt lat="43.99243" lon="1.30275">
        <ele>100</ele>
        <time>2017-05-05T10:39:15Z</time>
      </trkpt>
      <trkpt lat="43.99234" lon="1.3027">
        <ele>100.4</ele>
        <time>2017-05-05T10:39:17Z</time>
      </trkpt>
      <trkpt lat="43.99225" lon="1.30265">
        <ele>100.8</ele>
        <time>2017-05-05T10:39:19Z</time>
      </trkpt>
      <trkpt lat="43.99216" lon="1.30258">
        <ele>101.4</ele>
        <time>2017-05-05T10:39:21Z</time>
      </trkpt>
      <trkpt lat="43.99207" lon="1.30252">
        <ele>101.7</ele>
        <time>2017-05-05T10:39:23Z</time>
      </trkpt>
      <trkpt lat="43.99197" lon="1.30246">
        <ele>102</ele>
        <time>2017-05-05T10:39:25Z</time>
      </trkpt>
      <trkpt lat="43.99188" lon="1.30239">
        <ele>102.5</ele>
        <time>2017-05-05T10:39:27Z</time>
      </trkpt>
      <trkpt lat="43.99179" lon="1.30231">
        <ele>102.6</ele>
        <time>2017-05-05T10:39:29Z</time>
      </trkpt>
      <trkpt lat="43.9917" lon="1.30224">
        <ele>102.7</ele>
        <time>2017-05-05T10:39:31Z</time>
      </trkpt>
      <trkpt lat="43.99162" lon="1.30217">
        <ele>103.2</ele>
        <time>2017-05-05T10:39:33Z</time>
      </trkpt>
      <trkpt lat="43.99155" lon="1.3021">
        <ele>103.4</ele>
        <time>2017-05-05T10:39:35Z</time>
      </trkpt>
      <trkpt lat="43.99149" lon="1.30203">
        <ele>103.1</ele>
        <time>2017-05-05T10:39:37Z</time>
      </trkpt>
      <trkpt lat="43.99143" lon="1.30196">
        <ele>102</ele>
        <time>2017-05-05T10:39:39Z</time>
      </trkpt>
      <trkpt lat="43.99135" lon="1.30187">
        <ele>101.4</ele>
        <time>2017-05-05T10:39:42Z</time>
      </trkpt>
      <trkpt lat="43.99128" lon="1.30179">
        <ele>100.6</ele>
        <time>2017-05-05T10:39:45Z</time>
      </trkpt>
      <trkpt lat="43.99129" lon="1.30165">
        <ele>96.8</ele>
        <time>2017-05-05T10:40:18Z</time>
      </trkpt>
      <trkpt lat="43.99138" lon="1.30165">
        <ele>96.3</ele>
        <time>2017-05-05T10:40:21Z</time>
      </trkpt>
      <trkpt lat="43.9913" lon="1.3016">
        <ele>95.7</ele>
        <time>2017-05-05T10:40:23Z</time>
      </trkpt>
      <trkpt lat="43.99121" lon="1.30158">
        <ele>94.7</ele>
        <time>2017-05-05T10:40:25Z</time>
      </trkpt>
      <trkpt lat="43.99111" lon="1.30151">
        <ele>94.7</ele>
        <time>2017-05-05T10:40:26Z</time>
      </trkpt>
      <trkpt lat="43.99106" lon="1.30145">
        <ele>93.5</ele>
        <time>2017-05-05T10:40:34Z</time>
      </trkpt>
      <trkpt lat="43.991" lon="1.30138">
        <ele>95.4</ele>
        <time>2017-05-05T10:40:51Z</time>
      </trkpt>
      <trkpt lat="43.99095" lon="1.3013">
        <ele>97.6</ele>
        <time>2017-05-05T10:40:57Z</time>
      </trkpt>
      <trkpt lat="43.99088" lon="1.30121">
        <ele>98.7</ele>
        <time>2017-05-05T10:41:01Z</time>
      </trkpt>
      <trkpt lat="43.99082" lon="1.30116">
        <ele>99.5</ele>
        <time>2017-05-05T10:41:04Z</time>
      </trkpt>
      <trkpt lat="43.99074" lon="1.30111">
        <ele>99.8</ele>
        <time>2017-05-05T10:41:08Z</time>
      </trkpt>
      <trkpt lat="43.99064" lon="1.30109">
        <ele>99.1</ele>
        <time>2017-05-05T10:41:11Z</time>
      </trkpt>
      <trkpt lat="43.99057" lon="1.30103">
        <ele>99.5</ele>
        <time>2017-05-05T10:41:13Z</time>
      </trkpt>
      <trkpt lat="43.99051" lon="1.30096">
        <ele>99.6</ele>
        <time>2017-05-05T10:41:15Z</time>
      </trkpt>
      <trkpt lat="43.99045" lon="1.30086">
        <ele>101.1</ele>
        <time>2017-05-05T10:41:18Z</time>
      </trkpt>
      <trkpt lat="43.99041" lon="1.30074">
        <ele>103.1</ele>
        <time>2017-05-05T10:41:21Z</time>
      </trkpt>
      <trkpt lat="43.99034" lon="1.30062">
        <ele>104.3</ele>
        <time>2017-05-05T10:41:24Z</time>
      </trkpt>
      <trkpt lat="43.99027" lon="1.30051">
        <ele>105.7</ele>
        <time>2017-05-05T10:41:27Z</time>
      </trkpt>
      <trkpt lat="43.99018" lon="1.30041">
        <ele>107.8</ele>
        <time>2017-05-05T10:41:30Z</time>
      </trkpt>
      <trkpt lat="43.99013" lon="1.30032">
        <ele>109.2</ele>
        <time>2017-05-05T10:41:32Z</time>
      </trkpt>
      <trkpt lat="43.99008" lon="1.30023">
        <ele>110.3</ele>
        <time>2017-05-05T10:41:34Z</time>
      </trkpt>
      <trkpt lat="43.99002" lon="1.30011">
        <ele>110.7</ele>
        <time>2017-05-05T10:41:36Z</time>
      </trkpt>
      <trkpt lat="43.98997" lon="1.29999">
        <ele>111.2</ele>
        <time>2017-05-05T10:41:38Z</time>
      </trkpt>
      <trkpt lat="43.98992" lon="1.29988">
        <ele>112</ele>
        <time>2017-05-05T10:41:40Z</time>
      </trkpt>
      <trkpt lat="43.98988" lon="1.29977">
        <ele>112.9</ele>
        <time>2017-05-05T10:41:42Z</time>
      </trkpt>
      <trkpt lat="43.98984" lon="1.29967">
        <ele>113.7</ele>
        <time>2017-05-05T10:41:44Z</time>
      </trkpt>
      <trkpt lat="43.9898" lon="1.29954">
        <ele>113.5</ele>
        <time>2017-05-05T10:41:46Z</time>
      </trkpt>
      <trkpt lat="43.98975" lon="1.29941">
        <ele>113.4</ele>
        <time>2017-05-05T10:41:48Z</time>
      </trkpt>
      <trkpt lat="43.9897" lon="1.29929">
        <ele>113.5</ele>
        <time>2017-05-05T10:41:50Z</time>
      </trkpt>
      <trkpt lat="43.98965" lon="1.29916">
        <ele>113.4</ele>
        <time>2017-05-05T10:41:52Z</time>
      </trkpt>
      <trkpt lat="43.98959" lon="1.29902">
        <ele>113.4</ele>
        <time>2017-05-05T10:41:54Z</time>
      </trkpt>
      <trkpt lat="43.98954" lon="1.29888">
        <ele>113.3</ele>
        <time>2017-05-05T10:41:56Z</time>
      </trkpt>
      <trkpt lat="43.98948" lon="1.29875">
        <ele>113.2</ele>
        <time>2017-05-05T10:41:58Z</time>
      </trkpt>
      <trkpt lat="43.98944" lon="1.29863">
        <ele>113.2</ele>
        <time>2017-05-05T10:42:00Z</time>
      </trkpt>
      <trkpt lat="43.98939" lon="1.29852">
        <ele>113.4</ele>
        <time>2017-05-05T10:42:02Z</time>
      </trkpt>
      <trkpt lat="43.98935" lon="1.2984">
        <ele>113.5</ele>
        <time>2017-05-05T10:42:04Z</time>
      </trkpt>
      <trkpt lat="43.98932" lon="1.29829">
        <ele>113.5</ele>
        <time>2017-05-05T10:42:06Z</time>
      </trkpt>
      <trkpt lat="43.98928" lon="1.29817">
        <ele>113.5</ele>
        <time>2017-05-05T10:42:08Z</time>
      </trkpt>
      <trkpt lat="43.98924" lon="1.29807">
        <ele>113.7</ele>
        <time>2017-05-05T10:42:10Z</time>
      </trkpt>
      <trkpt lat="43.9892" lon="1.29796">
        <ele>114.1</ele>
        <time>2017-05-05T10:42:12Z</time>
      </trkpt>
      <trkpt lat="43.98917" lon="1.29784">
        <ele>114.2</ele>
        <time>2017-05-05T10:42:14Z</time>
      </trkpt>
      <trkpt lat="43.98914" lon="1.29771">
        <ele>114.1</ele>
        <time>2017-05-05T10:42:16Z</time>
      </trkpt>
      <trkpt lat="43.98909" lon="1.29759">
        <ele>113.8</ele>
        <time>2017-05-05T10:42:18Z</time>
      </trkpt>
      <trkpt lat="43.98903" lon="1.29745">
        <ele>112.7</ele>
        <time>2017-05-05T10:42:20Z</time>
      </trkpt>
      <trkpt lat="43.98897" lon="1.29734">
        <ele>111.9</ele>
        <time>2017-05-05T10:42:22Z</time>
      </trkpt>
      <trkpt lat="43.9889" lon="1.29724">
        <ele>111.5</ele>
        <time>2017-05-05T10:42:24Z</time>
      </trkpt>
      <trkpt lat="43.98884" lon="1.29714">
        <ele>110.6</ele>
        <time>2017-05-05T10:42:26Z</time>
      </trkpt>
      <trkpt lat="43.98877" lon="1.29704">
        <ele>110.6</ele>
        <time>2017-05-05T10:42:28Z</time>
      </trkpt>
      <trkpt lat="43.98875" lon="1.29692">
        <ele>110.4</ele>
        <time>2017-05-05T10:42:30Z</time>
      </trkpt>
      <trkpt lat="43.98872" lon="1.2968">
        <ele>109.9</ele>
        <time>2017-05-05T10:42:32Z</time>
      </trkpt>
      <trkpt lat="43.98869" lon="1.29668">
        <ele>110.1</ele>
        <time>2017-05-05T10:42:34Z</time>
      </trkpt>
      <trkpt lat="43.98865" lon="1.29656">
        <ele>109.8</ele>
        <time>2017-05-05T10:42:36Z</time>
      </trkpt>
      <trkpt lat="43.9886" lon="1.29644">
        <ele>109.4</ele>
        <time>2017-05-05T10:42:38Z</time>
      </trkpt>
      <trkpt lat="43.98856" lon="1.29632">
        <ele>109.1</ele>
        <time>2017-05-05T10:42:40Z</time>
      </trkpt>
      <trkpt lat="43.98851" lon="1.2962">
        <ele>108.8</ele>
        <time>2017-05-05T10:42:42Z</time>
      </trkpt>
      <trkpt lat="43.98846" lon="1.29609">
        <ele>108.3</ele>
        <time>2017-05-05T10:42:44Z</time>
      </trkpt>
      <trkpt lat="43.98842" lon="1.29597">
        <ele>108</ele>
        <time>2017-05-05T10:42:46Z</time>
      </trkpt>
      <trkpt lat="43.98837" lon="1.29585">
        <ele>107.9</ele>
        <time>2017-05-05T10:42:48Z</time>
      </trkpt>
      <trkpt lat="43.98832" lon="1.29574">
        <ele>107.8</ele>
        <time>2017-05-05T10:42:50Z</time>
      </trkpt>
      <trkpt lat="43.98829" lon="1.29563">
        <ele>108.2</ele>
        <time>2017-05-05T10:42:52Z</time>
      </trkpt>
      <trkpt lat="43.98824" lon="1.29551">
        <ele>108.4</ele>
        <time>2017-05-05T10:42:54Z</time>
      </trkpt>
      <trkpt lat="43.98819" lon="1.29538">
        <ele>108.6</ele>
        <time>2017-05-05T10:42:56Z</time>
      </trkpt>
      <trkpt lat="43.98815" lon="1.29525">
        <ele>109</ele>
        <time>2017-05-05T10:42:58Z</time>
      </trkpt>
      <trkpt lat="43.9881" lon="1.29512">
        <ele>109.1</ele>
        <time>2017-05-05T10:43:00Z</time>
      </trkpt>
      <trkpt lat="43.98804" lon="1.29498">
        <ele>109.3</ele>
        <time>2017-05-05T10:43:02Z</time>
      </trkpt>
      <trkpt lat="43.98799" lon="1.29483">
        <ele>109.3</ele>
        <time>2017-05-05T10:43:04Z</time>
      </trkpt>
      <trkpt lat="43.98794" lon="1.29469">
        <ele>109.2</ele>
        <time>2017-05-05T10:43:06Z</time>
      </trkpt>
      <trkpt lat="43.98789" lon="1.29455">
        <ele>109.2</ele>
        <time>2017-05-05T10:43:08Z</time>
      </trkpt>
      <trkpt lat="43.98785" lon="1.29441">
        <ele>109.4</ele>
        <time>2017-05-05T10:43:10Z</time>
      </trkpt>
      <trkpt lat="43.98781" lon="1.29428">
        <ele>109.3</ele>
        <time>2017-05-05T10:43:12Z</time>
      </trkpt>
      <trkpt lat="43.98778" lon="1.29415">
        <ele>109.1</ele>
        <time>2017-05-05T10:43:14Z</time>
      </trkpt>
      <trkpt lat="43.98775" lon="1.29401">
        <ele>109.1</ele>
        <time>2017-05-05T10:43:16Z</time>
      </trkpt>
      <trkpt lat="43.98771" lon="1.29388">
        <ele>109.6</ele>
        <time>2017-05-05T10:43:18Z</time>
      </trkpt>
      <trkpt lat="43.98768" lon="1.29375">
        <ele>109.3</ele>
        <time>2017-05-05T10:43:20Z</time>
      </trkpt>
      <trkpt lat="43.98763" lon="1.29362">
        <ele>109</ele>
        <time>2017-05-05T10:43:22Z</time>
      </trkpt>
      <trkpt lat="43.98759" lon="1.29349">
        <ele>109.2</ele>
        <time>2017-05-05T10:43:24Z</time>
      </trkpt>
      <trkpt lat="43.98755" lon="1.29335">
        <ele>109.3</ele>
        <time>2017-05-05T10:43:26Z</time>
      </trkpt>
      <trkpt lat="43.98752" lon="1.29322">
        <ele>108.7</ele>
        <time>2017-05-05T10:43:28Z</time>
      </trkpt>
      <trkpt lat="43.98748" lon="1.29309">
        <ele>108.8</ele>
        <time>2017-05-05T10:43:30Z</time>
      </trkpt>
      <trkpt lat="43.98743" lon="1.29297">
        <ele>109</ele>
        <time>2017-05-05T10:43:32Z</time>
      </trkpt>
      <trkpt lat="43.98738" lon="1.29284">
        <ele>108.9</ele>
        <time>2017-05-05T10:43:34Z</time>
      </trkpt>
      <trkpt lat="43.98734" lon="1.29271">
        <ele>109.1</ele>
        <time>2017-05-05T10:43:36Z</time>
      </trkpt>
      <trkpt lat="43.98729" lon="1.29257">
        <ele>108.7</ele>
        <time>2017-05-05T10:43:38Z</time>
      </trkpt>
      <trkpt lat="43.98725" lon="1.29243">
        <ele>108.4</ele>
        <time>2017-05-05T10:43:40Z</time>
      </trkpt>
      <trkpt lat="43.98722" lon="1.2923">
        <ele>108.3</ele>
        <time>2017-05-05T10:43:42Z</time>
      </trkpt>
      <trkpt lat="43.98717" lon="1.29216">
        <ele>108.5</ele>
        <time>2017-05-05T10:43:44Z</time>
      </trkpt>
      <trkpt lat="43.98711" lon="1.29203">
        <ele>109.5</ele>
        <time>2017-05-05T10:43:46Z</time>
      </trkpt>
      <trkpt lat="43.98706" lon="1.29189">
        <ele>109.7</ele>
        <time>2017-05-05T10:43:48Z</time>
      </trkpt>
      <trkpt lat="43.98702" lon="1.29175">
        <ele>109.9</ele>
        <time>2017-05-05T10:43:50Z</time>
      </trkpt>
      <trkpt lat="43.98698" lon="1.29162">
        <ele>109.9</ele>
        <time>2017-05-05T10:43:52Z</time>
      </trkpt>
      <trkpt lat="43.98694" lon="1.29148">
        <ele>109.9</ele>
        <time>2017-05-05T10:43:54Z</time>
      </trkpt>
      <trkpt lat="43.9869" lon="1.29135">
        <ele>109.7</ele>
        <time>2017-05-05T10:43:56Z</time>
      </trkpt>
      <trkpt lat="43.98687" lon="1.29121">
        <ele>109.5</ele>
        <time>2017-05-05T10:43:58Z</time>
      </trkpt>
      <trkpt lat="43.98684" lon="1.29107">
        <ele>109.3</ele>
        <time>2017-05-05T10:44:00Z</time>
      </trkpt>
      <trkpt lat="43.9868" lon="1.29095">
        <ele>108.8</ele>
        <time>2017-05-05T10:44:02Z</time>
      </trkpt>
      <trkpt lat="43.98677" lon="1.29082">
        <ele>108.1</ele>
        <time>2017-05-05T10:44:04Z</time>
      </trkpt>
      <trkpt lat="43.98672" lon="1.29068">
        <ele>107.5</ele>
        <time>2017-05-05T10:44:06Z</time>
      </trkpt>
      <trkpt lat="43.98669" lon="1.29055">
        <ele>107.1</ele>
        <time>2017-05-05T10:44:08Z</time>
      </trkpt>
      <trkpt lat="43.98665" lon="1.29041">
        <ele>106.7</ele>
        <time>2017-05-05T10:44:10Z</time>
      </trkpt>
      <trkpt lat="43.98661" lon="1.29028">
        <ele>106.3</ele>
        <time>2017-05-05T10:44:12Z</time>
      </trkpt>
      <trkpt lat="43.98657" lon="1.29014">
        <ele>106.1</ele>
        <time>2017-05-05T10:44:14Z</time>
      </trkpt>
      <trkpt lat="43.98653" lon="1.29001">
        <ele>105.8</ele>
        <time>2017-05-05T10:44:16Z</time>
      </trkpt>
      <trkpt lat="43.98648" lon="1.28987">
        <ele>105.6</ele>
        <time>2017-05-05T10:44:18Z</time>
      </trkpt>
      <trkpt lat="43.98644" lon="1.28974">
        <ele>105.2</ele>
        <time>2017-05-05T10:44:20Z</time>
      </trkpt>
      <trkpt lat="43.98639" lon="1.2896">
        <ele>105.2</ele>
        <time>2017-05-05T10:44:22Z</time>
      </trkpt>
      <trkpt lat="43.98635" lon="1.28946">
        <ele>104.7</ele>
        <time>2017-05-05T10:44:24Z</time>
      </trkpt>
      <trkpt lat="43.9863" lon="1.28933">
        <ele>104.3</ele>
        <time>2017-05-05T10:44:26Z</time>
      </trkpt>
      <trkpt lat="43.98627" lon="1.28919">
        <ele>103.9</ele>
        <time>2017-05-05T10:44:28Z</time>
      </trkpt>
      <trkpt lat="43.98622" lon="1.28905">
        <ele>103.7</ele>
        <time>2017-05-05T10:44:30Z</time>
      </trkpt>
      <trkpt lat="43.98617" lon="1.28891">
        <ele>103.4</ele>
        <time>2017-05-05T10:44:32Z</time>
      </trkpt>
      <trkpt lat="43.98611" lon="1.28878">
        <ele>103.3</ele>
        <time>2017-05-05T10:44:34Z</time>
      </trkpt>
      <trkpt lat="43.98607" lon="1.28866">
        <ele>103.3</ele>
        <time>2017-05-05T10:44:36Z</time>
      </trkpt>
      <trkpt lat="43.98603" lon="1.28855">
        <ele>103.4</ele>
        <time>2017-05-05T10:44:38Z</time>
      </trkpt>
      <trkpt lat="43.986" lon="1.28845">
        <ele>103.3</ele>
        <time>2017-05-05T10:44:40Z</time>
      </trkpt>
      <trkpt lat="43.98598" lon="1.28835">
        <ele>103</ele>
        <time>2017-05-05T10:44:42Z</time>
      </trkpt>
      <trkpt lat="43.98596" lon="1.28826">
        <ele>103.2</ele>
        <time>2017-05-05T10:44:44Z</time>
      </trkpt>
      <trkpt lat="43.98593" lon="1.28815">
        <ele>103.5</ele>
        <time>2017-05-05T10:44:46Z</time>
      </trkpt>
      <trkpt lat="43.9859" lon="1.28804">
        <ele>103.6</ele>
        <time>2017-05-05T10:44:48Z</time>
      </trkpt>
      <trkpt lat="43.98587" lon="1.28794">
        <ele>103.4</ele>
        <time>2017-05-05T10:44:50Z</time>
      </trkpt>
      <trkpt lat="43.98583" lon="1.28784">
        <ele>103.4</ele>
        <time>2017-05-05T10:44:52Z</time>
      </trkpt>
      <trkpt lat="43.9858" lon="1.28773">
        <ele>103.2</ele>
        <time>2017-05-05T10:44:54Z</time>
      </trkpt>
      <trkpt lat="43.98576" lon="1.28761">
        <ele>103.2</ele>
        <time>2017-05-05T10:44:56Z</time>
      </trkpt>
      <trkpt lat="43.98572" lon="1.28749">
        <ele>103</ele>
        <time>2017-05-05T10:44:58Z</time>
      </trkpt>
      <trkpt lat="43.98567" lon="1.28735">
        <ele>102.7</ele>
        <time>2017-05-05T10:45:00Z</time>
      </trkpt>
      <trkpt lat="43.98563" lon="1.28722">
        <ele>102.4</ele>
        <time>2017-05-05T10:45:02Z</time>
      </trkpt>
      <trkpt lat="43.98558" lon="1.28709">
        <ele>101.9</ele>
        <time>2017-05-05T10:45:04Z</time>
      </trkpt>
      <trkpt lat="43.98554" lon="1.28697">
        <ele>101.5</ele>
        <time>2017-05-05T10:45:06Z</time>
      </trkpt>
      <trkpt lat="43.98551" lon="1.28685">
        <ele>101.2</ele>
        <time>2017-05-05T10:45:08Z</time>
      </trkpt>
      <trkpt lat="43.98547" lon="1.28673">
        <ele>101</ele>
        <time>2017-05-05T10:45:10Z</time>
      </trkpt>
      <trkpt lat="43.98543" lon="1.28661">
        <ele>100.9</ele>
        <time>2017-05-05T10:45:12Z</time>
      </trkpt>
      <trkpt lat="43.98539" lon="1.28649">
        <ele>100.9</ele>
        <time>2017-05-05T10:45:14Z</time>
      </trkpt>
      <trkpt lat="43.98535" lon="1.28636">
        <ele>101</ele>
        <time>2017-05-05T10:45:16Z</time>
      </trkpt>
      <trkpt lat="43.98532" lon="1.28624">
        <ele>100.9</ele>
        <time>2017-05-05T10:45:18Z</time>
      </trkpt>
      <trkpt lat="43.98528" lon="1.28612">
        <ele>100.7</ele>
        <time>2017-05-05T10:45:20Z</time>
      </trkpt>
      <trkpt lat="43.98524" lon="1.286">
        <ele>100.4</ele>
        <time>2017-05-05T10:45:22Z</time>
      </trkpt>
      <trkpt lat="43.9852" lon="1.28589">
        <ele>100.7</ele>
        <time>2017-05-05T10:45:24Z</time>
      </trkpt>
      <trkpt lat="43.98514" lon="1.28577">
        <ele>101.4</ele>
        <time>2017-05-05T10:45:26Z</time>
      </trkpt>
      <trkpt lat="43.98511" lon="1.28565">
        <ele>101.8</ele>
        <time>2017-05-05T10:45:28Z</time>
      </trkpt>
      <trkpt lat="43.98507" lon="1.28552">
        <ele>101.7</ele>
        <time>2017-05-05T10:45:30Z</time>
      </trkpt>
      <trkpt lat="43.98504" lon="1.28539">
        <ele>102.3</ele>
        <time>2017-05-05T10:45:32Z</time>
      </trkpt>
      <trkpt lat="43.985" lon="1.28527">
        <ele>102.9</ele>
        <time>2017-05-05T10:45:34Z</time>
      </trkpt>
      <trkpt lat="43.98496" lon="1.28516">
        <ele>103.7</ele>
        <time>2017-05-05T10:45:36Z</time>
      </trkpt>
      <trkpt lat="43.98493" lon="1.28504">
        <ele>104.3</ele>
        <time>2017-05-05T10:45:38Z</time>
      </trkpt>
      <trkpt lat="43.98489" lon="1.28491">
        <ele>104.1</ele>
        <time>2017-05-05T10:45:40Z</time>
      </trkpt>
      <trkpt lat="43.98485" lon="1.28478">
        <ele>104</ele>
        <time>2017-05-05T10:45:42Z</time>
      </trkpt>
      <trkpt lat="43.98481" lon="1.28465">
        <ele>103.7</ele>
        <time>2017-05-05T10:45:44Z</time>
      </trkpt>
      <trkpt lat="43.98477" lon="1.28452">
        <ele>103.9</ele>
        <time>2017-05-05T10:45:46Z</time>
      </trkpt>
      <trkpt lat="43.98474" lon="1.28439">
        <ele>103.9</ele>
        <time>2017-05-05T10:45:48Z</time>
      </trkpt>
      <trkpt lat="43.9847" lon="1.28427">
        <ele>104.3</ele>
        <time>2017-05-05T10:45:50Z</time>
      </trkpt>
      <trkpt lat="43.98466" lon="1.28417">
        <ele>104.7</ele>
        <time>2017-05-05T10:45:52Z</time>
      </trkpt>
      <trkpt lat="43.98463" lon="1.28407">
        <ele>106</ele>
        <time>2017-05-05T10:45:54Z</time>
      </trkpt>
      <trkpt lat="43.98457" lon="1.28396">
        <ele>107.9</ele>
        <time>2017-05-05T10:45:56Z</time>
      </trkpt>
      <trkpt lat="43.98454" lon="1.28386">
        <ele>108.7</ele>
        <time>2017-05-05T10:45:58Z</time>
      </trkpt>
      <trkpt lat="43.9845" lon="1.28376">
        <ele>109.5</ele>
        <time>2017-05-05T10:46:00Z</time>
      </trkpt>
      <trkpt lat="43.98447" lon="1.28367">
        <ele>109.7</ele>
        <time>2017-05-05T10:46:02Z</time>
      </trkpt>
      <trkpt lat="43.98444" lon="1.28356">
        <ele>110.2</ele>
        <time>2017-05-05T10:46:05Z</time>
      </trkpt>
      <trkpt lat="43.98439" lon="1.28343">
        <ele>111.6</ele>
        <time>2017-05-05T10:46:08Z</time>
      </trkpt>
      <trkpt lat="43.98437" lon="1.28329">
        <ele>111.5</ele>
        <time>2017-05-05T10:46:11Z</time>
      </trkpt>
      <trkpt lat="43.98434" lon="1.28318">
        <ele>111.7</ele>
        <time>2017-05-05T10:46:13Z</time>
      </trkpt>
      <trkpt lat="43.9843" lon="1.28306">
        <ele>112.1</ele>
        <time>2017-05-05T10:46:15Z</time>
      </trkpt>
      <trkpt lat="43.98426" lon="1.28295">
        <ele>112.5</ele>
        <time>2017-05-05T10:46:17Z</time>
      </trkpt>
      <trkpt lat="43.98422" lon="1.28283">
        <ele>112.4</ele>
        <time>2017-05-05T10:46:19Z</time>
      </trkpt>
      <trkpt lat="43.98418" lon="1.2827">
        <ele>112.5</ele>
        <time>2017-05-05T10:46:21Z</time>
      </trkpt>
      <trkpt lat="43.98414" lon="1.28258">
        <ele>112.7</ele>
        <time>2017-05-05T10:46:23Z</time>
      </trkpt>
      <trkpt lat="43.9841" lon="1.28245">
        <ele>113.1</ele>
        <time>2017-05-05T10:46:25Z</time>
      </trkpt>
      <trkpt lat="43.98405" lon="1.28234">
        <ele>113.2</ele>
        <time>2017-05-05T10:46:27Z</time>
      </trkpt>
      <trkpt lat="43.98403" lon="1.28222">
        <ele>113.8</ele>
        <time>2017-05-05T10:46:29Z</time>
      </trkpt>
      <trkpt lat="43.984" lon="1.28211">
        <ele>114.3</ele>
        <time>2017-05-05T10:46:31Z</time>
      </trkpt>
      <trkpt lat="43.98396" lon="1.28197">
        <ele>114.5</ele>
        <time>2017-05-05T10:46:33Z</time>
      </trkpt>
      <trkpt lat="43.98393" lon="1.28181">
        <ele>114.2</ele>
        <time>2017-05-05T10:46:35Z</time>
      </trkpt>
      <trkpt lat="43.98391" lon="1.28167">
        <ele>113.9</ele>
        <time>2017-05-05T10:46:37Z</time>
      </trkpt>
      <trkpt lat="43.98388" lon="1.28152">
        <ele>113.5</ele>
        <time>2017-05-05T10:46:39Z</time>
      </trkpt>
      <trkpt lat="43.98387" lon="1.28137">
        <ele>112.9</ele>
        <time>2017-05-05T10:46:41Z</time>
      </trkpt>
      <trkpt lat="43.98385" lon="1.28123">
        <ele>112.7</ele>
        <time>2017-05-05T10:46:43Z</time>
      </trkpt>
      <trkpt lat="43.98384" lon="1.28109">
        <ele>112.3</ele>
        <time>2017-05-05T10:46:45Z</time>
      </trkpt>
      <trkpt lat="43.98383" lon="1.28097">
        <ele>112.4</ele>
        <time>2017-05-05T10:46:47Z</time>
      </trkpt>
      <trkpt lat="43.98383" lon="1.28085">
        <ele>112.7</ele>
        <time>2017-05-05T10:46:49Z</time>
      </trkpt>
      <trkpt lat="43.98382" lon="1.28072">
        <ele>114.1</ele>
        <time>2017-05-05T10:46:52Z</time>
      </trkpt>
      <trkpt lat="43.98382" lon="1.28062">
        <ele>114.5</ele>
        <time>2017-05-05T10:46:55Z</time>
      </trkpt>
      <trkpt lat="43.98383" lon="1.28048">
        <ele>114.5</ele>
        <time>2017-05-05T10:46:58Z</time>
      </trkpt>
      <trkpt lat="43.98383" lon="1.28037">
        <ele>114.9</ele>
        <time>2017-05-05T10:47:01Z</time>
      </trkpt>
      <trkpt lat="43.98385" lon="1.28026">
        <ele>115.8</ele>
        <time>2017-05-05T10:47:04Z</time>
      </trkpt>
      <trkpt lat="43.98387" lon="1.28013">
        <ele>115.9</ele>
        <time>2017-05-05T10:47:08Z</time>
      </trkpt>
      <trkpt lat="43.98379" lon="1.28007">
        <ele>114.4</ele>
        <time>2017-05-05T10:47:12Z</time>
      </trkpt>
      <trkpt lat="43.98369" lon="1.28007">
        <ele>113.6</ele>
        <time>2017-05-05T10:47:16Z</time>
      </trkpt>
      <trkpt lat="43.98361" lon="1.28007">
        <ele>113.3</ele>
        <time>2017-05-05T10:47:19Z</time>
      </trkpt>
      <trkpt lat="43.98354" lon="1.28002">
        <ele>113</ele>
        <time>2017-05-05T10:47:22Z</time>
      </trkpt>
      <trkpt lat="43.98355" lon="1.27991">
        <ele>112.4</ele>
        <time>2017-05-05T10:47:24Z</time>
      </trkpt>
      <trkpt lat="43.98357" lon="1.27976">
        <ele>111.7</ele>
        <time>2017-05-05T10:47:26Z</time>
      </trkpt>
      <trkpt lat="43.98357" lon="1.27958">
        <ele>110.8</ele>
        <time>2017-05-05T10:47:28Z</time>
      </trkpt>
      <trkpt lat="43.98358" lon="1.27939">
        <ele>110.4</ele>
        <time>2017-05-05T10:47:30Z</time>
      </trkpt>
      <trkpt lat="43.98357" lon="1.2792">
        <ele>110</ele>
        <time>2017-05-05T10:47:32Z</time>
      </trkpt>
      <trkpt lat="43.98356" lon="1.27901">
        <ele>109.7</ele>
        <time>2017-05-05T10:47:34Z</time>
      </trkpt>
      <trkpt lat="43.98359" lon="1.27882">
        <ele>109.4</ele>
        <time>2017-05-05T10:47:36Z</time>
      </trkpt>
      <trkpt lat="43.98361" lon="1.27863">
        <ele>109.2</ele>
        <time>2017-05-05T10:47:38Z</time>
      </trkpt>
      <trkpt lat="43.98361" lon="1.27844">
        <ele>108.8</ele>
        <time>2017-05-05T10:47:40Z</time>
      </trkpt>
      <trkpt lat="43.98361" lon="1.27825">
        <ele>108.5</ele>
        <time>2017-05-05T10:47:42Z</time>
      </trkpt>
      <trkpt lat="43.98361" lon="1.27806">
        <ele>108.3</ele>
        <time>2017-05-05T10:47:44Z</time>
      </trkpt>
      <trkpt lat="43.98362" lon="1.27787">
        <ele>108.3</ele>
        <time>2017-05-05T10:47:46Z</time>
      </trkpt>
      <trkpt lat="43.98363" lon="1.27767">
        <ele>107.9</ele>
        <time>2017-05-05T10:47:48Z</time>
      </trkpt>
      <trkpt lat="43.98364" lon="1.27757">
        <ele>108.3</ele>
        <time>2017-05-05T10:47:49Z</time>
      </trkpt>
      <trkpt lat="43.98365" lon="1.27739">
        <ele>108.7</ele>
        <time>2017-05-05T10:47:51Z</time>
      </trkpt>
      <trkpt lat="43.98366" lon="1.27722">
        <ele>109.1</ele>
        <time>2017-05-05T10:47:53Z</time>
      </trkpt>
      <trkpt lat="43.98366" lon="1.27705">
        <ele>110.1</ele>
        <time>2017-05-05T10:47:55Z</time>
      </trkpt>
      <trkpt lat="43.98366" lon="1.27689">
        <ele>110.7</ele>
        <time>2017-05-05T10:47:57Z</time>
      </trkpt>
      <trkpt lat="43.98365" lon="1.27672">
        <ele>111.3</ele>
        <time>2017-05-05T10:47:59Z</time>
      </trkpt>
      <trkpt lat="43.98365" lon="1.27655">
        <ele>111.6</ele>
        <time>2017-05-05T10:48:01Z</time>
      </trkpt>
      <trkpt lat="43.98365" lon="1.27638">
        <ele>112.2</ele>
        <time>2017-05-05T10:48:03Z</time>
      </trkpt>
      <trkpt lat="43.98364" lon="1.27622">
        <ele>112.3</ele>
        <time>2017-05-05T10:48:05Z</time>
      </trkpt>
      <trkpt lat="43.98364" lon="1.27606">
        <ele>112.5</ele>
        <time>2017-05-05T10:48:07Z</time>
      </trkpt>
      <trkpt lat="43.98364" lon="1.27588">
        <ele>112.9</ele>
        <time>2017-05-05T10:48:09Z</time>
      </trkpt>
      <trkpt lat="43.98364" lon="1.27571">
        <ele>113.1</ele>
        <time>2017-05-05T10:48:11Z</time>
      </trkpt>
      <trkpt lat="43.98364" lon="1.27554">
        <ele>113.2</ele>
        <time>2017-05-05T10:48:13Z</time>
      </trkpt>
      <trkpt lat="43.98364" lon="1.27537">
        <ele>113.4</ele>
        <time>2017-05-05T10:48:15Z</time>
      </trkpt>
      <trkpt lat="43.98364" lon="1.2752">
        <ele>113.4</ele>
        <time>2017-05-05T10:48:17Z</time>
      </trkpt>
      <trkpt lat="43.98364" lon="1.27502">
        <ele>114</ele>
        <time>2017-05-05T10:48:19Z</time>
      </trkpt>
      <trkpt lat="43.98364" lon="1.27485">
        <ele>114</ele>
        <time>2017-05-05T10:48:21Z</time>
      </trkpt>
      <trkpt lat="43.98365" lon="1.27468">
        <ele>114.1</ele>
        <time>2017-05-05T10:48:23Z</time>
      </trkpt>
      <trkpt lat="43.98365" lon="1.2745">
        <ele>114.4</ele>
        <time>2017-05-05T10:48:25Z</time>
      </trkpt>
      <trkpt lat="43.98366" lon="1.27434">
        <ele>114.8</ele>
        <time>2017-05-05T10:48:27Z</time>
      </trkpt>
      <trkpt lat="43.98365" lon="1.27417">
        <ele>115.2</ele>
        <time>2017-05-05T10:48:29Z</time>
      </trkpt>
      <trkpt lat="43.98365" lon="1.27398">
        <ele>115.4</ele>
        <time>2017-05-05T10:48:31Z</time>
      </trkpt>
      <trkpt lat="43.98366" lon="1.2738">
        <ele>114.9</ele>
        <time>2017-05-05T10:48:33Z</time>
      </trkpt>
      <trkpt lat="43.98366" lon="1.27362">
        <ele>113.8</ele>
        <time>2017-05-05T10:48:35Z</time>
      </trkpt>
      <trkpt lat="43.98366" lon="1.27343">
        <ele>113.6</ele>
        <time>2017-05-05T10:48:37Z</time>
      </trkpt>
      <trkpt lat="43.98366" lon="1.27325">
        <ele>113.1</ele>
        <time>2017-05-05T10:48:39Z</time>
      </trkpt>
      <trkpt lat="43.98367" lon="1.27307">
        <ele>112.8</ele>
        <time>2017-05-05T10:48:41Z</time>
      </trkpt>
      <trkpt lat="43.98368" lon="1.27289">
        <ele>112</ele>
        <time>2017-05-05T10:48:43Z</time>
      </trkpt>
      <trkpt lat="43.98368" lon="1.27271">
        <ele>111.7</ele>
        <time>2017-05-05T10:48:45Z</time>
      </trkpt>
      <trkpt lat="43.98368" lon="1.27254">
        <ele>111.9</ele>
        <time>2017-05-05T10:48:47Z</time>
      </trkpt>
      <trkpt lat="43.98368" lon="1.27236">
        <ele>111.4</ele>
        <time>2017-05-05T10:48:49Z</time>
      </trkpt>
      <trkpt lat="43.98368" lon="1.27217">
        <ele>110.9</ele>
        <time>2017-05-05T10:48:51Z</time>
      </trkpt>
      <trkpt lat="43.98369" lon="1.27198">
        <ele>110.5</ele>
        <time>2017-05-05T10:48:53Z</time>
      </trkpt>
      <trkpt lat="43.9837" lon="1.2718">
        <ele>110.3</ele>
        <time>2017-05-05T10:48:55Z</time>
      </trkpt>
      <trkpt lat="43.98371" lon="1.27162">
        <ele>109.9</ele>
        <time>2017-05-05T10:48:57Z</time>
      </trkpt>
      <trkpt lat="43.9837" lon="1.27143">
        <ele>110</ele>
        <time>2017-05-05T10:48:59Z</time>
      </trkpt>
      <trkpt lat="43.98369" lon="1.27125">
        <ele>110</ele>
        <time>2017-05-05T10:49:01Z</time>
      </trkpt>
      <trkpt lat="43.98369" lon="1.27107">
        <ele>109.9</ele>
        <time>2017-05-05T10:49:03Z</time>
      </trkpt>
      <trkpt lat="43.98369" lon="1.27088">
        <ele>110</ele>
        <time>2017-05-05T10:49:05Z</time>
      </trkpt>
      <trkpt lat="43.9837" lon="1.2707">
        <ele>109.4</ele>
        <time>2017-05-05T10:49:07Z</time>
      </trkpt>
      <trkpt lat="43.98371" lon="1.27051">
        <ele>109.3</ele>
        <time>2017-05-05T10:49:09Z</time>
      </trkpt>
      <trkpt lat="43.98371" lon="1.27034">
        <ele>109.4</ele>
        <time>2017-05-05T10:49:11Z</time>
      </trkpt>
      <trkpt lat="43.98372" lon="1.27016">
        <ele>109.5</ele>
        <time>2017-05-05T10:49:13Z</time>
      </trkpt>
      <trkpt lat="43.98372" lon="1.26998">
        <ele>109.2</ele>
        <time>2017-05-05T10:49:15Z</time>
      </trkpt>
      <trkpt lat="43.98372" lon="1.26979">
        <ele>109.3</ele>
        <time>2017-05-05T10:49:17Z</time>
      </trkpt>
      <trkpt lat="43.98372" lon="1.2696">
        <ele>108.9</ele>
        <time>2017-05-05T10:49:19Z</time>
      </trkpt>
      <trkpt lat="43.98372" lon="1.26942">
        <ele>109.2</ele>
        <time>2017-05-05T10:49:21Z</time>
      </trkpt>
      <trkpt lat="43.98373" lon="1.26923">
        <ele>109.1</ele>
        <time>2017-05-05T10:49:23Z</time>
      </trkpt>
      <trkpt lat="43.98373" lon="1.26905">
        <ele>108.9</ele>
        <time>2017-05-05T10:49:25Z</time>
      </trkpt>
      <trkpt lat="43.98373" lon="1.26886">
        <ele>108.6</ele>
        <time>2017-05-05T10:49:27Z</time>
      </trkpt>
      <trkpt lat="43.98373" lon="1.26868">
        <ele>108.8</ele>
        <time>2017-05-05T10:49:29Z</time>
      </trkpt>
      <trkpt lat="43.98373" lon="1.2685">
        <ele>109</ele>
        <time>2017-05-05T10:49:31Z</time>
      </trkpt>
      <trkpt lat="43.98374" lon="1.26831">
        <ele>108.8</ele>
        <time>2017-05-05T10:49:33Z</time>
      </trkpt>
      <trkpt lat="43.98374" lon="1.26812">
        <ele>108.3</ele>
        <time>2017-05-05T10:49:35Z</time>
      </trkpt>
      <trkpt lat="43.98374" lon="1.26794">
        <ele>107.5</ele>
        <time>2017-05-05T10:49:37Z</time>
      </trkpt>
      <trkpt lat="43.98374" lon="1.26775">
        <ele>107.7</ele>
        <time>2017-05-05T10:49:39Z</time>
      </trkpt>
      <trkpt lat="43.98374" lon="1.26756">
        <ele>107.8</ele>
        <time>2017-05-05T10:49:41Z</time>
      </trkpt>
      <trkpt lat="43.98375" lon="1.26736">
        <ele>108</ele>
        <time>2017-05-05T10:49:43Z</time>
      </trkpt>
      <trkpt lat="43.98375" lon="1.26718">
        <ele>108</ele>
        <time>2017-05-05T10:49:45Z</time>
      </trkpt>
      <trkpt lat="43.98375" lon="1.26699">
        <ele>108.1</ele>
        <time>2017-05-05T10:49:47Z</time>
      </trkpt>
      <trkpt lat="43.98375" lon="1.2668">
        <ele>107.9</ele>
        <time>2017-05-05T10:49:49Z</time>
      </trkpt>
      <trkpt lat="43.98376" lon="1.26661">
        <ele>107.5</ele>
        <time>2017-05-05T10:49:51Z</time>
      </trkpt>
      <trkpt lat="43.98376" lon="1.26642">
        <ele>106.9</ele>
        <time>2017-05-05T10:49:53Z</time>
      </trkpt>
      <trkpt lat="43.98377" lon="1.26624">
        <ele>107</ele>
        <time>2017-05-05T10:49:55Z</time>
      </trkpt>
      <trkpt lat="43.98377" lon="1.26605">
        <ele>106.6</ele>
        <time>2017-05-05T10:49:57Z</time>
      </trkpt>
      <trkpt lat="43.98377" lon="1.26585">
        <ele>107</ele>
        <time>2017-05-05T10:49:59Z</time>
      </trkpt>
      <trkpt lat="43.98378" lon="1.26566">
        <ele>106.9</ele>
        <time>2017-05-05T10:50:01Z</time>
      </trkpt>
      <trkpt lat="43.98378" lon="1.26546">
        <ele>107.2</ele>
        <time>2017-05-05T10:50:03Z</time>
      </trkpt>
      <trkpt lat="43.98378" lon="1.26536">
        <ele>107.4</ele>
        <time>2017-05-05T10:50:04Z</time>
      </trkpt>
      <trkpt lat="43.98378" lon="1.26526">
        <ele>107.4</ele>
        <time>2017-05-05T10:50:05Z</time>
      </trkpt>
      <trkpt lat="43.98379" lon="1.26516">
        <ele>107.6</ele>
        <time>2017-05-05T10:50:06Z</time>
      </trkpt>
      <trkpt lat="43.98379" lon="1.26506">
        <ele>107.6</ele>
        <time>2017-05-05T10:50:07Z</time>
      </trkpt>
      <trkpt lat="43.98379" lon="1.26496">
        <ele>107.2</ele>
        <time>2017-05-05T10:50:08Z</time>
      </trkpt>
      <trkpt lat="43.9838" lon="1.26485">
        <ele>107.2</ele>
        <time>2017-05-05T10:50:09Z</time>
      </trkpt>
      <trkpt lat="43.9838" lon="1.26475">
        <ele>107.1</ele>
        <time>2017-05-05T10:50:10Z</time>
      </trkpt>
      <trkpt lat="43.98381" lon="1.26464">
        <ele>107.2</ele>
        <time>2017-05-05T10:50:11Z</time>
      </trkpt>
      <trkpt lat="43.98381" lon="1.26454">
        <ele>107.4</ele>
        <time>2017-05-05T10:50:12Z</time>
      </trkpt>
      <trkpt lat="43.98382" lon="1.26444">
        <ele>107.4</ele>
        <time>2017-05-05T10:50:13Z</time>
      </trkpt>
      <trkpt lat="43.98384" lon="1.26424">
        <ele>107.5</ele>
        <time>2017-05-05T10:50:15Z</time>
      </trkpt>
      <trkpt lat="43.98384" lon="1.26414">
        <ele>107.8</ele>
        <time>2017-05-05T10:50:16Z</time>
      </trkpt>
      <trkpt lat="43.98384" lon="1.26394">
        <ele>107.7</ele>
        <time>2017-05-05T10:50:18Z</time>
      </trkpt>
      <trkpt lat="43.98384" lon="1.26384">
        <ele>108.1</ele>
        <time>2017-05-05T10:50:19Z</time>
      </trkpt>
      <trkpt lat="43.98383" lon="1.26374">
        <ele>108.1</ele>
        <time>2017-05-05T10:50:20Z</time>
      </trkpt>
      <trkpt lat="43.98383" lon="1.26364">
        <ele>108</ele>
        <time>2017-05-05T10:50:21Z</time>
      </trkpt>
      <trkpt lat="43.98382" lon="1.26354">
        <ele>107.5</ele>
        <time>2017-05-05T10:50:22Z</time>
      </trkpt>
      <trkpt lat="43.98382" lon="1.26344">
        <ele>106.9</ele>
        <time>2017-05-05T10:50:23Z</time>
      </trkpt>
      <trkpt lat="43.98382" lon="1.26333">
        <ele>106.9</ele>
        <time>2017-05-05T10:50:24Z</time>
      </trkpt>
      <trkpt lat="43.98382" lon="1.26323">
        <ele>106.8</ele>
        <time>2017-05-05T10:50:25Z</time>
      </trkpt>
      <trkpt lat="43.98383" lon="1.26313">
        <ele>106.7</ele>
        <time>2017-05-05T10:50:26Z</time>
      </trkpt>
      <trkpt lat="43.98383" lon="1.26302">
        <ele>106.7</ele>
        <time>2017-05-05T10:50:27Z</time>
      </trkpt>
      <trkpt lat="43.98382" lon="1.26292">
        <ele>106.3</ele>
        <time>2017-05-05T10:50:28Z</time>
      </trkpt>
      <trkpt lat="43.98382" lon="1.26282">
        <ele>106</ele>
        <time>2017-05-05T10:50:29Z</time>
      </trkpt>
      <trkpt lat="43.98382" lon="1.26272">
        <ele>105.7</ele>
        <time>2017-05-05T10:50:30Z</time>
      </trkpt>
      <trkpt lat="43.98383" lon="1.26262">
        <ele>105.5</ele>
        <time>2017-05-05T10:50:31Z</time>
      </trkpt>
      <trkpt lat="43.98383" lon="1.26251">
        <ele>105.2</ele>
        <time>2017-05-05T10:50:32Z</time>
      </trkpt>
      <trkpt lat="43.98383" lon="1.26241">
        <ele>105.1</ele>
        <time>2017-05-05T10:50:33Z</time>
      </trkpt>
      <trkpt lat="43.98383" lon="1.2623">
        <ele>104.8</ele>
        <time>2017-05-05T10:50:34Z</time>
      </trkpt>
      <trkpt lat="43.98383" lon="1.2622">
        <ele>104.6</ele>
        <time>2017-05-05T10:50:35Z</time>
      </trkpt>
      <trkpt lat="43.98383" lon="1.2621">
        <ele>104.6</ele>
        <time>2017-05-05T10:50:36Z</time>
      </trkpt>
      <trkpt lat="43.98383" lon="1.262">
        <ele>104.5</ele>
        <time>2017-05-05T10:50:37Z</time>
      </trkpt>
      <trkpt lat="43.98383" lon="1.26189">
        <ele>104.7</ele>
        <time>2017-05-05T10:50:38Z</time>
      </trkpt>
      <trkpt lat="43.98383" lon="1.26179">
        <ele>104.7</ele>
        <time>2017-05-05T10:50:39Z</time>
      </trkpt>
      <trkpt lat="43.98383" lon="1.26169">
        <ele>104.8</ele>
        <time>2017-05-05T10:50:40Z</time>
      </trkpt>
      <trkpt lat="43.98383" lon="1.26159">
        <ele>105</ele>
        <time>2017-05-05T10:50:41Z</time>
      </trkpt>
      <trkpt lat="43.98382" lon="1.26149">
        <ele>105</ele>
        <time>2017-05-05T10:50:42Z</time>
      </trkpt>
      <trkpt lat="43.98382" lon="1.26129">
        <ele>105.4</ele>
        <time>2017-05-05T10:50:44Z</time>
      </trkpt>
      <trkpt lat="43.98382" lon="1.26119">
        <ele>105</ele>
        <time>2017-05-05T10:50:45Z</time>
      </trkpt>
      <trkpt lat="43.98381" lon="1.26109">
        <ele>105.3</ele>
        <time>2017-05-05T10:50:46Z</time>
      </trkpt>
      <trkpt lat="43.98379" lon="1.2609">
        <ele>105.3</ele>
        <time>2017-05-05T10:50:48Z</time>
      </trkpt>
      <trkpt lat="43.98378" lon="1.26072">
        <ele>105.6</ele>
        <time>2017-05-05T10:50:50Z</time>
      </trkpt>
      <trkpt lat="43.98376" lon="1.26054">
        <ele>106</ele>
        <time>2017-05-05T10:50:52Z</time>
      </trkpt>
      <trkpt lat="43.98375" lon="1.26035">
        <ele>106.6</ele>
        <time>2017-05-05T10:50:54Z</time>
      </trkpt>
      <trkpt lat="43.98373" lon="1.26016">
        <ele>106.9</ele>
        <time>2017-05-05T10:50:56Z</time>
      </trkpt>
      <trkpt lat="43.98371" lon="1.25997">
        <ele>107.1</ele>
        <time>2017-05-05T10:50:58Z</time>
      </trkpt>
      <trkpt lat="43.98369" lon="1.25978">
        <ele>107.3</ele>
        <time>2017-05-05T10:51:00Z</time>
      </trkpt>
      <trkpt lat="43.98367" lon="1.25961">
        <ele>106.8</ele>
        <time>2017-05-05T10:51:02Z</time>
      </trkpt>
      <trkpt lat="43.98365" lon="1.25943">
        <ele>106.7</ele>
        <time>2017-05-05T10:51:04Z</time>
      </trkpt>
      <trkpt lat="43.98362" lon="1.25924">
        <ele>106.6</ele>
        <time>2017-05-05T10:51:06Z</time>
      </trkpt>
      <trkpt lat="43.9836" lon="1.25906">
        <ele>106.7</ele>
        <time>2017-05-05T10:51:08Z</time>
      </trkpt>
      <trkpt lat="43.98357" lon="1.25889">
        <ele>106.8</ele>
        <time>2017-05-05T10:51:10Z</time>
      </trkpt>
      <trkpt lat="43.98354" lon="1.25873">
        <ele>106.6</ele>
        <time>2017-05-05T10:51:12Z</time>
      </trkpt>
      <trkpt lat="43.9835" lon="1.25856">
        <ele>106.5</ele>
        <time>2017-05-05T10:51:14Z</time>
      </trkpt>
      <trkpt lat="43.98347" lon="1.25839">
        <ele>105.1</ele>
        <time>2017-05-05T10:51:16Z</time>
      </trkpt>
      <trkpt lat="43.98344" lon="1.25823">
        <ele>104.6</ele>
        <time>2017-05-05T10:51:18Z</time>
      </trkpt>
      <trkpt lat="43.98341" lon="1.25807">
        <ele>104.3</ele>
        <time>2017-05-05T10:51:20Z</time>
      </trkpt>
      <trkpt lat="43.98337" lon="1.25791">
        <ele>103.4</ele>
        <time>2017-05-05T10:51:22Z</time>
      </trkpt>
      <trkpt lat="43.98333" lon="1.25775">
        <ele>103.4</ele>
        <time>2017-05-05T10:51:24Z</time>
      </trkpt>
      <trkpt lat="43.98329" lon="1.25758">
        <ele>103.2</ele>
        <time>2017-05-05T10:51:26Z</time>
      </trkpt>
      <trkpt lat="43.98324" lon="1.25742">
        <ele>103</ele>
        <time>2017-05-05T10:51:28Z</time>
      </trkpt>
      <trkpt lat="43.9832" lon="1.25726">
        <ele>103.1</ele>
        <time>2017-05-05T10:51:30Z</time>
      </trkpt>
      <trkpt lat="43.98316" lon="1.25709">
        <ele>102.7</ele>
        <time>2017-05-05T10:51:32Z</time>
      </trkpt>
      <trkpt lat="43.98312" lon="1.25693">
        <ele>102.4</ele>
        <time>2017-05-05T10:51:34Z</time>
      </trkpt>
      <trkpt lat="43.98306" lon="1.25677">
        <ele>102.7</ele>
        <time>2017-05-05T10:51:36Z</time>
      </trkpt>
      <trkpt lat="43.98301" lon="1.25662">
        <ele>103.1</ele>
        <time>2017-05-05T10:51:38Z</time>
      </trkpt>
      <trkpt lat="43.98295" lon="1.25648">
        <ele>103.7</ele>
        <time>2017-05-05T10:51:40Z</time>
      </trkpt>
      <trkpt lat="43.98291" lon="1.25633">
        <ele>104.5</ele>
        <time>2017-05-05T10:51:42Z</time>
      </trkpt>
      <trkpt lat="43.98285" lon="1.25619">
        <ele>104.5</ele>
        <time>2017-05-05T10:51:44Z</time>
      </trkpt>
      <trkpt lat="43.98279" lon="1.25603">
        <ele>105.4</ele>
        <time>2017-05-05T10:51:46Z</time>
      </trkpt>
      <trkpt lat="43.98273" lon="1.25588">
        <ele>106</ele>
        <time>2017-05-05T10:51:48Z</time>
      </trkpt>
      <trkpt lat="43.98267" lon="1.25574">
        <ele>106.6</ele>
        <time>2017-05-05T10:51:50Z</time>
      </trkpt>
      <trkpt lat="43.9826" lon="1.2556">
        <ele>107.4</ele>
        <time>2017-05-05T10:51:52Z</time>
      </trkpt>
      <trkpt lat="43.98254" lon="1.25547">
        <ele>107.7</ele>
        <time>2017-05-05T10:51:54Z</time>
      </trkpt>
      <trkpt lat="43.98248" lon="1.25532">
        <ele>107.6</ele>
        <time>2017-05-05T10:51:56Z</time>
      </trkpt>
      <trkpt lat="43.98242" lon="1.25516">
        <ele>107.7</ele>
        <time>2017-05-05T10:51:58Z</time>
      </trkpt>
      <trkpt lat="43.98236" lon="1.25501">
        <ele>107.8</ele>
        <time>2017-05-05T10:52:00Z</time>
      </trkpt>
      <trkpt lat="43.9823" lon="1.25486">
        <ele>108.7</ele>
        <time>2017-05-05T10:52:02Z</time>
      </trkpt>
      <trkpt lat="43.98223" lon="1.25471">
        <ele>109</ele>
        <time>2017-05-05T10:52:04Z</time>
      </trkpt>
      <trkpt lat="43.98216" lon="1.25457">
        <ele>108.6</ele>
        <time>2017-05-05T10:52:06Z</time>
      </trkpt>
      <trkpt lat="43.98209" lon="1.25444">
        <ele>108.6</ele>
        <time>2017-05-05T10:52:08Z</time>
      </trkpt>
      <trkpt lat="43.98201" lon="1.2543">
        <ele>108.3</ele>
        <time>2017-05-05T10:52:10Z</time>
      </trkpt>
      <trkpt lat="43.98194" lon="1.25416">
        <ele>108.5</ele>
        <time>2017-05-05T10:52:12Z</time>
      </trkpt>
      <trkpt lat="43.98185" lon="1.25404">
        <ele>109</ele>
        <time>2017-05-05T10:52:14Z</time>
      </trkpt>
      <trkpt lat="43.98176" lon="1.25391">
        <ele>109.4</ele>
        <time>2017-05-05T10:52:16Z</time>
      </trkpt>
      <trkpt lat="43.98168" lon="1.25378">
        <ele>109.7</ele>
        <time>2017-05-05T10:52:18Z</time>
      </trkpt>
      <trkpt lat="43.98159" lon="1.25365">
        <ele>109.6</ele>
        <time>2017-05-05T10:52:20Z</time>
      </trkpt>
      <trkpt lat="43.98151" lon="1.25353">
        <ele>109.1</ele>
        <time>2017-05-05T10:52:22Z</time>
      </trkpt>
      <trkpt lat="43.98143" lon="1.2534">
        <ele>108.8</ele>
        <time>2017-05-05T10:52:24Z</time>
      </trkpt>
      <trkpt lat="43.98133" lon="1.25329">
        <ele>108.6</ele>
        <time>2017-05-05T10:52:26Z</time>
      </trkpt>
      <trkpt lat="43.98124" lon="1.25319">
        <ele>108.6</ele>
        <time>2017-05-05T10:52:28Z</time>
      </trkpt>
      <trkpt lat="43.98116" lon="1.25309">
        <ele>108.6</ele>
        <time>2017-05-05T10:52:30Z</time>
      </trkpt>
      <trkpt lat="43.9811" lon="1.25296">
        <ele>109.5</ele>
        <time>2017-05-05T10:52:32Z</time>
      </trkpt>
      <trkpt lat="43.98103" lon="1.25282">
        <ele>109.4</ele>
        <time>2017-05-05T10:52:34Z</time>
      </trkpt>
      <trkpt lat="43.98094" lon="1.25271">
        <ele>110.5</ele>
        <time>2017-05-05T10:52:36Z</time>
      </trkpt>
      <trkpt lat="43.98085" lon="1.25259">
        <ele>109.9</ele>
        <time>2017-05-05T10:52:38Z</time>
      </trkpt>
      <trkpt lat="43.98076" lon="1.25248">
        <ele>109.4</ele>
        <time>2017-05-05T10:52:40Z</time>
      </trkpt>
      <trkpt lat="43.98068" lon="1.25236">
        <ele>109.4</ele>
        <time>2017-05-05T10:52:42Z</time>
      </trkpt>
      <trkpt lat="43.98059" lon="1.25224">
        <ele>109.1</ele>
        <time>2017-05-05T10:52:44Z</time>
      </trkpt>
      <trkpt lat="43.98051" lon="1.25213">
        <ele>109.3</ele>
        <time>2017-05-05T10:52:46Z</time>
      </trkpt>
      <trkpt lat="43.98042" lon="1.25201">
        <ele>108.9</ele>
        <time>2017-05-05T10:52:48Z</time>
      </trkpt>
      <trkpt lat="43.98032" lon="1.25191">
        <ele>109</ele>
        <time>2017-05-05T10:52:50Z</time>
      </trkpt>
      <trkpt lat="43.98022" lon="1.2518">
        <ele>108.8</ele>
        <time>2017-05-05T10:52:52Z</time>
      </trkpt>
      <trkpt lat="43.98012" lon="1.2517">
        <ele>108.5</ele>
        <time>2017-05-05T10:52:54Z</time>
      </trkpt>
      <trkpt lat="43.98002" lon="1.2516">
        <ele>108.1</ele>
        <time>2017-05-05T10:52:56Z</time>
      </trkpt>
      <trkpt lat="43.97992" lon="1.25149">
        <ele>108.1</ele>
        <time>2017-05-05T10:52:58Z</time>
      </trkpt>
      <trkpt lat="43.97982" lon="1.2514">
        <ele>108.4</ele>
        <time>2017-05-05T10:53:00Z</time>
      </trkpt>
      <trkpt lat="43.97972" lon="1.25131">
        <ele>109.3</ele>
        <time>2017-05-05T10:53:02Z</time>
      </trkpt>
      <trkpt lat="43.97963" lon="1.25122">
        <ele>110</ele>
        <time>2017-05-05T10:53:04Z</time>
      </trkpt>
      <trkpt lat="43.97953" lon="1.25113">
        <ele>110.2</ele>
        <time>2017-05-05T10:53:06Z</time>
      </trkpt>
      <trkpt lat="43.97943" lon="1.25104">
        <ele>110.3</ele>
        <time>2017-05-05T10:53:08Z</time>
      </trkpt>
      <trkpt lat="43.97933" lon="1.25096">
        <ele>110.6</ele>
        <time>2017-05-05T10:53:10Z</time>
      </trkpt>
      <trkpt lat="43.97923" lon="1.25087">
        <ele>110.7</ele>
        <time>2017-05-05T10:53:12Z</time>
      </trkpt>
      <trkpt lat="43.97913" lon="1.25078">
        <ele>110.6</ele>
        <time>2017-05-05T10:53:14Z</time>
      </trkpt>
      <trkpt lat="43.97902" lon="1.2507">
        <ele>111.2</ele>
        <time>2017-05-05T10:53:16Z</time>
      </trkpt>
      <trkpt lat="43.97891" lon="1.25062">
        <ele>111.2</ele>
        <time>2017-05-05T10:53:18Z</time>
      </trkpt>
      <trkpt lat="43.9788" lon="1.25055">
        <ele>111.9</ele>
        <time>2017-05-05T10:53:20Z</time>
      </trkpt>
      <trkpt lat="43.97868" lon="1.25048">
        <ele>112.3</ele>
        <time>2017-05-05T10:53:22Z</time>
      </trkpt>
      <trkpt lat="43.97857" lon="1.2504">
        <ele>111.9</ele>
        <time>2017-05-05T10:53:24Z</time>
      </trkpt>
      <trkpt lat="43.97846" lon="1.25033">
        <ele>112</ele>
        <time>2017-05-05T10:53:26Z</time>
      </trkpt>
      <trkpt lat="43.97835" lon="1.25025">
        <ele>112.2</ele>
        <time>2017-05-05T10:53:28Z</time>
      </trkpt>
      <trkpt lat="43.97823" lon="1.25018">
        <ele>112.3</ele>
        <time>2017-05-05T10:53:30Z</time>
      </trkpt>
      <trkpt lat="43.97812" lon="1.25011">
        <ele>111.6</ele>
        <time>2017-05-05T10:53:32Z</time>
      </trkpt>
      <trkpt lat="43.978" lon="1.25005">
        <ele>110.9</ele>
        <time>2017-05-05T10:53:34Z</time>
      </trkpt>
      <trkpt lat="43.97789" lon="1.25">
        <ele>111.1</ele>
        <time>2017-05-05T10:53:36Z</time>
      </trkpt>
      <trkpt lat="43.97777" lon="1.24995">
        <ele>111.2</ele>
        <time>2017-05-05T10:53:38Z</time>
      </trkpt>
      <trkpt lat="43.97766" lon="1.24989">
        <ele>110.7</ele>
        <time>2017-05-05T10:53:40Z</time>
      </trkpt>
      <trkpt lat="43.97755" lon="1.24983">
        <ele>110.9</ele>
        <time>2017-05-05T10:53:42Z</time>
      </trkpt>
      <trkpt lat="43.97744" lon="1.24977">
        <ele>111.1</ele>
        <time>2017-05-05T10:53:44Z</time>
      </trkpt>
      <trkpt lat="43.97732" lon="1.24972">
        <ele>111.2</ele>
        <time>2017-05-05T10:53:46Z</time>
      </trkpt>
      <trkpt lat="43.97721" lon="1.24967">
        <ele>110.6</ele>
        <time>2017-05-05T10:53:48Z</time>
      </trkpt>
      <trkpt lat="43.97709" lon="1.24962">
        <ele>111.1</ele>
        <time>2017-05-05T10:53:50Z</time>
      </trkpt>
      <trkpt lat="43.97698" lon="1.24956">
        <ele>110.8</ele>
        <time>2017-05-05T10:53:52Z</time>
      </trkpt>
      <trkpt lat="43.97687" lon="1.24951">
        <ele>110</ele>
        <time>2017-05-05T10:53:54Z</time>
      </trkpt>
      <trkpt lat="43.97676" lon="1.24946">
        <ele>109.5</ele>
        <time>2017-05-05T10:53:56Z</time>
      </trkpt>
      <trkpt lat="43.97664" lon="1.24942">
        <ele>109.6</ele>
        <time>2017-05-05T10:53:58Z</time>
      </trkpt>
      <trkpt lat="43.97653" lon="1.24937">
        <ele>110</ele>
        <time>2017-05-05T10:54:00Z</time>
      </trkpt>
      <trkpt lat="43.97642" lon="1.24933">
        <ele>109.9</ele>
        <time>2017-05-05T10:54:02Z</time>
      </trkpt>
      <trkpt lat="43.97631" lon="1.24929">
        <ele>109.5</ele>
        <time>2017-05-05T10:54:04Z</time>
      </trkpt>
      <trkpt lat="43.9762" lon="1.24924">
        <ele>109.7</ele>
        <time>2017-05-05T10:54:06Z</time>
      </trkpt>
      <trkpt lat="43.97609" lon="1.2492">
        <ele>110.8</ele>
        <time>2017-05-05T10:54:08Z</time>
      </trkpt>
      <trkpt lat="43.97597" lon="1.24917">
        <ele>111.6</ele>
        <time>2017-05-05T10:54:10Z</time>
      </trkpt>
      <trkpt lat="43.97586" lon="1.24914">
        <ele>112.5</ele>
        <time>2017-05-05T10:54:12Z</time>
      </trkpt>
      <trkpt lat="43.97575" lon="1.24909">
        <ele>112.5</ele>
        <time>2017-05-05T10:54:14Z</time>
      </trkpt>
      <trkpt lat="43.97563" lon="1.24905">
        <ele>112.7</ele>
        <time>2017-05-05T10:54:16Z</time>
      </trkpt>
      <trkpt lat="43.97552" lon="1.24903">
        <ele>113.5</ele>
        <time>2017-05-05T10:54:18Z</time>
      </trkpt>
      <trkpt lat="43.97541" lon="1.24897">
        <ele>112.7</ele>
        <time>2017-05-05T10:54:20Z</time>
      </trkpt>
      <trkpt lat="43.9753" lon="1.24892">
        <ele>111.8</ele>
        <time>2017-05-05T10:54:22Z</time>
      </trkpt>
      <trkpt lat="43.97519" lon="1.24887">
        <ele>111.3</ele>
        <time>2017-05-05T10:54:24Z</time>
      </trkpt>
      <trkpt lat="43.97507" lon="1.24883">
        <ele>111.5</ele>
        <time>2017-05-05T10:54:26Z</time>
      </trkpt>
      <trkpt lat="43.97496" lon="1.24879">
        <ele>112.1</ele>
        <time>2017-05-05T10:54:28Z</time>
      </trkpt>
      <trkpt lat="43.97486" lon="1.24875">
        <ele>112.8</ele>
        <time>2017-05-05T10:54:30Z</time>
      </trkpt>
      <trkpt lat="43.97476" lon="1.2487">
        <ele>113.1</ele>
        <time>2017-05-05T10:54:32Z</time>
      </trkpt>
      <trkpt lat="43.97465" lon="1.24865">
        <ele>112.9</ele>
        <time>2017-05-05T10:54:34Z</time>
      </trkpt>
      <trkpt lat="43.97453" lon="1.2486">
        <ele>112.5</ele>
        <time>2017-05-05T10:54:36Z</time>
      </trkpt>
      <trkpt lat="43.97442" lon="1.24855">
        <ele>112.4</ele>
        <time>2017-05-05T10:54:38Z</time>
      </trkpt>
      <trkpt lat="43.97431" lon="1.24851">
        <ele>112.2</ele>
        <time>2017-05-05T10:54:40Z</time>
      </trkpt>
      <trkpt lat="43.9742" lon="1.24846">
        <ele>112.2</ele>
        <time>2017-05-05T10:54:42Z</time>
      </trkpt>
      <trkpt lat="43.97409" lon="1.24842">
        <ele>111.8</ele>
        <time>2017-05-05T10:54:44Z</time>
      </trkpt>
      <trkpt lat="43.97397" lon="1.24838">
        <ele>113</ele>
        <time>2017-05-05T10:54:46Z</time>
      </trkpt>
      <trkpt lat="43.97386" lon="1.24835">
        <ele>113.5</ele>
        <time>2017-05-05T10:54:48Z</time>
      </trkpt>
      <trkpt lat="43.97375" lon="1.24831">
        <ele>114.5</ele>
        <time>2017-05-05T10:54:50Z</time>
      </trkpt>
      <trkpt lat="43.97364" lon="1.24825">
        <ele>114.4</ele>
        <time>2017-05-05T10:54:52Z</time>
      </trkpt>
      <trkpt lat="43.97353" lon="1.2482">
        <ele>115.9</ele>
        <time>2017-05-05T10:54:54Z</time>
      </trkpt>
      <trkpt lat="43.97342" lon="1.24813">
        <ele>115.8</ele>
        <time>2017-05-05T10:54:56Z</time>
      </trkpt>
      <trkpt lat="43.97331" lon="1.24807">
        <ele>115.8</ele>
        <time>2017-05-05T10:54:58Z</time>
      </trkpt>
      <trkpt lat="43.9732" lon="1.248">
        <ele>116.5</ele>
        <time>2017-05-05T10:55:00Z</time>
      </trkpt>
      <trkpt lat="43.97309" lon="1.24792">
        <ele>116.4</ele>
        <time>2017-05-05T10:55:02Z</time>
      </trkpt>
      <trkpt lat="43.97299" lon="1.24783">
        <ele>116.6</ele>
        <time>2017-05-05T10:55:04Z</time>
      </trkpt>
      <trkpt lat="43.97289" lon="1.24773">
        <ele>116</ele>
        <time>2017-05-05T10:55:06Z</time>
      </trkpt>
      <trkpt lat="43.97278" lon="1.24764">
        <ele>114.6</ele>
        <time>2017-05-05T10:55:08Z</time>
      </trkpt>
      <trkpt lat="43.97269" lon="1.24754">
        <ele>114.2</ele>
        <time>2017-05-05T10:55:10Z</time>
      </trkpt>
      <trkpt lat="43.97259" lon="1.24744">
        <ele>113.4</ele>
        <time>2017-05-05T10:55:12Z</time>
      </trkpt>
      <trkpt lat="43.97249" lon="1.24733">
        <ele>112.8</ele>
        <time>2017-05-05T10:55:14Z</time>
      </trkpt>
      <trkpt lat="43.9724" lon="1.24721">
        <ele>112.1</ele>
        <time>2017-05-05T10:55:16Z</time>
      </trkpt>
      <trkpt lat="43.97231" lon="1.24711">
        <ele>111.8</ele>
        <time>2017-05-05T10:55:18Z</time>
      </trkpt>
      <trkpt lat="43.97221" lon="1.247">
        <ele>111.7</ele>
        <time>2017-05-05T10:55:20Z</time>
      </trkpt>
      <trkpt lat="43.97213" lon="1.24689">
        <ele>110.8</ele>
        <time>2017-05-05T10:55:22Z</time>
      </trkpt>
      <trkpt lat="43.97204" lon="1.2468">
        <ele>110.6</ele>
        <time>2017-05-05T10:55:24Z</time>
      </trkpt>
      <trkpt lat="43.97195" lon="1.24669">
        <ele>110.6</ele>
        <time>2017-05-05T10:55:26Z</time>
      </trkpt>
      <trkpt lat="43.97187" lon="1.24658">
        <ele>110.1</ele>
        <time>2017-05-05T10:55:28Z</time>
      </trkpt>
      <trkpt lat="43.97178" lon="1.24646">
        <ele>109.5</ele>
        <time>2017-05-05T10:55:30Z</time>
      </trkpt>
      <trkpt lat="43.97169" lon="1.24636">
        <ele>109.2</ele>
        <time>2017-05-05T10:55:32Z</time>
      </trkpt>
      <trkpt lat="43.97159" lon="1.24625">
        <ele>109.1</ele>
        <time>2017-05-05T10:55:34Z</time>
      </trkpt>
      <trkpt lat="43.97149" lon="1.24614">
        <ele>109.3</ele>
        <time>2017-05-05T10:55:36Z</time>
      </trkpt>
      <trkpt lat="43.97141" lon="1.24603">
        <ele>108.6</ele>
        <time>2017-05-05T10:55:38Z</time>
      </trkpt>
      <trkpt lat="43.97131" lon="1.24591">
        <ele>108.2</ele>
        <time>2017-05-05T10:55:40Z</time>
      </trkpt>
      <trkpt lat="43.97122" lon="1.24581">
        <ele>107.6</ele>
        <time>2017-05-05T10:55:42Z</time>
      </trkpt>
      <trkpt lat="43.97113" lon="1.2457">
        <ele>107.6</ele>
        <time>2017-05-05T10:55:44Z</time>
      </trkpt>
      <trkpt lat="43.97104" lon="1.2456">
        <ele>107.5</ele>
        <time>2017-05-05T10:55:46Z</time>
      </trkpt>
      <trkpt lat="43.97095" lon="1.2455">
        <ele>107.8</ele>
        <time>2017-05-05T10:55:48Z</time>
      </trkpt>
      <trkpt lat="43.97086" lon="1.24539">
        <ele>107.8</ele>
        <time>2017-05-05T10:55:50Z</time>
      </trkpt>
      <trkpt lat="43.97077" lon="1.24528">
        <ele>107.7</ele>
        <time>2017-05-05T10:55:52Z</time>
      </trkpt>
      <trkpt lat="43.97068" lon="1.24517">
        <ele>107.3</ele>
        <time>2017-05-05T10:55:54Z</time>
      </trkpt>
      <trkpt lat="43.97059" lon="1.24507">
        <ele>107.2</ele>
        <time>2017-05-05T10:55:56Z</time>
      </trkpt>
      <trkpt lat="43.9705" lon="1.24497">
        <ele>106.9</ele>
        <time>2017-05-05T10:55:58Z</time>
      </trkpt>
      <trkpt lat="43.97042" lon="1.24484">
        <ele>106.5</ele>
        <time>2017-05-05T10:56:00Z</time>
      </trkpt>
      <trkpt lat="43.97033" lon="1.24472">
        <ele>106.4</ele>
        <time>2017-05-05T10:56:02Z</time>
      </trkpt>
      <trkpt lat="43.97024" lon="1.24462">
        <ele>106.5</ele>
        <time>2017-05-05T10:56:04Z</time>
      </trkpt>
      <trkpt lat="43.97015" lon="1.24453">
        <ele>106.7</ele>
        <time>2017-05-05T10:56:06Z</time>
      </trkpt>
      <trkpt lat="43.97005" lon="1.24444">
        <ele>107.7</ele>
        <time>2017-05-05T10:56:08Z</time>
      </trkpt>
      <trkpt lat="43.96997" lon="1.24435">
        <ele>108</ele>
        <time>2017-05-05T10:56:10Z</time>
      </trkpt>
      <trkpt lat="43.96988" lon="1.24425">
        <ele>108.4</ele>
        <time>2017-05-05T10:56:12Z</time>
      </trkpt>
      <trkpt lat="43.96979" lon="1.24415">
        <ele>108.4</ele>
        <time>2017-05-05T10:56:14Z</time>
      </trkpt>
      <trkpt lat="43.9697" lon="1.24405">
        <ele>108.6</ele>
        <time>2017-05-05T10:56:16Z</time>
      </trkpt>
      <trkpt lat="43.96961" lon="1.24395">
        <ele>108.8</ele>
        <time>2017-05-05T10:56:18Z</time>
      </trkpt>
      <trkpt lat="43.96952" lon="1.24384">
        <ele>108.9</ele>
        <time>2017-05-05T10:56:20Z</time>
      </trkpt>
      <trkpt lat="43.96944" lon="1.24374">
        <ele>108.9</ele>
        <time>2017-05-05T10:56:22Z</time>
      </trkpt>
      <trkpt lat="43.96935" lon="1.24363">
        <ele>108.8</ele>
        <time>2017-05-05T10:56:24Z</time>
      </trkpt>
      <trkpt lat="43.96926" lon="1.24352">
        <ele>108.7</ele>
        <time>2017-05-05T10:56:26Z</time>
      </trkpt>
      <trkpt lat="43.96918" lon="1.24342">
        <ele>108.8</ele>
        <time>2017-05-05T10:56:28Z</time>
      </trkpt>
      <trkpt lat="43.9691" lon="1.24332">
        <ele>108.7</ele>
        <time>2017-05-05T10:56:30Z</time>
      </trkpt>
      <trkpt lat="43.969" lon="1.24322">
        <ele>108.5</ele>
        <time>2017-05-05T10:56:32Z</time>
      </trkpt>
      <trkpt lat="43.96892" lon="1.24312">
        <ele>108.3</ele>
        <time>2017-05-05T10:56:34Z</time>
      </trkpt>
      <trkpt lat="43.96884" lon="1.24302">
        <ele>108.3</ele>
        <time>2017-05-05T10:56:36Z</time>
      </trkpt>
      <trkpt lat="43.96875" lon="1.24292">
        <ele>108.4</ele>
        <time>2017-05-05T10:56:38Z</time>
      </trkpt>
      <trkpt lat="43.96866" lon="1.24282">
        <ele>109</ele>
        <time>2017-05-05T10:56:40Z</time>
      </trkpt>
      <trkpt lat="43.96857" lon="1.24273">
        <ele>109.4</ele>
        <time>2017-05-05T10:56:42Z</time>
      </trkpt>
      <trkpt lat="43.96848" lon="1.24263">
        <ele>109.4</ele>
        <time>2017-05-05T10:56:44Z</time>
      </trkpt>
      <trkpt lat="43.96839" lon="1.24254">
        <ele>109.2</ele>
        <time>2017-05-05T10:56:46Z</time>
      </trkpt>
      <trkpt lat="43.9683" lon="1.24244">
        <ele>109.2</ele>
        <time>2017-05-05T10:56:48Z</time>
      </trkpt>
      <trkpt lat="43.96821" lon="1.24233">
        <ele>108.5</ele>
        <time>2017-05-05T10:56:50Z</time>
      </trkpt>
      <trkpt lat="43.96812" lon="1.24224">
        <ele>109.1</ele>
        <time>2017-05-05T10:56:52Z</time>
      </trkpt>
      <trkpt lat="43.96804" lon="1.24214">
        <ele>108.9</ele>
        <time>2017-05-05T10:56:54Z</time>
      </trkpt>
      <trkpt lat="43.96796" lon="1.24204">
        <ele>109</ele>
        <time>2017-05-05T10:56:56Z</time>
      </trkpt>
      <trkpt lat="43.96788" lon="1.24193">
        <ele>108.9</ele>
        <time>2017-05-05T10:56:58Z</time>
      </trkpt>
      <trkpt lat="43.96779" lon="1.24183">
        <ele>109.3</ele>
        <time>2017-05-05T10:57:00Z</time>
      </trkpt>
      <trkpt lat="43.9677" lon="1.24173">
        <ele>109.3</ele>
        <time>2017-05-05T10:57:02Z</time>
      </trkpt>
      <trkpt lat="43.96762" lon="1.24162">
        <ele>109.3</ele>
        <time>2017-05-05T10:57:04Z</time>
      </trkpt>
      <trkpt lat="43.96753" lon="1.24152">
        <ele>108.9</ele>
        <time>2017-05-05T10:57:06Z</time>
      </trkpt>
      <trkpt lat="43.96744" lon="1.24142">
        <ele>109.1</ele>
        <time>2017-05-05T10:57:08Z</time>
      </trkpt>
      <trkpt lat="43.96734" lon="1.24132">
        <ele>109.1</ele>
        <time>2017-05-05T10:57:10Z</time>
      </trkpt>
      <trkpt lat="43.96725" lon="1.2412">
        <ele>108.9</ele>
        <time>2017-05-05T10:57:12Z</time>
      </trkpt>
      <trkpt lat="43.96717" lon="1.24109">
        <ele>108.4</ele>
        <time>2017-05-05T10:57:14Z</time>
      </trkpt>
      <trkpt lat="43.96708" lon="1.24099">
        <ele>108</ele>
        <time>2017-05-05T10:57:16Z</time>
      </trkpt>
      <trkpt lat="43.96699" lon="1.24088">
        <ele>107.7</ele>
        <time>2017-05-05T10:57:18Z</time>
      </trkpt>
      <trkpt lat="43.96691" lon="1.24078">
        <ele>107.9</ele>
        <time>2017-05-05T10:57:20Z</time>
      </trkpt>
      <trkpt lat="43.96682" lon="1.24068">
        <ele>107.8</ele>
        <time>2017-05-05T10:57:22Z</time>
      </trkpt>
      <trkpt lat="43.96673" lon="1.24058">
        <ele>108.3</ele>
        <time>2017-05-05T10:57:24Z</time>
      </trkpt>
      <trkpt lat="43.96665" lon="1.24048">
        <ele>108.1</ele>
        <time>2017-05-05T10:57:26Z</time>
      </trkpt>
      <trkpt lat="43.96656" lon="1.24037">
        <ele>107.8</ele>
        <time>2017-05-05T10:57:28Z</time>
      </trkpt>
      <trkpt lat="43.96647" lon="1.24027">
        <ele>108.2</ele>
        <time>2017-05-05T10:57:30Z</time>
      </trkpt>
      <trkpt lat="43.96638" lon="1.24017">
        <ele>107.9</ele>
        <time>2017-05-05T10:57:32Z</time>
      </trkpt>
      <trkpt lat="43.9663" lon="1.24007">
        <ele>107.9</ele>
        <time>2017-05-05T10:57:34Z</time>
      </trkpt>
      <trkpt lat="43.96621" lon="1.23997">
        <ele>107.8</ele>
        <time>2017-05-05T10:57:36Z</time>
      </trkpt>
      <trkpt lat="43.96613" lon="1.23987">
        <ele>107.3</ele>
        <time>2017-05-05T10:57:38Z</time>
      </trkpt>
      <trkpt lat="43.96604" lon="1.23976">
        <ele>106.9</ele>
        <time>2017-05-05T10:57:40Z</time>
      </trkpt>
      <trkpt lat="43.96595" lon="1.23967">
        <ele>106.9</ele>
        <time>2017-05-05T10:57:42Z</time>
      </trkpt>
      <trkpt lat="43.96586" lon="1.23957">
        <ele>106.5</ele>
        <time>2017-05-05T10:57:44Z</time>
      </trkpt>
      <trkpt lat="43.96578" lon="1.23947">
        <ele>106.7</ele>
        <time>2017-05-05T10:57:46Z</time>
      </trkpt>
      <trkpt lat="43.96569" lon="1.23936">
        <ele>106.5</ele>
        <time>2017-05-05T10:57:48Z</time>
      </trkpt>
      <trkpt lat="43.9656" lon="1.23926">
        <ele>106.6</ele>
        <time>2017-05-05T10:57:50Z</time>
      </trkpt>
      <trkpt lat="43.96551" lon="1.23916">
        <ele>106.7</ele>
        <time>2017-05-05T10:57:52Z</time>
      </trkpt>
      <trkpt lat="43.96543" lon="1.23906">
        <ele>107</ele>
        <time>2017-05-05T10:57:54Z</time>
      </trkpt>
      <trkpt lat="43.96534" lon="1.23895">
        <ele>107.3</ele>
        <time>2017-05-05T10:57:56Z</time>
      </trkpt>
      <trkpt lat="43.96525" lon="1.23885">
        <ele>107.6</ele>
        <time>2017-05-05T10:57:58Z</time>
      </trkpt>
      <trkpt lat="43.96516" lon="1.23875">
        <ele>107.7</ele>
        <time>2017-05-05T10:58:00Z</time>
      </trkpt>
      <trkpt lat="43.96507" lon="1.23865">
        <ele>107.6</ele>
        <time>2017-05-05T10:58:02Z</time>
      </trkpt>
      <trkpt lat="43.96498" lon="1.23855">
        <ele>107.6</ele>
        <time>2017-05-05T10:58:04Z</time>
      </trkpt>
      <trkpt lat="43.96489" lon="1.23845">
        <ele>107.6</ele>
        <time>2017-05-05T10:58:06Z</time>
      </trkpt>
      <trkpt lat="43.9648" lon="1.23835">
        <ele>107.4</ele>
        <time>2017-05-05T10:58:08Z</time>
      </trkpt>
      <trkpt lat="43.96471" lon="1.23825">
        <ele>107.1</ele>
        <time>2017-05-05T10:58:10Z</time>
      </trkpt>
      <trkpt lat="43.96462" lon="1.23814">
        <ele>106.9</ele>
        <time>2017-05-05T10:58:12Z</time>
      </trkpt>
      <trkpt lat="43.96453" lon="1.23804">
        <ele>107.1</ele>
        <time>2017-05-05T10:58:14Z</time>
      </trkpt>
      <trkpt lat="43.96444" lon="1.23794">
        <ele>107.2</ele>
        <time>2017-05-05T10:58:16Z</time>
      </trkpt>
      <trkpt lat="43.96435" lon="1.23783">
        <ele>107.1</ele>
        <time>2017-05-05T10:58:18Z</time>
      </trkpt>
      <trkpt lat="43.96426" lon="1.23772">
        <ele>107.2</ele>
        <time>2017-05-05T10:58:20Z</time>
      </trkpt>
      <trkpt lat="43.96417" lon="1.23762">
        <ele>107.8</ele>
        <time>2017-05-05T10:58:22Z</time>
      </trkpt>
      <trkpt lat="43.96408" lon="1.23751">
        <ele>107.8</ele>
        <time>2017-05-05T10:58:24Z</time>
      </trkpt>
      <trkpt lat="43.96399" lon="1.2374">
        <ele>107.6</ele>
        <time>2017-05-05T10:58:26Z</time>
      </trkpt>
      <trkpt lat="43.96391" lon="1.2373">
        <ele>107</ele>
        <time>2017-05-05T10:58:28Z</time>
      </trkpt>
      <trkpt lat="43.96382" lon="1.2372">
        <ele>107</ele>
        <time>2017-05-05T10:58:30Z</time>
      </trkpt>
      <trkpt lat="43.96373" lon="1.23709">
        <ele>106.4</ele>
        <time>2017-05-05T10:58:32Z</time>
      </trkpt>
      <trkpt lat="43.96365" lon="1.237">
        <ele>105.7</ele>
        <time>2017-05-05T10:58:34Z</time>
      </trkpt>
      <trkpt lat="43.96356" lon="1.2369">
        <ele>105.5</ele>
        <time>2017-05-05T10:58:36Z</time>
      </trkpt>
      <trkpt lat="43.96347" lon="1.23681">
        <ele>105.4</ele>
        <time>2017-05-05T10:58:38Z</time>
      </trkpt>
      <trkpt lat="43.9634" lon="1.23671">
        <ele>105.1</ele>
        <time>2017-05-05T10:58:40Z</time>
      </trkpt>
      <trkpt lat="43.96332" lon="1.23661">
        <ele>104.7</ele>
        <time>2017-05-05T10:58:42Z</time>
      </trkpt>
      <trkpt lat="43.96323" lon="1.23651">
        <ele>104.5</ele>
        <time>2017-05-05T10:58:44Z</time>
      </trkpt>
      <trkpt lat="43.96316" lon="1.23641">
        <ele>105.1</ele>
        <time>2017-05-05T10:58:46Z</time>
      </trkpt>
      <trkpt lat="43.9631" lon="1.2363">
        <ele>105</ele>
        <time>2017-05-05T10:58:48Z</time>
      </trkpt>
      <trkpt lat="43.96307" lon="1.2362">
        <ele>104.7</ele>
        <time>2017-05-05T10:58:50Z</time>
      </trkpt>
      <trkpt lat="43.96302" lon="1.23614">
        <ele>105</ele>
        <time>2017-05-05T10:58:52Z</time>
      </trkpt>
      <trkpt lat="43.96292" lon="1.2361">
        <ele>104.9</ele>
        <time>2017-05-05T10:58:55Z</time>
      </trkpt>
      <trkpt lat="43.96285" lon="1.23605">
        <ele>105.2</ele>
        <time>2017-05-05T10:58:57Z</time>
      </trkpt>
      <trkpt lat="43.96277" lon="1.236">
        <ele>105.2</ele>
        <time>2017-05-05T10:58:59Z</time>
      </trkpt>
      <trkpt lat="43.9627" lon="1.23597">
        <ele>105.3</ele>
        <time>2017-05-05T10:59:01Z</time>
      </trkpt>
      <trkpt lat="43.96262" lon="1.23596">
        <ele>105.2</ele>
        <time>2017-05-05T10:59:03Z</time>
      </trkpt>
      <trkpt lat="43.96252" lon="1.236">
        <ele>105.6</ele>
        <time>2017-05-05T10:59:06Z</time>
      </trkpt>
      <trkpt lat="43.96244" lon="1.23604">
        <ele>106</ele>
        <time>2017-05-05T10:59:08Z</time>
      </trkpt>
      <trkpt lat="43.96236" lon="1.23608">
        <ele>106.1</ele>
        <time>2017-05-05T10:59:10Z</time>
      </trkpt>
      <trkpt lat="43.96228" lon="1.23612">
        <ele>106.5</ele>
        <time>2017-05-05T10:59:12Z</time>
      </trkpt>
      <trkpt lat="43.9622" lon="1.23617">
        <ele>106.8</ele>
        <time>2017-05-05T10:59:14Z</time>
      </trkpt>
      <trkpt lat="43.96212" lon="1.23622">
        <ele>107.1</ele>
        <time>2017-05-05T10:59:16Z</time>
      </trkpt>
      <trkpt lat="43.96204" lon="1.23628">
        <ele>107.3</ele>
        <time>2017-05-05T10:59:18Z</time>
      </trkpt>
      <trkpt lat="43.96195" lon="1.23633">
        <ele>107.5</ele>
        <time>2017-05-05T10:59:20Z</time>
      </trkpt>
      <trkpt lat="43.96186" lon="1.23638">
        <ele>107.6</ele>
        <time>2017-05-05T10:59:22Z</time>
      </trkpt>
      <trkpt lat="43.96177" lon="1.23644">
        <ele>107.1</ele>
        <time>2017-05-05T10:59:24Z</time>
      </trkpt>
      <trkpt lat="43.96169" lon="1.23649">
        <ele>107.6</ele>
        <time>2017-05-05T10:59:26Z</time>
      </trkpt>
      <trkpt lat="43.9616" lon="1.23654">
        <ele>107.6</ele>
        <time>2017-05-05T10:59:28Z</time>
      </trkpt>
      <trkpt lat="43.9615" lon="1.2366">
        <ele>107.4</ele>
        <time>2017-05-05T10:59:30Z</time>
      </trkpt>
      <trkpt lat="43.96141" lon="1.23664">
        <ele>107</ele>
        <time>2017-05-05T10:59:32Z</time>
      </trkpt>
      <trkpt lat="43.96133" lon="1.2367">
        <ele>107.2</ele>
        <time>2017-05-05T10:59:34Z</time>
      </trkpt>
      <trkpt lat="43.96125" lon="1.23675">
        <ele>108.6</ele>
        <time>2017-05-05T10:59:36Z</time>
      </trkpt>
      <trkpt lat="43.96117" lon="1.23679">
        <ele>109</ele>
        <time>2017-05-05T10:59:38Z</time>
      </trkpt>
      <trkpt lat="43.96108" lon="1.23684">
        <ele>109</ele>
        <time>2017-05-05T10:59:40Z</time>
      </trkpt>
      <trkpt lat="43.96099" lon="1.23691">
        <ele>109</ele>
        <time>2017-05-05T10:59:42Z</time>
      </trkpt>
      <trkpt lat="43.96091" lon="1.23696">
        <ele>109.4</ele>
        <time>2017-05-05T10:59:44Z</time>
      </trkpt>
      <trkpt lat="43.96082" lon="1.23702">
        <ele>109.4</ele>
        <time>2017-05-05T10:59:46Z</time>
      </trkpt>
      <trkpt lat="43.96074" lon="1.23708">
        <ele>109.6</ele>
        <time>2017-05-05T10:59:48Z</time>
      </trkpt>
      <trkpt lat="43.96065" lon="1.23713">
        <ele>109.7</ele>
        <time>2017-05-05T10:59:50Z</time>
      </trkpt>
      <trkpt lat="43.96057" lon="1.23718">
        <ele>109.4</ele>
        <time>2017-05-05T10:59:52Z</time>
      </trkpt>
      <trkpt lat="43.96048" lon="1.23723">
        <ele>107.8</ele>
        <time>2017-05-05T10:59:54Z</time>
      </trkpt>
      <trkpt lat="43.96039" lon="1.23728">
        <ele>107.1</ele>
        <time>2017-05-05T10:59:56Z</time>
      </trkpt>
      <trkpt lat="43.96031" lon="1.23733">
        <ele>107.2</ele>
        <time>2017-05-05T10:59:58Z</time>
      </trkpt>
      <trkpt lat="43.96022" lon="1.2374">
        <ele>107.2</ele>
        <time>2017-05-05T11:00:01Z</time>
      </trkpt>
      <trkpt lat="43.96012" lon="1.23746">
        <ele>106.9</ele>
        <time>2017-05-05T11:00:04Z</time>
      </trkpt>
      <trkpt lat="43.96005" lon="1.23754">
        <ele>106.4</ele>
        <time>2017-05-05T11:00:07Z</time>
      </trkpt>
      <trkpt lat="43.96" lon="1.23763">
        <ele>106.3</ele>
        <time>2017-05-05T11:00:10Z</time>
      </trkpt>
      <trkpt lat="43.95992" lon="1.2377">
        <ele>107.5</ele>
        <time>2017-05-05T11:00:15Z</time>
      </trkpt>
      <trkpt lat="43.95985" lon="1.23769">
        <ele>108.5</ele>
        <time>2017-05-05T11:00:18Z</time>
      </trkpt>
      <trkpt lat="43.9598" lon="1.23761">
        <ele>109.8</ele>
        <time>2017-05-05T11:00:23Z</time>
      </trkpt>
      <trkpt lat="43.95976" lon="1.23752">
        <ele>110.8</ele>
        <time>2017-05-05T11:00:25Z</time>
      </trkpt>
      <trkpt lat="43.95972" lon="1.2374">
        <ele>111.5</ele>
        <time>2017-05-05T11:00:28Z</time>
      </trkpt>
      <trkpt lat="43.95967" lon="1.23726">
        <ele>111.6</ele>
        <time>2017-05-05T11:00:31Z</time>
      </trkpt>
      <trkpt lat="43.95965" lon="1.23716">
        <ele>111.7</ele>
        <time>2017-05-05T11:00:33Z</time>
      </trkpt>
      <trkpt lat="43.95962" lon="1.23706">
        <ele>111.6</ele>
        <time>2017-05-05T11:00:35Z</time>
      </trkpt>
      <trkpt lat="43.95958" lon="1.23695">
        <ele>111.2</ele>
        <time>2017-05-05T11:00:37Z</time>
      </trkpt>
      <trkpt lat="43.95954" lon="1.23684">
        <ele>111.2</ele>
        <time>2017-05-05T11:00:39Z</time>
      </trkpt>
      <trkpt lat="43.95952" lon="1.23671">
        <ele>111.3</ele>
        <time>2017-05-05T11:00:42Z</time>
      </trkpt>
      <trkpt lat="43.95956" lon="1.23658">
        <ele>109.7</ele>
        <time>2017-05-05T11:00:45Z</time>
      </trkpt>
      <trkpt lat="43.95962" lon="1.23665">
        <ele>108.9</ele>
        <time>2017-05-05T11:00:48Z</time>
      </trkpt>
      <trkpt lat="43.95964" lon="1.23679">
        <ele>107.8</ele>
        <time>2017-05-05T11:00:51Z</time>
      </trkpt>
      <trkpt lat="43.95967" lon="1.23688">
        <ele>107.2</ele>
        <time>2017-05-05T11:00:53Z</time>
      </trkpt>
      <trkpt lat="43.95971" lon="1.23697">
        <ele>106.6</ele>
        <time>2017-05-05T11:00:55Z</time>
      </trkpt>
      <trkpt lat="43.95976" lon="1.23705">
        <ele>105.8</ele>
        <time>2017-05-05T11:00:57Z</time>
      </trkpt>
      <trkpt lat="43.95981" lon="1.23718">
        <ele>105</ele>
        <time>2017-05-05T11:01:00Z</time>
      </trkpt>
      <trkpt lat="43.95982" lon="1.23731">
        <ele>104.2</ele>
        <time>2017-05-05T11:01:03Z</time>
      </trkpt>
      <trkpt lat="43.95977" lon="1.23739">
        <ele>103.5</ele>
        <time>2017-05-05T11:01:06Z</time>
      </trkpt>
      <trkpt lat="43.9597" lon="1.23743">
        <ele>103.8</ele>
        <time>2017-05-05T11:01:10Z</time>
      </trkpt>
      <trkpt lat="43.95961" lon="1.2375">
        <ele>103.7</ele>
        <time>2017-05-05T11:01:13Z</time>
      </trkpt>
      <trkpt lat="43.95951" lon="1.23749">
        <ele>104.3</ele>
        <time>2017-05-05T11:01:16Z</time>
      </trkpt>
      <trkpt lat="43.95941" lon="1.23744">
        <ele>104.8</ele>
        <time>2017-05-05T11:01:19Z</time>
      </trkpt>
      <trkpt lat="43.9593" lon="1.23743">
        <ele>105.1</ele>
        <time>2017-05-05T11:01:22Z</time>
      </trkpt>
      <trkpt lat="43.95921" lon="1.23747">
        <ele>104.7</ele>
        <time>2017-05-05T11:01:25Z</time>
      </trkpt>
      <trkpt lat="43.95912" lon="1.23749">
        <ele>104.6</ele>
        <time>2017-05-05T11:01:28Z</time>
      </trkpt>
      <trkpt lat="43.95904" lon="1.2375">
        <ele>104.8</ele>
        <time>2017-05-05T11:01:31Z</time>
      </trkpt>
      <trkpt lat="43.95896" lon="1.23752">
        <ele>105</ele>
        <time>2017-05-05T11:01:35Z</time>
      </trkpt>
      <trkpt lat="43.95888" lon="1.23757">
        <ele>104.9</ele>
        <time>2017-05-05T11:01:41Z</time>
      </trkpt>
      <trkpt lat="43.95881" lon="1.23762">
        <ele>104.8</ele>
        <time>2017-05-05T11:01:46Z</time>
      </trkpt>
      <trkpt lat="43.95879" lon="1.23763">
        <ele>103.5</ele>
        <time>2017-05-05T11:01:53Z</time>
      </trkpt>
      <trkpt lat="43.95878" lon="1.23763">
        <ele>99.6</ele>
        <time>2017-05-05T11:01:22Z</time>
      </trkpt>
    </trkseg>
  </trk>
</gpx>